<?xml version='1.0' encoding='UTF-8'?><gpx version="1.1" creator="JPX - https://github.com/jenetics/jpx" xmlns="http://www.topografix.com/GPX/1/1"><trk><trkseg><trkpt lat="40.3312833" lon="8.9549787"><ele>509.0</ele><time>2026-03-29T08:13:09.256Z</time></trkpt><trkpt lat="40.3313339" lon="8.9548022"><ele>509.0</ele><time>2026-03-29T08:13:11.257Z</time></trkpt><trkpt lat="40.3313911" lon="8.9546939"><ele>509.0</ele><time>2026-03-29T08:13:12.257Z</time></trkpt><trkpt lat="40.3314636" lon="8.9545904"><ele>509.0</ele><time>2026-03-29T08:13:13.256Z</time></trkpt><trkpt lat="40.3315391" lon="8.9544927"><ele>517.3333333333333</ele><time>2026-03-29T08:13:14.257Z</time></trkpt><trkpt lat="40.3316528" lon="8.9544365"><ele>525.6666666666666</ele><time>2026-03-29T08:13:15.256Z</time></trkpt><trkpt lat="40.331865" lon="8.9544655"><ele>534.0</ele><time>2026-03-29T08:13:16.258Z</time></trkpt><trkpt lat="40.3320429" lon="8.9544249"><ele>539.6666666666666</ele><time>2026-03-29T08:13:17.256Z</time></trkpt><trkpt lat="40.3322383" lon="8.9544014"><ele>545.3333333333333</ele><time>2026-03-29T08:13:18.257Z</time></trkpt><trkpt lat="40.3324233" lon="8.9543771"><ele>551.0</ele><time>2026-03-29T08:13:19.256Z</time></trkpt><trkpt lat="40.3326106" lon="8.9542768"><ele>554.3333333333333</ele><time>2026-03-29T08:13:20.256Z</time></trkpt><trkpt lat="40.3327974" lon="8.9541877"><ele>557.6666666666666</ele><time>2026-03-29T08:13:21.257Z</time></trkpt><trkpt lat="40.3329631" lon="8.9540983"><ele>561.0</ele><time>2026-03-29T08:13:22.257Z</time></trkpt><trkpt lat="40.3331119" lon="8.9540329"><ele>561.0</ele><time>2026-03-29T08:13:23.257Z</time></trkpt><trkpt lat="40.333261" lon="8.9540056"><ele>561.0</ele><time>2026-03-29T08:13:24.257Z</time></trkpt><trkpt lat="40.3334148" lon="8.9539811"><ele>561.0</ele><time>2026-03-29T08:13:25.257Z</time></trkpt><trkpt lat="40.3335795" lon="8.9539524"><ele>561.0</ele><time>2026-03-29T08:13:26.257Z</time></trkpt><trkpt lat="40.3337462" lon="8.9539374"><ele>561.0</ele><time>2026-03-29T08:13:27.255Z</time></trkpt><trkpt lat="40.3339118" lon="8.953943"><ele>561.0</ele><time>2026-03-29T08:13:28.257Z</time></trkpt><trkpt lat="40.3340787" lon="8.9539581"><ele>566.3333333333334</ele><time>2026-03-29T08:13:29.258Z</time></trkpt><trkpt lat="40.3342527" lon="8.9539706"><ele>571.6666666666667</ele><time>2026-03-29T08:13:30.256Z</time></trkpt><trkpt lat="40.3344182" lon="8.9539727"><ele>577.0</ele><time>2026-03-29T08:13:31.256Z</time></trkpt><trkpt lat="40.3345578" lon="8.9539518"><ele>577.0</ele><time>2026-03-29T08:13:32.257Z</time></trkpt><trkpt lat="40.3346996" lon="8.9539182"><ele>577.0</ele><time>2026-03-29T08:13:33.257Z</time></trkpt><trkpt lat="40.3348361" lon="8.9538523"><ele>577.0</ele><time>2026-03-29T08:13:34.256Z</time></trkpt><trkpt lat="40.3349758" lon="8.953765"><ele>577.0</ele><time>2026-03-29T08:13:35.256Z</time></trkpt><trkpt lat="40.3351073" lon="8.9537015"><ele>580.5</ele><time>2026-03-29T08:13:36.256Z</time></trkpt><trkpt lat="40.3352441" lon="8.9536669"><ele>584.0</ele><time>2026-03-29T08:13:37.257Z</time></trkpt><trkpt lat="40.3353786" lon="8.9536256"><ele>587.5</ele><time>2026-03-29T08:13:38.257Z</time></trkpt><trkpt lat="40.3355179" lon="8.9535531"><ele>591.0</ele><time>2026-03-29T08:13:39.256Z</time></trkpt><trkpt lat="40.3356457" lon="8.9534677"><ele>589.0</ele><time>2026-03-29T08:13:40.257Z</time></trkpt><trkpt lat="40.3357582" lon="8.9533765"><ele>587.0</ele><time>2026-03-29T08:13:41.256Z</time></trkpt><trkpt lat="40.3358686" lon="8.9533177"><ele>585.0</ele><time>2026-03-29T08:13:42.257Z</time></trkpt><trkpt lat="40.3359942" lon="8.9532511"><ele>583.0</ele><time>2026-03-29T08:13:43.258Z</time></trkpt><trkpt lat="40.3361353" lon="8.9532107"><ele>583.0</ele><time>2026-03-29T08:13:44.256Z</time></trkpt><trkpt lat="40.3362955" lon="8.9531819"><ele>583.0</ele><time>2026-03-29T08:13:45.257Z</time></trkpt><trkpt lat="40.3364661" lon="8.9531503"><ele>583.0</ele><time>2026-03-29T08:13:46.256Z</time></trkpt><trkpt lat="40.3366486" lon="8.9530925"><ele>585.6666666666667</ele><time>2026-03-29T08:13:47.256Z</time></trkpt><trkpt lat="40.336843" lon="8.9530207"><ele>588.3333333333334</ele><time>2026-03-29T08:13:48.257Z</time></trkpt><trkpt lat="40.3370414" lon="8.9529438"><ele>591.0</ele><time>2026-03-29T08:13:49.257Z</time></trkpt><trkpt lat="40.3372471" lon="8.9528694"><ele>596.6666666666666</ele><time>2026-03-29T08:13:50.257Z</time></trkpt><trkpt lat="40.3374425" lon="8.9528127"><ele>602.3333333333333</ele><time>2026-03-29T08:13:51.257Z</time></trkpt><trkpt lat="40.3376381" lon="8.9527777"><ele>608.0</ele><time>2026-03-29T08:13:52.257Z</time></trkpt><trkpt lat="40.3378175" lon="8.9527711"><ele>620.5</ele><time>2026-03-29T08:13:53.257Z</time></trkpt><trkpt lat="40.3381367" lon="8.9526819"><ele>633.0</ele><time>2026-03-29T08:13:55.258Z</time></trkpt><trkpt lat="40.3383058" lon="8.9526215"><ele>633.0</ele><time>2026-03-29T08:13:56.256Z</time></trkpt><trkpt lat="40.3384744" lon="8.9525722"><ele>633.0</ele><time>2026-03-29T08:13:57.256Z</time></trkpt><trkpt lat="40.3386478" lon="8.9525189"><ele>633.0</ele><time>2026-03-29T08:13:58.255Z</time></trkpt><trkpt lat="40.3388239" lon="8.9524623"><ele>630.3333333333334</ele><time>2026-03-29T08:13:59.256Z</time></trkpt><trkpt lat="40.3389993" lon="8.9523883"><ele>627.6666666666667</ele><time>2026-03-29T08:14:00.256Z</time></trkpt><trkpt lat="40.3391797" lon="8.9523125"><ele>625.0</ele><time>2026-03-29T08:14:01.255Z</time></trkpt><trkpt lat="40.3393574" lon="8.9522495"><ele>625.0</ele><time>2026-03-29T08:14:02.257Z</time></trkpt><trkpt lat="40.3395177" lon="8.9522068"><ele>625.0</ele><time>2026-03-29T08:14:03.256Z</time></trkpt><trkpt lat="40.3396654" lon="8.9521666"><ele>625.0</ele><time>2026-03-29T08:14:04.257Z</time></trkpt><trkpt lat="40.3398018" lon="8.9521359"><ele>627.6</ele><time>2026-03-29T08:14:05.257Z</time></trkpt><trkpt lat="40.3399301" lon="8.9521082"><ele>630.2</ele><time>2026-03-29T08:14:06.258Z</time></trkpt><trkpt lat="40.3400417" lon="8.9520806"><ele>632.8</ele><time>2026-03-29T08:14:07.257Z</time></trkpt><trkpt lat="40.340132" lon="8.9520573"><ele>635.4</ele><time>2026-03-29T08:14:08.257Z</time></trkpt><trkpt lat="40.3402068" lon="8.9520715"><ele>638.0</ele><time>2026-03-29T08:14:09.258Z</time></trkpt><trkpt lat="40.340224" lon="8.9522772"><ele>638.0</ele><time>2026-03-29T08:14:12.257Z</time></trkpt><trkpt lat="40.3400997" lon="8.9523201"><ele>638.0</ele><time>2026-03-29T08:14:13.256Z</time></trkpt><trkpt lat="40.3399892" lon="8.9523624"><ele>638.0</ele><time>2026-03-29T08:14:14.256Z</time></trkpt><trkpt lat="40.3399131" lon="8.952406"><ele>638.0</ele><time>2026-03-29T08:14:15.258Z</time></trkpt><trkpt lat="40.3398766" lon="8.9525267"><ele>638.0</ele><time>2026-03-29T08:14:17.258Z</time></trkpt><trkpt lat="40.3399992" lon="8.9525555"><ele>650.6666666666666</ele><time>2026-03-29T08:14:19.258Z</time></trkpt><trkpt lat="40.3401284" lon="8.9525848"><ele>663.3333333333334</ele><time>2026-03-29T08:14:20.257Z</time></trkpt><trkpt lat="40.340277" lon="8.9526489"><ele>676.0</ele><time>2026-03-29T08:14:21.257Z</time></trkpt><trkpt lat="40.3404414" lon="8.9527453"><ele>675.6666666666667</ele><time>2026-03-29T08:14:22.257Z</time></trkpt><trkpt lat="40.3406322" lon="8.9528495"><ele>675.3333333333334</ele><time>2026-03-29T08:14:23.259Z</time></trkpt><trkpt lat="40.340835" lon="8.9529524"><ele>675.0</ele><time>2026-03-29T08:14:24.258Z</time></trkpt><trkpt lat="40.3410438" lon="8.9530576"><ele>675.0</ele><time>2026-03-29T08:14:25.257Z</time></trkpt><trkpt lat="40.3412536" lon="8.9531724"><ele>675.0</ele><time>2026-03-29T08:14:26.257Z</time></trkpt><trkpt lat="40.3414538" lon="8.9532769"><ele>675.0</ele><time>2026-03-29T08:14:27.258Z</time></trkpt><trkpt lat="40.3416327" lon="8.9533464"><ele>689.3333333333334</ele><time>2026-03-29T08:14:28.256Z</time></trkpt><trkpt lat="40.3418014" lon="8.9534095"><ele>703.6666666666667</ele><time>2026-03-29T08:14:29.256Z</time></trkpt><trkpt lat="40.3419463" lon="8.9534264"><ele>718.0</ele><time>2026-03-29T08:14:30.256Z</time></trkpt><trkpt lat="40.3420806" lon="8.9534026"><ele>707.75</ele><time>2026-03-29T08:14:31.257Z</time></trkpt><trkpt lat="40.3422254" lon="8.9533561"><ele>697.5</ele><time>2026-03-29T08:14:32.256Z</time></trkpt><trkpt lat="40.3423743" lon="8.9533176"><ele>687.25</ele><time>2026-03-29T08:14:33.257Z</time></trkpt><trkpt lat="40.3425209" lon="8.9533092"><ele>677.0</ele><time>2026-03-29T08:14:34.257Z</time></trkpt><trkpt lat="40.3426769" lon="8.9533128"><ele>677.0</ele><time>2026-03-29T08:14:35.257Z</time></trkpt><trkpt lat="40.3428343" lon="8.9533272"><ele>677.0</ele><time>2026-03-29T08:14:36.258Z</time></trkpt><trkpt lat="40.3430068" lon="8.9533383"><ele>677.0</ele><time>2026-03-29T08:14:37.256Z</time></trkpt><trkpt lat="40.3431792" lon="8.9533445"><ele>679.0</ele><time>2026-03-29T08:14:38.257Z</time></trkpt><trkpt lat="40.3433447" lon="8.9533458"><ele>681.0</ele><time>2026-03-29T08:14:39.258Z</time></trkpt><trkpt lat="40.3434957" lon="8.9533421"><ele>683.0</ele><time>2026-03-29T08:14:40.257Z</time></trkpt><trkpt lat="40.3436443" lon="8.9533686"><ele>690.6666666666666</ele><time>2026-03-29T08:14:41.256Z</time></trkpt><trkpt lat="40.3437923" lon="8.9534346"><ele>698.3333333333334</ele><time>2026-03-29T08:14:42.256Z</time></trkpt><trkpt lat="40.3439458" lon="8.9535047"><ele>706.0</ele><time>2026-03-29T08:14:43.256Z</time></trkpt><trkpt lat="40.3441111" lon="8.9535616"><ele>706.0</ele><time>2026-03-29T08:14:44.257Z</time></trkpt><trkpt lat="40.3442878" lon="8.9536074"><ele>706.0</ele><time>2026-03-29T08:14:45.257Z</time></trkpt><trkpt lat="40.344628" lon="8.9537405"><ele>706.6666666666667</ele><time>2026-03-29T08:14:47.257Z</time></trkpt><trkpt lat="40.3448014" lon="8.9538076"><ele>707.3333333333334</ele><time>2026-03-29T08:14:48.256Z</time></trkpt><trkpt lat="40.3449752" lon="8.9538638"><ele>708.0</ele><time>2026-03-29T08:14:49.256Z</time></trkpt><trkpt lat="40.3451488" lon="8.9538993"><ele>708.0</ele><time>2026-03-29T08:14:50.256Z</time></trkpt><trkpt lat="40.3453153" lon="8.953933"><ele>708.0</ele><time>2026-03-29T08:14:51.257Z</time></trkpt><trkpt lat="40.3454607" lon="8.9539471"><ele>708.0</ele><time>2026-03-29T08:14:52.257Z</time></trkpt><trkpt lat="40.3455746" lon="8.9539566"><ele>708.0</ele><time>2026-03-29T08:14:53.258Z</time></trkpt><trkpt lat="40.3456708" lon="8.9539565"><ele>709.3333333333334</ele><time>2026-03-29T08:14:54.257Z</time></trkpt><trkpt lat="40.3457422" lon="8.9539503"><ele>710.6666666666666</ele><time>2026-03-29T08:14:55.257Z</time></trkpt><trkpt lat="40.3458181" lon="8.9540425"><ele>712.0</ele><time>2026-03-29T08:14:57.256Z</time></trkpt><trkpt lat="40.3457454" lon="8.9540682"><ele>713.3333333333333</ele><time>2026-03-29T08:14:58.256Z</time></trkpt><trkpt lat="40.3456806" lon="8.9540919"><ele>714.6666666666666</ele><time>2026-03-29T08:14:59.257Z</time></trkpt><trkpt lat="40.3456475" lon="8.9542264"><ele>716.0</ele><time>2026-03-29T08:15:02.257Z</time></trkpt><trkpt lat="40.3457598" lon="8.9542348"><ele>724.25</ele><time>2026-03-29T08:15:04.256Z</time></trkpt><trkpt lat="40.3458717" lon="8.9542402"><ele>732.5</ele><time>2026-03-29T08:15:05.257Z</time></trkpt><trkpt lat="40.3460035" lon="8.9542442"><ele>740.75</ele><time>2026-03-29T08:15:06.257Z</time></trkpt><trkpt lat="40.3461574" lon="8.9542151"><ele>749.0</ele><time>2026-03-29T08:15:07.256Z</time></trkpt><trkpt lat="40.3462952" lon="8.9542056"><ele>750.5</ele><time>2026-03-29T08:15:08.257Z</time></trkpt><trkpt lat="40.3465107" lon="8.9541687"><ele>752.0</ele><time>2026-03-29T08:15:10.258Z</time></trkpt><trkpt lat="40.3465967" lon="8.9541488"><ele>753.5</ele><time>2026-03-29T08:15:11.256Z</time></trkpt><trkpt lat="40.3466851" lon="8.9541432"><ele>755.0</ele><time>2026-03-29T08:15:12.258Z</time></trkpt><trkpt lat="40.3467668" lon="8.9542589"><ele>755.0</ele><time>2026-03-29T08:15:14.257Z</time></trkpt><trkpt lat="40.3467856" lon="8.9543447"><ele>755.0</ele><time>2026-03-29T08:15:16.256Z</time></trkpt><trkpt lat="40.3468042" lon="8.9544505"><ele>755.0</ele><time>2026-03-29T08:15:19.256Z</time></trkpt><trkpt lat="40.3468655" lon="8.9545171"><ele>755.0</ele><time>2026-03-29T08:15:21.257Z</time></trkpt><trkpt lat="40.3469424" lon="8.9545495"><ele>755.0</ele><time>2026-03-29T08:15:23.256Z</time></trkpt><trkpt lat="40.3470074" lon="8.9545777"><ele>755.0</ele><time>2026-03-29T08:15:25.257Z</time></trkpt><trkpt lat="40.3470986" lon="8.9546117"><ele>755.0</ele><time>2026-03-29T08:15:27.258Z</time></trkpt><trkpt lat="40.347184" lon="8.9546466"><ele>755.0</ele><time>2026-03-29T08:15:28.256Z</time></trkpt><trkpt lat="40.3472678" lon="8.9546844"><ele>755.0</ele><time>2026-03-29T08:15:29.257Z</time></trkpt><trkpt lat="40.3473448" lon="8.9547126"><ele>755.0</ele><time>2026-03-29T08:15:30.256Z</time></trkpt><trkpt lat="40.3474607" lon="8.954751"><ele>755.0</ele><time>2026-03-29T08:15:32.257Z</time></trkpt><trkpt lat="40.3475428" lon="8.9547932"><ele>755.8</ele><time>2026-03-29T08:15:34.256Z</time></trkpt><trkpt lat="40.3476149" lon="8.954823"><ele>756.6</ele><time>2026-03-29T08:15:36.257Z</time></trkpt><trkpt lat="40.3476951" lon="8.9548515"><ele>757.4000000000001</ele><time>2026-03-29T08:15:38.257Z</time></trkpt><trkpt lat="40.3477806" lon="8.9548732"><ele>758.2</ele><time>2026-03-29T08:15:40.258Z</time></trkpt><trkpt lat="40.3478654" lon="8.954921"><ele>759.0</ele><time>2026-03-29T08:15:42.256Z</time></trkpt><trkpt lat="40.347966" lon="8.9549913"><ele>759.0</ele><time>2026-03-29T08:15:43.256Z</time></trkpt><trkpt lat="40.3480429" lon="8.9550029"><ele>759.0</ele><time>2026-03-29T08:15:44.257Z</time></trkpt><trkpt lat="40.3481077" lon="8.955025"><ele>759.0</ele><time>2026-03-29T08:15:45.257Z</time></trkpt><trkpt lat="40.3481698" lon="8.9550504"><ele>759.0</ele><time>2026-03-29T08:15:46.256Z</time></trkpt><trkpt lat="40.3482559" lon="8.9550716"><ele>759.0</ele><time>2026-03-29T08:15:48.256Z</time></trkpt><trkpt lat="40.3483863" lon="8.9551108"><ele>759.0</ele><time>2026-03-29T08:15:50.257Z</time></trkpt><trkpt lat="40.3484637" lon="8.9551256"><ele>766.0</ele><time>2026-03-29T08:15:51.256Z</time></trkpt><trkpt lat="40.3485503" lon="8.9551311"><ele>773.0</ele><time>2026-03-29T08:15:52.257Z</time></trkpt><trkpt lat="40.3486524" lon="8.9551422"><ele>780.0</ele><time>2026-03-29T08:15:54.256Z</time></trkpt><trkpt lat="40.3487815" lon="8.9551276"><ele>787.0</ele><time>2026-03-29T08:15:56.257Z</time></trkpt><trkpt lat="40.3488617" lon="8.9551167"><ele>794.0</ele><time>2026-03-29T08:15:57.256Z</time></trkpt><trkpt lat="40.3489465" lon="8.9551118"><ele>797.6666666666667</ele><time>2026-03-29T08:15:58.257Z</time></trkpt><trkpt lat="40.3490186" lon="8.9551221"><ele>801.3333333333334</ele><time>2026-03-29T08:15:59.258Z</time></trkpt><trkpt lat="40.3490959" lon="8.9551858"><ele>805.0</ele><time>2026-03-29T08:16:01.258Z</time></trkpt><trkpt lat="40.3491694" lon="8.955167"><ele>808.6666666666667</ele><time>2026-03-29T08:16:02.256Z</time></trkpt><trkpt lat="40.3492375" lon="8.9551929"><ele>812.3333333333334</ele><time>2026-03-29T08:16:03.258Z</time></trkpt><trkpt lat="40.3492804" lon="8.9551235"><ele>816.0</ele><time>2026-03-29T08:16:05.257Z</time></trkpt><trkpt lat="40.3493823" lon="8.9551006"><ele>816.0</ele><time>2026-03-29T08:16:07.256Z</time></trkpt><trkpt lat="40.3494666" lon="8.955103"><ele>816.0</ele><time>2026-03-29T08:16:09.256Z</time></trkpt><trkpt lat="40.349522" lon="8.9550618"><ele>816.0</ele><time>2026-03-29T08:16:11.257Z</time></trkpt><trkpt lat="40.3495917" lon="8.9550817"><ele>816.0</ele><time>2026-03-29T08:16:13.256Z</time></trkpt><trkpt lat="40.3496595" lon="8.9551008"><ele>816.0</ele><time>2026-03-29T08:16:16.257Z</time></trkpt><trkpt lat="40.3497309" lon="8.9551399"><ele>816.0</ele><time>2026-03-29T08:16:18.256Z</time></trkpt><trkpt lat="40.3498212" lon="8.9551925"><ele>816.3333333333334</ele><time>2026-03-29T08:16:20.258Z</time></trkpt><trkpt lat="40.3499058" lon="8.955231"><ele>816.6666666666667</ele><time>2026-03-29T08:16:21.256Z</time></trkpt><trkpt lat="40.3499389" lon="8.9553275"><ele>817.0</ele><time>2026-03-29T08:16:24.257Z</time></trkpt><trkpt lat="40.3499935" lon="8.9554104"><ele>817.3333333333334</ele><time>2026-03-29T08:16:26.257Z</time></trkpt><trkpt lat="40.3500608" lon="8.9554735"><ele>817.6666666666667</ele><time>2026-03-29T08:16:28.257Z</time></trkpt><trkpt lat="40.3501348" lon="8.9555017"><ele>818.0</ele><time>2026-03-29T08:16:30.256Z</time></trkpt><trkpt lat="40.3502027" lon="8.9555531"><ele>818.0000000000001</ele><time>2026-03-29T08:16:31.257Z</time></trkpt><trkpt lat="40.3502568" lon="8.9556051"><ele>818.0</ele><time>2026-03-29T08:16:32.256Z</time></trkpt><trkpt lat="40.3503103" lon="8.9556551"><ele>818.0</ele><time>2026-03-29T08:16:33.256Z</time></trkpt><trkpt lat="40.3504042" lon="8.9557717"><ele>818.0</ele><time>2026-03-29T08:16:35.257Z</time></trkpt><trkpt lat="40.3504533" lon="8.9558274"><ele>818.0000000000001</ele><time>2026-03-29T08:16:36.257Z</time></trkpt><trkpt lat="40.3505087" lon="8.955923"><ele>818.0</ele><time>2026-03-29T08:16:38.256Z</time></trkpt><trkpt lat="40.3505381" lon="8.9560096"><ele>822.2</ele><time>2026-03-29T08:16:40.257Z</time></trkpt><trkpt lat="40.3505818" lon="8.9560848"><ele>826.4</ele><time>2026-03-29T08:16:42.257Z</time></trkpt><trkpt lat="40.3506445" lon="8.9561643"><ele>830.6</ele><time>2026-03-29T08:16:45.257Z</time></trkpt><trkpt lat="40.3507211" lon="8.9561747"><ele>834.8000000000001</ele><time>2026-03-29T08:16:48.256Z</time></trkpt><trkpt lat="40.3508141" lon="8.9561517"><ele>839.0</ele><time>2026-03-29T08:16:51.256Z</time></trkpt><trkpt lat="40.3509751" lon="8.9561482"><ele>839.0</ele><time>2026-03-29T08:16:55.258Z</time></trkpt><trkpt lat="40.3511244" lon="8.956156"><ele>839.0</ele><time>2026-03-29T08:16:59.258Z</time></trkpt><trkpt lat="40.3513753" lon="8.9561743"><ele>839.0</ele><time>2026-03-29T08:17:09.256Z</time></trkpt><trkpt lat="40.3515816" lon="8.9561929"><ele>842.5000000000001</ele><time>2026-03-29T08:17:12.257Z</time></trkpt><trkpt lat="40.3516609" lon="8.9561921"><ele>846.0</ele><time>2026-03-29T08:18:07.257Z</time></trkpt><trkpt lat="40.3517221" lon="8.9562455"><ele>849.5</ele><time>2026-03-29T08:19:05.256Z</time></trkpt><trkpt lat="40.3518195" lon="8.956255"><ele>853.0</ele><time>2026-03-29T08:19:06.256Z</time></trkpt><trkpt lat="40.3518937" lon="8.9562141"><ele>856.5000000000001</ele><time>2026-03-29T08:19:07.257Z</time></trkpt><trkpt lat="40.3519966" lon="8.9561713"><ele>860.0</ele><time>2026-03-29T08:19:08.258Z</time></trkpt><trkpt lat="40.3520941" lon="8.9561327"><ele>862.0</ele><time>2026-03-29T08:19:09.256Z</time></trkpt><trkpt lat="40.3522328" lon="8.9560708"><ele>864.0</ele><time>2026-03-29T08:19:10.257Z</time></trkpt><trkpt lat="40.352348" lon="8.9560155"><ele>866.0</ele><time>2026-03-29T08:19:11.257Z</time></trkpt><trkpt lat="40.3524893" lon="8.9559508"><ele>868.0</ele><time>2026-03-29T08:19:12.257Z</time></trkpt><trkpt lat="40.3526304" lon="8.9559112"><ele>865.4</ele><time>2026-03-29T08:19:13.257Z</time></trkpt><trkpt lat="40.3527444" lon="8.9558541"><ele>862.8</ele><time>2026-03-29T08:19:14.257Z</time></trkpt><trkpt lat="40.35283" lon="8.9557824"><ele>860.2</ele><time>2026-03-29T08:19:15.257Z</time></trkpt><trkpt lat="40.3529361" lon="8.9557204"><ele>857.6</ele><time>2026-03-29T08:19:16.256Z</time></trkpt><trkpt lat="40.3529805" lon="8.9556423"><ele>855.0</ele><time>2026-03-29T08:19:17.257Z</time></trkpt><trkpt lat="40.3530355" lon="8.955542"><ele>853.75</ele><time>2026-03-29T08:19:18.257Z</time></trkpt><trkpt lat="40.3530919" lon="8.9554537"><ele>852.5</ele><time>2026-03-29T08:19:19.256Z</time></trkpt><trkpt lat="40.3531355" lon="8.9553803"><ele>851.25</ele><time>2026-03-29T08:19:20.257Z</time></trkpt><trkpt lat="40.3533294" lon="8.9553512"><ele>850.0</ele><time>2026-03-29T08:19:23.257Z</time></trkpt><trkpt lat="40.3534405" lon="8.9553943"><ele>849.9999999999999</ele><time>2026-03-29T08:19:25.256Z</time></trkpt><trkpt lat="40.3535153" lon="8.9554283"><ele>850.0</ele><time>2026-03-29T08:19:26.257Z</time></trkpt><trkpt lat="40.353612" lon="8.9554542"><ele>850.0</ele><time>2026-03-29T08:19:27.259Z</time></trkpt><trkpt lat="40.3537023" lon="8.9554365"><ele>850.0</ele><time>2026-03-29T08:19:28.258Z</time></trkpt><trkpt lat="40.3537978" lon="8.9554395"><ele>849.9999999999999</ele><time>2026-03-29T08:19:29.258Z</time></trkpt><trkpt lat="40.3538807" lon="8.9554225"><ele>850.0</ele><time>2026-03-29T08:19:30.257Z</time></trkpt><trkpt lat="40.3539638" lon="8.9554129"><ele>849.4</ele><time>2026-03-29T08:19:31.256Z</time></trkpt><trkpt lat="40.3540608" lon="8.9553741"><ele>848.8</ele><time>2026-03-29T08:19:32.257Z</time></trkpt><trkpt lat="40.3541421" lon="8.9553398"><ele>848.2</ele><time>2026-03-29T08:19:33.258Z</time></trkpt><trkpt lat="40.3542212" lon="8.9553195"><ele>847.6</ele><time>2026-03-29T08:19:34.257Z</time></trkpt><trkpt lat="40.3542914" lon="8.9553114"><ele>847.0</ele><time>2026-03-29T08:19:35.257Z</time></trkpt><trkpt lat="40.3544205" lon="8.9553086"><ele>846.9999999999999</ele><time>2026-03-29T08:19:37.257Z</time></trkpt><trkpt lat="40.354483" lon="8.9552883"><ele>847.0</ele><time>2026-03-29T08:19:38.257Z</time></trkpt><trkpt lat="40.3545814" lon="8.9552813"><ele>847.0</ele><time>2026-03-29T08:19:40.257Z</time></trkpt><trkpt lat="40.3546431" lon="8.9552532"><ele>847.0</ele><time>2026-03-29T08:19:41.257Z</time></trkpt><trkpt lat="40.3547165" lon="8.955226"><ele>846.9999999999999</ele><time>2026-03-29T08:19:42.258Z</time></trkpt><trkpt lat="40.3547992" lon="8.9551674"><ele>847.0</ele><time>2026-03-29T08:19:43.256Z</time></trkpt><trkpt lat="40.3548554" lon="8.9550553"><ele>842.4999999999999</ele><time>2026-03-29T08:19:44.257Z</time></trkpt><trkpt lat="40.3549328" lon="8.9549552"><ele>838.0</ele><time>2026-03-29T08:19:45.257Z</time></trkpt><trkpt lat="40.3550284" lon="8.9548939"><ele>833.5</ele><time>2026-03-29T08:19:47.256Z</time></trkpt><trkpt lat="40.3551009" lon="8.9548611"><ele>829.0</ele><time>2026-03-29T08:19:48.258Z</time></trkpt><trkpt lat="40.3551628" lon="8.9548135"><ele>824.4999999999999</ele><time>2026-03-29T08:19:49.257Z</time></trkpt><trkpt lat="40.3552163" lon="8.9547531"><ele>820.0</ele><time>2026-03-29T08:19:50.257Z</time></trkpt><trkpt lat="40.3552623" lon="8.9546933"><ele>819.9999999999999</ele><time>2026-03-29T08:19:51.258Z</time></trkpt><trkpt lat="40.3553118" lon="8.9546118"><ele>820.0</ele><time>2026-03-29T08:19:53.256Z</time></trkpt><trkpt lat="40.3553533" lon="8.954516"><ele>820.0</ele><time>2026-03-29T08:19:55.256Z</time></trkpt><trkpt lat="40.3554323" lon="8.9544267"><ele>820.0</ele><time>2026-03-29T08:19:57.257Z</time></trkpt><trkpt lat="40.3553996" lon="8.9543461"><ele>819.9999999999999</ele><time>2026-03-29T08:20:03.257Z</time></trkpt><trkpt lat="40.3553308" lon="8.9544133"><ele>820.0</ele><time>2026-03-29T08:20:06.257Z</time></trkpt><trkpt lat="40.3551759" lon="8.954508"><ele>820.0</ele><time>2026-03-29T08:20:07.258Z</time></trkpt><trkpt lat="40.3550435" lon="8.9545301"><ele>820.0</ele><time>2026-03-29T08:20:08.257Z</time></trkpt><trkpt lat="40.3549345" lon="8.9545621"><ele>820.0</ele><time>2026-03-29T08:20:09.256Z</time></trkpt><trkpt lat="40.354825" lon="8.9545787"><ele>820.0</ele><time>2026-03-29T08:20:10.258Z</time></trkpt><trkpt lat="40.3547317" lon="8.9545929"><ele>820.0</ele><time>2026-03-29T08:20:11.257Z</time></trkpt><trkpt lat="40.3546521" lon="8.954608"><ele>819.6666666666666</ele><time>2026-03-29T08:20:12.256Z</time></trkpt><trkpt lat="40.3545636" lon="8.9545837"><ele>819.3333333333333</ele><time>2026-03-29T08:20:14.257Z</time></trkpt><trkpt lat="40.3545019" lon="8.9545001"><ele>819.0</ele><time>2026-03-29T08:20:15.258Z</time></trkpt><trkpt lat="40.3544602" lon="8.9544259"><ele>818.6666666666667</ele><time>2026-03-29T08:20:16.256Z</time></trkpt><trkpt lat="40.3544164" lon="8.9543485"><ele>818.3333333333334</ele><time>2026-03-29T08:20:17.258Z</time></trkpt><trkpt lat="40.3543524" lon="8.9542422"><ele>818.0</ele><time>2026-03-29T08:20:19.258Z</time></trkpt><trkpt lat="40.3543455" lon="8.9541336"><ele>814.1666666666667</ele><time>2026-03-29T08:20:22.259Z</time></trkpt><trkpt lat="40.3543314" lon="8.9540352"><ele>810.3333333333334</ele><time>2026-03-29T08:20:24.256Z</time></trkpt><trkpt lat="40.3542823" lon="8.9539078"><ele>806.5</ele><time>2026-03-29T08:20:26.257Z</time></trkpt><trkpt lat="40.3542393" lon="8.9537705"><ele>802.6666666666667</ele><time>2026-03-29T08:20:28.257Z</time></trkpt><trkpt lat="40.3542236" lon="8.953673"><ele>798.8333333333334</ele><time>2026-03-29T08:20:55.256Z</time></trkpt><trkpt lat="40.3541906" lon="8.9535957"><ele>795.0</ele><time>2026-03-29T08:21:33.446Z</time></trkpt><trkpt lat="40.3540755" lon="8.953276"><ele>794.4</ele><time>2026-03-29T08:21:35.258Z</time></trkpt><trkpt lat="40.3540246" lon="8.9531043"><ele>793.8</ele><time>2026-03-29T08:21:36.259Z</time></trkpt><trkpt lat="40.3539615" lon="8.9529839"><ele>793.2</ele><time>2026-03-29T08:21:37.258Z</time></trkpt><trkpt lat="40.3538965" lon="8.9528934"><ele>792.6</ele><time>2026-03-29T08:21:38.259Z</time></trkpt><trkpt lat="40.3538163" lon="8.952831"><ele>792.0</ele><time>2026-03-29T08:21:39.257Z</time></trkpt><trkpt lat="40.353763" lon="8.9527696"><ele>792.0</ele><time>2026-03-29T08:21:40.257Z</time></trkpt><trkpt lat="40.3537153" lon="8.9526956"><ele>792.0</ele><time>2026-03-29T08:21:41.257Z</time></trkpt><trkpt lat="40.3536323" lon="8.9527221"><ele>792.0</ele><time>2026-03-29T08:21:44.258Z</time></trkpt><trkpt lat="40.3535223" lon="8.9527628"><ele>792.0</ele><time>2026-03-29T08:21:46.257Z</time></trkpt><trkpt lat="40.3534003" lon="8.9527445"><ele>792.0</ele><time>2026-03-29T08:21:48.257Z</time></trkpt><trkpt lat="40.3533257" lon="8.9527264"><ele>792.0</ele><time>2026-03-29T08:21:49.256Z</time></trkpt><trkpt lat="40.3532665" lon="8.9526439"><ele>792.0</ele><time>2026-03-29T08:21:51.257Z</time></trkpt><trkpt lat="40.353212" lon="8.9525516"><ele>792.0</ele><time>2026-03-29T08:21:54.257Z</time></trkpt><trkpt lat="40.3531497" lon="8.9525043"><ele>792.0</ele><time>2026-03-29T08:21:57.257Z</time></trkpt><trkpt lat="40.3530789" lon="8.9524142"><ele>792.0</ele><time>2026-03-29T08:21:59.256Z</time></trkpt><trkpt lat="40.3530332" lon="8.9522862"><ele>788.8333333333334</ele><time>2026-03-29T08:22:00.259Z</time></trkpt><trkpt lat="40.3529889" lon="8.9521925"><ele>785.6666666666667</ele><time>2026-03-29T08:22:01.257Z</time></trkpt><trkpt lat="40.3529353" lon="8.9521427"><ele>782.5</ele><time>2026-03-29T08:22:02.258Z</time></trkpt><trkpt lat="40.3528791" lon="8.9520883"><ele>779.3333333333334</ele><time>2026-03-29T08:22:03.257Z</time></trkpt><trkpt lat="40.3528021" lon="8.951945"><ele>776.1666666666667</ele><time>2026-03-29T08:22:05.258Z</time></trkpt><trkpt lat="40.352748" lon="8.9518837"><ele>773.0</ele><time>2026-03-29T08:22:06.258Z</time></trkpt><trkpt lat="40.3526598" lon="8.9518104"><ele>773.0</ele><time>2026-03-29T08:22:08.258Z</time></trkpt><trkpt lat="40.3525919" lon="8.951803"><ele>773.0</ele><time>2026-03-29T08:22:09.258Z</time></trkpt><trkpt lat="40.3525151" lon="8.951779"><ele>773.0</ele><time>2026-03-29T08:22:10.258Z</time></trkpt><trkpt lat="40.3524504" lon="8.9517437"><ele>773.0</ele><time>2026-03-29T08:22:11.257Z</time></trkpt><trkpt lat="40.3523915" lon="8.951697"><ele>773.0</ele><time>2026-03-29T08:22:12.257Z</time></trkpt><trkpt lat="40.3523293" lon="8.9516492"><ele>773.0</ele><time>2026-03-29T08:22:13.258Z</time></trkpt><trkpt lat="40.3522605" lon="8.951685"><ele>773.0</ele><time>2026-03-29T08:22:14.258Z</time></trkpt><trkpt lat="40.3521892" lon="8.9517052"><ele>770.4</ele><time>2026-03-29T08:22:15.259Z</time></trkpt><trkpt lat="40.352129" lon="8.9517298"><ele>767.8</ele><time>2026-03-29T08:22:16.258Z</time></trkpt><trkpt lat="40.3519872" lon="8.9517677"><ele>765.2</ele><time>2026-03-29T08:22:18.257Z</time></trkpt><trkpt lat="40.3518996" lon="8.9517808"><ele>762.6</ele><time>2026-03-29T08:22:19.257Z</time></trkpt><trkpt lat="40.3518075" lon="8.9518004"><ele>760.0</ele><time>2026-03-29T08:22:20.258Z</time></trkpt><trkpt lat="40.3517078" lon="8.9518057"><ele>751.25</ele><time>2026-03-29T08:22:22.256Z</time></trkpt><trkpt lat="40.3518363" lon="8.9516657"><ele>742.5</ele><time>2026-03-29T08:22:28.258Z</time></trkpt><trkpt lat="40.3519363" lon="8.9516042"><ele>733.75</ele><time>2026-03-29T08:22:29.256Z</time></trkpt><trkpt lat="40.352006" lon="8.951529"><ele>725.0</ele><time>2026-03-29T08:22:30.257Z</time></trkpt><trkpt lat="40.3520876" lon="8.9514853"><ele>725.0</ele><time>2026-03-29T08:22:31.257Z</time></trkpt><trkpt lat="40.3521704" lon="8.9514248"><ele>725.0</ele><time>2026-03-29T08:22:32.256Z</time></trkpt><trkpt lat="40.3522637" lon="8.9513874"><ele>725.0</ele><time>2026-03-29T08:22:33.258Z</time></trkpt><trkpt lat="40.3523241" lon="8.9513462"><ele>725.0</ele><time>2026-03-29T08:22:34.258Z</time></trkpt><trkpt lat="40.3523905" lon="8.9512998"><ele>725.0</ele><time>2026-03-29T08:22:35.257Z</time></trkpt><trkpt lat="40.3524754" lon="8.9512758"><ele>725.0</ele><time>2026-03-29T08:22:37.256Z</time></trkpt><trkpt lat="40.3525458" lon="8.9512719"><ele>727.3333333333333</ele><time>2026-03-29T08:22:39.258Z</time></trkpt><trkpt lat="40.3526235" lon="8.9512801"><ele>729.6666666666666</ele><time>2026-03-29T08:22:41.256Z</time></trkpt><trkpt lat="40.3527412" lon="8.9512507"><ele>732.0</ele><time>2026-03-29T08:22:43.258Z</time></trkpt><trkpt lat="40.3528031" lon="8.9512339"><ele>734.3333333333334</ele><time>2026-03-29T08:22:44.256Z</time></trkpt><trkpt lat="40.3528698" lon="8.951272"><ele>736.6666666666667</ele><time>2026-03-29T08:22:45.257Z</time></trkpt><trkpt lat="40.3529411" lon="8.9512878"><ele>739.0</ele><time>2026-03-29T08:22:46.259Z</time></trkpt><trkpt lat="40.3530164" lon="8.9513384"><ele>735.8000000000001</ele><time>2026-03-29T08:22:47.257Z</time></trkpt><trkpt lat="40.3530693" lon="8.9514064"><ele>732.6</ele><time>2026-03-29T08:22:48.257Z</time></trkpt><trkpt lat="40.3531754" lon="8.9515314"><ele>729.4</ele><time>2026-03-29T08:22:50.258Z</time></trkpt><trkpt lat="40.353285" lon="8.9516285"><ele>726.2</ele><time>2026-03-29T08:22:52.259Z</time></trkpt><trkpt lat="40.3533816" lon="8.951657"><ele>723.0</ele><time>2026-03-29T08:22:54.258Z</time></trkpt><trkpt lat="40.3534571" lon="8.9516512"><ele>723.0</ele><time>2026-03-29T08:22:55.258Z</time></trkpt><trkpt lat="40.3535563" lon="8.9516289"><ele>723.0</ele><time>2026-03-29T08:22:56.257Z</time></trkpt><trkpt lat="40.3536407" lon="8.9516001"><ele>723.0</ele><time>2026-03-29T08:22:57.258Z</time></trkpt><trkpt lat="40.353709" lon="8.9515825"><ele>723.0</ele><time>2026-03-29T08:22:58.258Z</time></trkpt><trkpt lat="40.3537996" lon="8.9515754"><ele>723.0</ele><time>2026-03-29T08:22:59.258Z</time></trkpt><trkpt lat="40.3539431" lon="8.9516332"><ele>728.2</ele><time>2026-03-29T08:23:00.258Z</time></trkpt><trkpt lat="40.3540704" lon="8.9517104"><ele>733.4</ele><time>2026-03-29T08:23:01.259Z</time></trkpt><trkpt lat="40.3541622" lon="8.951769"><ele>738.6</ele><time>2026-03-29T08:23:02.257Z</time></trkpt><trkpt lat="40.3542673" lon="8.9518113"><ele>743.8000000000001</ele><time>2026-03-29T08:23:03.259Z</time></trkpt><trkpt lat="40.3543393" lon="8.9518296"><ele>749.0</ele><time>2026-03-29T08:23:04.258Z</time></trkpt><trkpt lat="40.354466" lon="8.9518527"><ele>749.0</ele><time>2026-03-29T08:23:05.257Z</time></trkpt><trkpt lat="40.3545504" lon="8.9518828"><ele>749.0</ele><time>2026-03-29T08:23:06.256Z</time></trkpt><trkpt lat="40.3546569" lon="8.951977"><ele>749.0</ele><time>2026-03-29T08:23:07.257Z</time></trkpt><trkpt lat="40.3547316" lon="8.9520156"><ele>749.0</ele><time>2026-03-29T08:23:08.257Z</time></trkpt><trkpt lat="40.3548213" lon="8.9520612"><ele>749.0</ele><time>2026-03-29T08:23:10.258Z</time></trkpt><trkpt lat="40.3548918" lon="8.9520503"><ele>748.6666666666666</ele><time>2026-03-29T08:23:12.258Z</time></trkpt><trkpt lat="40.3549725" lon="8.9520194"><ele>748.3333333333333</ele><time>2026-03-29T08:23:15.257Z</time></trkpt><trkpt lat="40.3550445" lon="8.9519487"><ele>748.0</ele><time>2026-03-29T08:23:18.257Z</time></trkpt><trkpt lat="40.3550834" lon="8.9518811"><ele>747.6666666666666</ele><time>2026-03-29T08:23:20.258Z</time></trkpt><trkpt lat="40.3551737" lon="8.9517934"><ele>747.3333333333334</ele><time>2026-03-29T08:23:23.258Z</time></trkpt><trkpt lat="40.355235" lon="8.9517082"><ele>747.0</ele><time>2026-03-29T08:23:26.257Z</time></trkpt><trkpt lat="40.3552847" lon="8.95163"><ele>743.0</ele><time>2026-03-29T08:23:28.257Z</time></trkpt><trkpt lat="40.3553185" lon="8.9515491"><ele>739.0</ele><time>2026-03-29T08:23:30.258Z</time></trkpt><trkpt lat="40.3553396" lon="8.9514429"><ele>735.0</ele><time>2026-03-29T08:23:31.258Z</time></trkpt><trkpt lat="40.3553683" lon="8.9513385"><ele>731.0</ele><time>2026-03-29T08:23:34.257Z</time></trkpt><trkpt lat="40.3554097" lon="8.9512678"><ele>727.0</ele><time>2026-03-29T08:23:36.258Z</time></trkpt><trkpt lat="40.3554729" lon="8.9511765"><ele>723.0</ele><time>2026-03-29T08:23:38.258Z</time></trkpt><trkpt lat="40.3555283" lon="8.9511261"><ele>728.6666666666666</ele><time>2026-03-29T08:23:40.259Z</time></trkpt><trkpt lat="40.3555725" lon="8.9510305"><ele>734.3333333333334</ele><time>2026-03-29T08:23:42.258Z</time></trkpt><trkpt lat="40.355673" lon="8.9509745"><ele>740.0</ele><time>2026-03-29T08:23:44.256Z</time></trkpt><trkpt lat="40.355723" lon="8.9508877"><ele>745.6666666666667</ele><time>2026-03-29T08:23:47.257Z</time></trkpt><trkpt lat="40.3557681" lon="8.9508256"><ele>751.3333333333334</ele><time>2026-03-29T08:23:49.259Z</time></trkpt><trkpt lat="40.3558072" lon="8.9507471"><ele>757.0</ele><time>2026-03-29T08:23:51.258Z</time></trkpt><trkpt lat="40.3558563" lon="8.9506849"><ele>757.0</ele><time>2026-03-29T08:23:54.258Z</time></trkpt><trkpt lat="40.3558854" lon="8.9506048"><ele>757.0</ele><time>2026-03-29T08:23:57.258Z</time></trkpt><trkpt lat="40.3558606" lon="8.9505277"><ele>757.0</ele><time>2026-03-29T08:24:06.258Z</time></trkpt><trkpt lat="40.3558911" lon="8.9504496"><ele>757.0</ele><time>2026-03-29T08:24:14.258Z</time></trkpt><trkpt lat="40.3559165" lon="8.9503012"><ele>757.0</ele><time>2026-03-29T08:24:30.258Z</time></trkpt><trkpt lat="40.3560278" lon="8.9500629"><ele>756.6666666666667</ele><time>2026-03-29T08:24:38.258Z</time></trkpt><trkpt lat="40.3560338" lon="8.9499499"><ele>756.3333333333334</ele><time>2026-03-29T08:24:40.258Z</time></trkpt><trkpt lat="40.3560481" lon="8.9498658"><ele>756.0</ele><time>2026-03-29T08:24:42.258Z</time></trkpt><trkpt lat="40.3560816" lon="8.9497764"><ele>755.6666666666666</ele><time>2026-03-29T08:24:43.258Z</time></trkpt><trkpt lat="40.3561283" lon="8.9496955"><ele>755.3333333333333</ele><time>2026-03-29T08:24:45.258Z</time></trkpt><trkpt lat="40.3561361" lon="8.9495781"><ele>755.0</ele><time>2026-03-29T08:24:47.258Z</time></trkpt><trkpt lat="40.3561574" lon="8.9494841"><ele>755.0</ele><time>2026-03-29T08:24:49.258Z</time></trkpt><trkpt lat="40.3562095" lon="8.9494032"><ele>755.0</ele><time>2026-03-29T08:24:51.257Z</time></trkpt><trkpt lat="40.3562455" lon="8.9492769"><ele>755.0</ele><time>2026-03-29T08:24:53.257Z</time></trkpt><trkpt lat="40.3562527" lon="8.9491691"><ele>755.0</ele><time>2026-03-29T08:24:56.257Z</time></trkpt><trkpt lat="40.3562621" lon="8.9490704"><ele>755.0</ele><time>2026-03-29T08:24:58.259Z</time></trkpt><trkpt lat="40.3562712" lon="8.9489605"><ele>755.0</ele><time>2026-03-29T08:24:59.258Z</time></trkpt><trkpt lat="40.3562929" lon="8.9488497"><ele>756.0</ele><time>2026-03-29T08:25:01.258Z</time></trkpt><trkpt lat="40.3563415" lon="8.9487273"><ele>757.0</ele><time>2026-03-29T08:25:03.258Z</time></trkpt><trkpt lat="40.3563606" lon="8.9486414"><ele>758.0</ele><time>2026-03-29T08:25:05.257Z</time></trkpt><trkpt lat="40.3564124" lon="8.9485727"><ele>759.0</ele><time>2026-03-29T08:25:07.258Z</time></trkpt><trkpt lat="40.3564927" lon="8.9485142"><ele>760.0</ele><time>2026-03-29T08:25:09.258Z</time></trkpt><trkpt lat="40.3565739" lon="8.9484841"><ele>761.0</ele><time>2026-03-29T08:25:11.258Z</time></trkpt><trkpt lat="40.3566426" lon="8.9484648"><ele>766.5</ele><time>2026-03-29T08:25:13.258Z</time></trkpt><trkpt lat="40.3566456" lon="8.9485602"><ele>772.0</ele><time>2026-03-29T08:25:14.257Z</time></trkpt><trkpt lat="40.3567056" lon="8.9486435"><ele>777.5</ele><time>2026-03-29T08:25:16.257Z</time></trkpt><trkpt lat="40.3567378" lon="8.9487636"><ele>783.0</ele><time>2026-03-29T08:25:18.258Z</time></trkpt><trkpt lat="40.3567682" lon="8.9488389"><ele>788.5000000000001</ele><time>2026-03-29T08:25:20.257Z</time></trkpt><trkpt lat="40.3567894" lon="8.9489334"><ele>794.0</ele><time>2026-03-29T08:25:22.258Z</time></trkpt><trkpt lat="40.3568265" lon="8.9490147"><ele>794.0000000000001</ele><time>2026-03-29T08:25:24.258Z</time></trkpt><trkpt lat="40.3568506" lon="8.9490928"><ele>794.0</ele><time>2026-03-29T08:25:26.258Z</time></trkpt><trkpt lat="40.3568695" lon="8.9492176"><ele>794.0</ele><time>2026-03-29T08:25:29.258Z</time></trkpt><trkpt lat="40.3569011" lon="8.9493283"><ele>794.0</ele><time>2026-03-29T08:25:31.257Z</time></trkpt><trkpt lat="40.3568778" lon="8.9492213"><ele>794.0000000000001</ele><time>2026-03-29T08:42:48.26Z</time></trkpt><trkpt lat="40.3568888" lon="8.9493084"><ele>794.0</ele><time>2026-03-29T08:43:07.259Z</time></trkpt><trkpt lat="40.3568387" lon="8.9493759"><ele>795.0</ele><time>2026-03-29T08:43:12.259Z</time></trkpt><trkpt lat="40.3567905" lon="8.9494531"><ele>796.0</ele><time>2026-03-29T08:43:17.26Z</time></trkpt><trkpt lat="40.3567472" lon="8.9495176"><ele>797.0</ele><time>2026-03-29T08:43:22.259Z</time></trkpt><trkpt lat="40.3567081" lon="8.9495853"><ele>798.0</ele><time>2026-03-29T08:43:28.259Z</time></trkpt><trkpt lat="40.3566489" lon="8.9496217"><ele>799.0</ele><time>2026-03-29T08:43:34.259Z</time></trkpt><trkpt lat="40.3566339" lon="8.9497035"><ele>800.0</ele><time>2026-03-29T08:43:40.26Z</time></trkpt><trkpt lat="40.3566283" lon="8.9497949"><ele>801.0</ele><time>2026-03-29T08:43:45.259Z</time></trkpt><trkpt lat="40.3566226" lon="8.9498841"><ele>801.0</ele><time>2026-03-29T08:43:51.261Z</time></trkpt><trkpt lat="40.3565598" lon="8.9499324"><ele>801.0</ele><time>2026-03-29T08:43:59.271Z</time></trkpt><trkpt lat="40.3565264" lon="8.9500126"><ele>801.0</ele><time>2026-03-29T08:44:05.549Z</time></trkpt><trkpt lat="40.356543" lon="8.9501046"><ele>801.0</ele><time>2026-03-29T08:44:21.526Z</time></trkpt><trkpt lat="40.3565483" lon="8.9501965"><ele>801.0</ele><time>2026-03-29T08:44:36.259Z</time></trkpt><trkpt lat="40.3565731" lon="8.9502894"><ele>801.0</ele><time>2026-03-29T08:44:40.259Z</time></trkpt><trkpt lat="40.3566346" lon="8.9503209"><ele>801.0</ele><time>2026-03-29T08:45:00.261Z</time></trkpt><trkpt lat="40.3566127" lon="8.950236"><ele>801.4285714285714</ele><time>2026-03-29T08:45:05.27Z</time></trkpt><trkpt lat="40.3565963" lon="8.9501368"><ele>801.8571428571429</ele><time>2026-03-29T08:45:08.26Z</time></trkpt><trkpt lat="40.3566185" lon="8.9500497"><ele>802.2857142857142</ele><time>2026-03-29T08:45:15.265Z</time></trkpt><trkpt lat="40.3565568" lon="8.9500838"><ele>802.7142857142858</ele><time>2026-03-29T08:45:36.261Z</time></trkpt><trkpt lat="40.3564892" lon="8.9500856"><ele>803.1428571428572</ele><time>2026-03-29T08:45:45.26Z</time></trkpt><trkpt lat="40.3564374" lon="8.9501334"><ele>803.5714285714286</ele><time>2026-03-29T08:45:53.26Z</time></trkpt><trkpt lat="40.3564718" lon="8.9502082"><ele>804.0</ele><time>2026-03-29T08:45:59.259Z</time></trkpt><trkpt lat="40.3564847" lon="8.9502903"><ele>804.0</ele><time>2026-03-29T08:46:32.26Z</time></trkpt><trkpt lat="40.3565426" lon="8.9503321"><ele>804.0</ele><time>2026-03-29T08:46:54.26Z</time></trkpt><trkpt lat="40.3565925" lon="8.9503871"><ele>804.0</ele><time>2026-03-29T08:47:05.261Z</time></trkpt><trkpt lat="40.356575" lon="8.9504754"><ele>804.0</ele><time>2026-03-29T08:47:12.265Z</time></trkpt><trkpt lat="40.3566396" lon="8.9504996"><ele>804.0</ele><time>2026-03-29T08:47:30.269Z</time></trkpt><trkpt lat="40.3567054" lon="8.9504652"><ele>804.0</ele><time>2026-03-29T08:47:44.259Z</time></trkpt><trkpt lat="40.3567645" lon="8.9504962"><ele>804.0</ele><time>2026-03-29T08:47:50.26Z</time></trkpt><trkpt lat="40.3568059" lon="8.9505635"><ele>804.0</ele><time>2026-03-29T08:48:02.26Z</time></trkpt><trkpt lat="40.3568431" lon="8.9506453"><ele>804.0</ele><time>2026-03-29T08:48:11.26Z</time></trkpt><trkpt lat="40.356854" lon="8.9507309"><ele>804.0</ele><time>2026-03-29T08:48:17.266Z</time></trkpt><trkpt lat="40.3568172" lon="8.9507981"><ele>804.0</ele><time>2026-03-29T08:48:22.261Z</time></trkpt><trkpt lat="40.3567698" lon="8.9508624"><ele>804.0</ele><time>2026-03-29T08:48:50.26Z</time></trkpt><trkpt lat="40.356719" lon="8.9509392"><ele>804.0</ele><time>2026-03-29T08:48:58.729Z</time></trkpt><trkpt lat="40.3566981" lon="8.9510323"><ele>804.0</ele><time>2026-03-29T08:49:06.26Z</time></trkpt><trkpt lat="40.3566363" lon="8.9511084"><ele>805.8571428571428</ele><time>2026-03-29T08:49:12.262Z</time></trkpt><trkpt lat="40.3565752" lon="8.9511453"><ele>807.7142857142858</ele><time>2026-03-29T08:49:19.384Z</time></trkpt><trkpt lat="40.3565261" lon="8.9512163"><ele>809.5714285714286</ele><time>2026-03-29T08:49:37.261Z</time></trkpt><trkpt lat="40.3564903" lon="8.9512846"><ele>811.4285714285713</ele><time>2026-03-29T08:49:40.262Z</time></trkpt><trkpt lat="40.3564612" lon="8.951366"><ele>813.2857142857142</ele><time>2026-03-29T08:49:45.168Z</time></trkpt><trkpt lat="40.356451" lon="8.9514519"><ele>815.1428571428571</ele><time>2026-03-29T08:49:51.381Z</time></trkpt><trkpt lat="40.3563969" lon="8.9515278"><ele>817.0</ele><time>2026-03-29T08:50:00.59Z</time></trkpt><trkpt lat="40.3563448" lon="8.9515992"><ele>812.7142857142857</ele><time>2026-03-29T08:50:05.383Z</time></trkpt><trkpt lat="40.3562914" lon="8.9516748"><ele>808.4285714285714</ele><time>2026-03-29T08:50:33.986Z</time></trkpt><trkpt lat="40.3562218" lon="8.951727"><ele>804.1428571428571</ele><time>2026-03-29T08:50:37.262Z</time></trkpt><trkpt lat="40.3561878" lon="8.9518193"><ele>799.8571428571429</ele><time>2026-03-29T08:50:40.339Z</time></trkpt><trkpt lat="40.3561717" lon="8.9519032"><ele>795.5714285714286</ele><time>2026-03-29T08:50:45.26Z</time></trkpt><trkpt lat="40.3561345" lon="8.9519723"><ele>791.2857142857142</ele><time>2026-03-29T08:50:50.363Z</time></trkpt><trkpt lat="40.3561922" lon="8.9520085"><ele>787.0</ele><time>2026-03-29T08:51:08.26Z</time></trkpt><trkpt lat="40.356217" lon="8.9520916"><ele>787.0</ele><time>2026-03-29T08:51:14.386Z</time></trkpt><trkpt lat="40.3562261" lon="8.9521797"><ele>787.0</ele><time>2026-03-29T08:51:24.591Z</time></trkpt><trkpt lat="40.3561661" lon="8.9523125"><ele>787.0</ele><time>2026-03-29T08:51:58.068Z</time></trkpt><trkpt lat="40.3561191" lon="8.9523744"><ele>787.0</ele><time>2026-03-29T08:52:03.378Z</time></trkpt><trkpt lat="40.3560831" lon="8.9524453"><ele>787.0</ele><time>2026-03-29T08:52:10.261Z</time></trkpt><trkpt lat="40.3560184" lon="8.9524456"><ele>787.0</ele><time>2026-03-29T08:52:24.386Z</time></trkpt><trkpt lat="40.3559613" lon="8.9524933"><ele>787.0</ele><time>2026-03-29T08:52:47.378Z</time></trkpt><trkpt lat="40.355945" lon="8.9526545"><ele>790.1428571428571</ele><time>2026-03-29T08:52:57.378Z</time></trkpt><trkpt lat="40.3558965" lon="8.952711"><ele>793.2857142857142</ele><time>2026-03-29T08:53:02.446Z</time></trkpt><trkpt lat="40.3558621" lon="8.9527877"><ele>796.4285714285714</ele><time>2026-03-29T08:53:09.166Z</time></trkpt><trkpt lat="40.3558147" lon="8.9528565"><ele>799.5714285714286</ele><time>2026-03-29T08:53:18.26Z</time></trkpt><trkpt lat="40.3557725" lon="8.9529186"><ele>802.7142857142858</ele><time>2026-03-29T08:53:28.369Z</time></trkpt><trkpt lat="40.3557445" lon="8.9529999"><ele>805.8571428571429</ele><time>2026-03-29T08:53:40.129Z</time></trkpt><trkpt lat="40.3558146" lon="8.9529918"><ele>809.0</ele><time>2026-03-29T08:55:49.26Z</time></trkpt><trkpt lat="40.3558413" lon="8.9529072"><ele>809.0</ele><time>2026-03-29T08:55:57.26Z</time></trkpt><trkpt lat="40.3559137" lon="8.952908"><ele>809.0</ele><time>2026-03-29T08:56:15.261Z</time></trkpt><trkpt lat="40.3559768" lon="8.9528671"><ele>809.0</ele><time>2026-03-29T08:56:29.261Z</time></trkpt><trkpt lat="40.3560301" lon="8.9528065"><ele>809.0</ele><time>2026-03-29T08:56:36.26Z</time></trkpt><trkpt lat="40.3560543" lon="8.9527242"><ele>809.0</ele><time>2026-03-29T08:56:41.602Z</time></trkpt><trkpt lat="40.3560866" lon="8.9526414"><ele>809.0</ele><time>2026-03-29T08:56:59.943Z</time></trkpt><trkpt lat="40.3561376" lon="8.9525882"><ele>809.0</ele><time>2026-03-29T08:57:04.26Z</time></trkpt><trkpt lat="40.3561121" lon="8.9525125"><ele>809.0</ele><time>2026-03-29T08:57:13.262Z</time></trkpt><trkpt lat="40.3560941" lon="8.9526025"><ele>809.0</ele><time>2026-03-29T08:57:20.265Z</time></trkpt><trkpt lat="40.356141" lon="8.9525371"><ele>809.0</ele><time>2026-03-29T08:58:34.26Z</time></trkpt><trkpt lat="40.3561623" lon="8.9524567"><ele>809.0</ele><time>2026-03-29T08:59:30.261Z</time></trkpt><trkpt lat="40.3561883" lon="8.9523786"><ele>809.0</ele><time>2026-03-29T08:59:41.261Z</time></trkpt><trkpt lat="40.3562049" lon="8.9522876"><ele>809.0</ele><time>2026-03-29T08:59:51.26Z</time></trkpt><trkpt lat="40.3562208" lon="8.9521861"><ele>809.0</ele><time>2026-03-29T08:59:57.26Z</time></trkpt><trkpt lat="40.356227" lon="8.9520941"><ele>805.8571428571429</ele><time>2026-03-29T09:00:10.261Z</time></trkpt><trkpt lat="40.3562105" lon="8.9520061"><ele>802.7142857142858</ele><time>2026-03-29T09:00:38.261Z</time></trkpt><trkpt lat="40.3562181" lon="8.9519224"><ele>799.5714285714286</ele><time>2026-03-29T09:00:43.845Z</time></trkpt><trkpt lat="40.3562172" lon="8.9518348"><ele>796.4285714285714</ele><time>2026-03-29T09:00:51.587Z</time></trkpt><trkpt lat="40.3562331" lon="8.9517483"><ele>793.2857142857142</ele><time>2026-03-29T09:00:57.422Z</time></trkpt><trkpt lat="40.3563089" lon="8.9516738"><ele>790.1428571428571</ele><time>2026-03-29T09:01:02.142Z</time></trkpt><trkpt lat="40.3563318" lon="8.9515766"><ele>787.0</ele><time>2026-03-29T09:01:05.433Z</time></trkpt><trkpt lat="40.3563631" lon="8.9515008"><ele>791.2857142857142</ele><time>2026-03-29T09:01:09.706Z</time></trkpt><trkpt lat="40.3564159" lon="8.9514165"><ele>795.5714285714286</ele><time>2026-03-29T09:01:17.262Z</time></trkpt><trkpt lat="40.3564623" lon="8.9513433"><ele>799.8571428571429</ele><time>2026-03-29T09:01:31.427Z</time></trkpt><trkpt lat="40.356472" lon="8.951259"><ele>804.1428571428571</ele><time>2026-03-29T09:01:36.26Z</time></trkpt><trkpt lat="40.3565096" lon="8.9511873"><ele>808.4285714285714</ele><time>2026-03-29T09:01:43.262Z</time></trkpt><trkpt lat="40.3565538" lon="8.9511202"><ele>812.7142857142857</ele><time>2026-03-29T09:01:58.38Z</time></trkpt><trkpt lat="40.3566011" lon="8.9510601"><ele>817.0</ele><time>2026-03-29T09:02:06.611Z</time></trkpt><trkpt lat="40.3566462" lon="8.9509554"><ele>815.1428571428571</ele><time>2026-03-29T09:02:34.291Z</time></trkpt><trkpt lat="40.3566256" lon="8.9508684"><ele>813.2857142857142</ele><time>2026-03-29T09:02:58.262Z</time></trkpt><trkpt lat="40.3566564" lon="8.9507871"><ele>811.4285714285713</ele><time>2026-03-29T09:03:03.188Z</time></trkpt><trkpt lat="40.3567273" lon="8.9507793"><ele>809.5714285714286</ele><time>2026-03-29T09:03:07.261Z</time></trkpt><trkpt lat="40.3567001" lon="8.9506966"><ele>807.7142857142858</ele><time>2026-03-29T09:03:14.261Z</time></trkpt><trkpt lat="40.3566871" lon="8.9506137"><ele>805.8571428571428</ele><time>2026-03-29T09:03:30.261Z</time></trkpt><trkpt lat="40.3566386" lon="8.9505595"><ele>804.0</ele><time>2026-03-29T09:03:47.673Z</time></trkpt><trkpt lat="40.3566076" lon="8.9504822"><ele>804.0</ele><time>2026-03-29T09:03:53.386Z</time></trkpt><trkpt lat="40.3566072" lon="8.9503969"><ele>804.0</ele><time>2026-03-29T09:03:59.384Z</time></trkpt><trkpt lat="40.356633" lon="8.9503104"><ele>804.0</ele><time>2026-03-29T09:04:06.025Z</time></trkpt><trkpt lat="40.35664" lon="8.950226"><ele>804.0</ele><time>2026-03-29T09:04:12.262Z</time></trkpt><trkpt lat="40.3566267" lon="8.950135"><ele>804.0</ele><time>2026-03-29T09:04:17.388Z</time></trkpt><trkpt lat="40.3566127" lon="8.9500477"><ele>804.0</ele><time>2026-03-29T09:04:23.261Z</time></trkpt><trkpt lat="40.3566612" lon="8.9499949"><ele>804.0</ele><time>2026-03-29T09:04:50.262Z</time></trkpt><trkpt lat="40.3566876" lon="8.9499012"><ele>803.5714285714286</ele><time>2026-03-29T09:04:56.263Z</time></trkpt><trkpt lat="40.3566389" lon="8.9498406"><ele>803.1428571428572</ele><time>2026-03-29T09:05:02.261Z</time></trkpt><trkpt lat="40.3566924" lon="8.9497734"><ele>802.7142857142858</ele><time>2026-03-29T09:05:13.426Z</time></trkpt><trkpt lat="40.3567128" lon="8.9496799"><ele>802.2857142857142</ele><time>2026-03-29T09:05:18.262Z</time></trkpt><trkpt lat="40.3567425" lon="8.9496041"><ele>801.8571428571429</ele><time>2026-03-29T09:05:24.265Z</time></trkpt><trkpt lat="40.3568042" lon="8.9495678"><ele>801.4285714285714</ele><time>2026-03-29T09:05:29.249Z</time></trkpt><trkpt lat="40.3568145" lon="8.9494845"><ele>801.0</ele><time>2026-03-29T09:05:38.261Z</time></trkpt><trkpt lat="40.3568258" lon="8.9494011"><ele>801.0</ele><time>2026-03-29T09:05:47.262Z</time></trkpt><trkpt lat="40.3568944" lon="8.9493767"><ele>801.0</ele><time>2026-03-29T09:05:54.19Z</time></trkpt><trkpt lat="40.3569312" lon="8.9493065"><ele>801.0</ele><time>2026-03-29T09:06:20.262Z</time></trkpt><trkpt lat="40.3569243" lon="8.9492048"><ele>801.0</ele><time>2026-03-29T09:06:32.262Z</time></trkpt><trkpt lat="40.3569184" lon="8.9490821"><ele>801.0</ele><time>2026-03-29T09:08:01.262Z</time></trkpt><trkpt lat="40.3569472" lon="8.9490069"><ele>801.0</ele><time>2026-03-29T09:08:03.261Z</time></trkpt><trkpt lat="40.3570481" lon="8.9489118"><ele>799.5999999999999</ele><time>2026-03-29T09:08:05.261Z</time></trkpt><trkpt lat="40.3571073" lon="8.9488591"><ele>798.2</ele><time>2026-03-29T09:08:06.262Z</time></trkpt><trkpt lat="40.3571834" lon="8.9487621"><ele>796.8</ele><time>2026-03-29T09:08:08.261Z</time></trkpt><trkpt lat="40.3572508" lon="8.9486706"><ele>795.4000000000001</ele><time>2026-03-29T09:08:10.261Z</time></trkpt><trkpt lat="40.3573089" lon="8.9485531"><ele>794.0</ele><time>2026-03-29T09:08:12.261Z</time></trkpt><trkpt lat="40.3573663" lon="8.9484817"><ele>799.4000000000001</ele><time>2026-03-29T09:08:14.262Z</time></trkpt><trkpt lat="40.3574566" lon="8.9484582"><ele>804.8</ele><time>2026-03-29T09:08:17.262Z</time></trkpt><trkpt lat="40.3575444" lon="8.9485017"><ele>810.2</ele><time>2026-03-29T09:08:20.261Z</time></trkpt><trkpt lat="40.3576105" lon="8.9485487"><ele>815.5999999999999</ele><time>2026-03-29T09:08:22.261Z</time></trkpt><trkpt lat="40.3576603" lon="8.9486166"><ele>821.0</ele><time>2026-03-29T09:08:24.261Z</time></trkpt><trkpt lat="40.3577398" lon="8.9487521"><ele>821.0000000000001</ele><time>2026-03-29T09:08:26.261Z</time></trkpt><trkpt lat="40.3578102" lon="8.9488342"><ele>821.0</ele><time>2026-03-29T09:08:28.261Z</time></trkpt><trkpt lat="40.3578687" lon="8.9488894"><ele>821.0</ele><time>2026-03-29T09:08:31.262Z</time></trkpt><trkpt lat="40.3579336" lon="8.9489356"><ele>821.0</ele><time>2026-03-29T09:08:33.263Z</time></trkpt><trkpt lat="40.357999" lon="8.9489971"><ele>821.0000000000001</ele><time>2026-03-29T09:08:35.262Z</time></trkpt><trkpt lat="40.3580662" lon="8.9490367"><ele>821.0</ele><time>2026-03-29T09:08:37.262Z</time></trkpt><trkpt lat="40.3581498" lon="8.9490324"><ele>823.3333333333334</ele><time>2026-03-29T09:08:40.262Z</time></trkpt><trkpt lat="40.3582392" lon="8.9490425"><ele>825.6666666666667</ele><time>2026-03-29T09:08:43.262Z</time></trkpt><trkpt lat="40.3583064" lon="8.9490552"><ele>828.0</ele><time>2026-03-29T09:08:45.264Z</time></trkpt><trkpt lat="40.3583793" lon="8.9490656"><ele>830.3333333333333</ele><time>2026-03-29T09:08:47.261Z</time></trkpt><trkpt lat="40.3584615" lon="8.9490733"><ele>832.6666666666666</ele><time>2026-03-29T09:08:49.263Z</time></trkpt><trkpt lat="40.3585398" lon="8.9490922"><ele>835.0</ele><time>2026-03-29T09:08:51.262Z</time></trkpt><trkpt lat="40.3586079" lon="8.9490989"><ele>835.0</ele><time>2026-03-29T09:08:53.262Z</time></trkpt><trkpt lat="40.3587409" lon="8.9490921"><ele>835.0</ele><time>2026-03-29T09:08:55.261Z</time></trkpt><trkpt lat="40.3588253" lon="8.9490972"><ele>835.0</ele><time>2026-03-29T09:08:56.262Z</time></trkpt><trkpt lat="40.3588867" lon="8.9490765"><ele>835.0</ele><time>2026-03-29T09:08:57.262Z</time></trkpt><trkpt lat="40.3589847" lon="8.949118"><ele>835.0</ele><time>2026-03-29T09:08:59.262Z</time></trkpt><trkpt lat="40.3590491" lon="8.9491446"><ele>834.6666666666666</ele><time>2026-03-29T09:09:00.262Z</time></trkpt><trkpt lat="40.3591048" lon="8.9491872"><ele>834.3333333333333</ele><time>2026-03-29T09:09:01.262Z</time></trkpt><trkpt lat="40.359222" lon="8.9492647"><ele>834.0</ele><time>2026-03-29T09:09:03.263Z</time></trkpt><trkpt lat="40.3592854" lon="8.949302"><ele>833.6666666666667</ele><time>2026-03-29T09:09:04.261Z</time></trkpt><trkpt lat="40.3593474" lon="8.9493337"><ele>833.3333333333334</ele><time>2026-03-29T09:09:05.261Z</time></trkpt><trkpt lat="40.3594159" lon="8.9493571"><ele>833.0</ele><time>2026-03-29T09:09:06.263Z</time></trkpt><trkpt lat="40.3594817" lon="8.9493511"><ele>838.0</ele><time>2026-03-29T09:09:08.262Z</time></trkpt><trkpt lat="40.3595554" lon="8.9493629"><ele>843.0</ele><time>2026-03-29T09:09:09.263Z</time></trkpt><trkpt lat="40.3596854" lon="8.9493999"><ele>848.0</ele><time>2026-03-29T09:09:11.261Z</time></trkpt><trkpt lat="40.3597862" lon="8.9493871"><ele>853.0</ele><time>2026-03-29T09:09:13.264Z</time></trkpt><trkpt lat="40.359889" lon="8.9494074"><ele>858.0</ele><time>2026-03-29T09:09:15.262Z</time></trkpt><trkpt lat="40.3599695" lon="8.9494539"><ele>858.0</ele><time>2026-03-29T09:09:17.262Z</time></trkpt><trkpt lat="40.3600444" lon="8.9494594"><ele>858.0</ele><time>2026-03-29T09:09:19.263Z</time></trkpt><trkpt lat="40.3601125" lon="8.9494813"><ele>858.0</ele><time>2026-03-29T09:09:21.263Z</time></trkpt><trkpt lat="40.360182" lon="8.9495224"><ele>858.0</ele><time>2026-03-29T09:09:23.263Z</time></trkpt><trkpt lat="40.3602639" lon="8.949531"><ele>858.0</ele><time>2026-03-29T09:09:24.264Z</time></trkpt><trkpt lat="40.3603762" lon="8.9495472"><ele>858.0</ele><time>2026-03-29T09:09:26.263Z</time></trkpt><trkpt lat="40.3604343" lon="8.9495903"><ele>858.0</ele><time>2026-03-29T09:09:27.264Z</time></trkpt><trkpt lat="40.3605251" lon="8.9495695"><ele>858.0</ele><time>2026-03-29T09:09:30.262Z</time></trkpt><trkpt lat="40.3605913" lon="8.9495073"><ele>858.0</ele><time>2026-03-29T09:09:34.263Z</time></trkpt><trkpt lat="40.3606368" lon="8.9494342"><ele>858.0</ele><time>2026-03-29T09:09:38.263Z</time></trkpt><trkpt lat="40.3606028" lon="8.9493322"><ele>858.0</ele><time>2026-03-29T09:10:54.263Z</time></trkpt><trkpt lat="40.3605573" lon="8.949238"><ele>858.0</ele><time>2026-03-29T09:10:56.263Z</time></trkpt><trkpt lat="40.3605158" lon="8.9491021"><ele>854.0</ele><time>2026-03-29T09:10:57.264Z</time></trkpt><trkpt lat="40.360512" lon="8.9489835"><ele>850.0</ele><time>2026-03-29T09:10:58.262Z</time></trkpt><trkpt lat="40.3604917" lon="8.9488954"><ele>846.0</ele><time>2026-03-29T09:10:59.263Z</time></trkpt><trkpt lat="40.3604802" lon="8.9487635"><ele>842.0</ele><time>2026-03-29T09:11:01.262Z</time></trkpt><trkpt lat="40.3604427" lon="8.9486909"><ele>838.0</ele><time>2026-03-29T09:11:02.263Z</time></trkpt><trkpt lat="40.3603954" lon="8.9485639"><ele>834.0</ele><time>2026-03-29T09:11:04.262Z</time></trkpt><trkpt lat="40.3603352" lon="8.9484524"><ele>834.0</ele><time>2026-03-29T09:11:06.263Z</time></trkpt><trkpt lat="40.3602438" lon="8.9484219"><ele>834.0</ele><time>2026-03-29T09:11:09.262Z</time></trkpt><trkpt lat="40.3601265" lon="8.9483937"><ele>834.0</ele><time>2026-03-29T09:11:11.263Z</time></trkpt><trkpt lat="40.3600691" lon="8.9483385"><ele>834.0</ele><time>2026-03-29T09:11:13.264Z</time></trkpt><trkpt lat="40.3600083" lon="8.9482603"><ele>834.0</ele><time>2026-03-29T09:11:15.262Z</time></trkpt><trkpt lat="40.3599492" lon="8.9480965"><ele>832.3333333333334</ele><time>2026-03-29T09:11:17.263Z</time></trkpt><trkpt lat="40.3599169" lon="8.9480214"><ele>830.6666666666667</ele><time>2026-03-29T09:11:18.262Z</time></trkpt><trkpt lat="40.3599021" lon="8.947939"><ele>829.0</ele><time>2026-03-29T09:11:20.264Z</time></trkpt><trkpt lat="40.359891" lon="8.9477553"><ele>827.3333333333334</ele><time>2026-03-29T09:11:22.262Z</time></trkpt><trkpt lat="40.3598543" lon="8.9476353"><ele>825.6666666666667</ele><time>2026-03-29T09:11:23.263Z</time></trkpt><trkpt lat="40.3598297" lon="8.9475493"><ele>824.0</ele><time>2026-03-29T09:11:24.262Z</time></trkpt><trkpt lat="40.3598275" lon="8.9474145"><ele>823.0000000000001</ele><time>2026-03-29T09:11:25.263Z</time></trkpt><trkpt lat="40.3598091" lon="8.947302"><ele>822.0</ele><time>2026-03-29T09:11:26.263Z</time></trkpt><trkpt lat="40.3598195" lon="8.947194"><ele>821.0</ele><time>2026-03-29T09:11:27.263Z</time></trkpt><trkpt lat="40.359829" lon="8.9470964"><ele>820.0</ele><time>2026-03-29T09:11:28.264Z</time></trkpt><trkpt lat="40.3598264" lon="8.9469556"><ele>819.0000000000001</ele><time>2026-03-29T09:11:30.264Z</time></trkpt><trkpt lat="40.3598086" lon="8.9468665"><ele>818.0</ele><time>2026-03-29T09:11:31.262Z</time></trkpt><trkpt lat="40.3597619" lon="8.9467928"><ele>810.5999999999999</ele><time>2026-03-29T09:11:32.262Z</time></trkpt><trkpt lat="40.359686" lon="8.9467011"><ele>803.1999999999999</ele><time>2026-03-29T09:11:33.262Z</time></trkpt><trkpt lat="40.3596261" lon="8.9466077"><ele>795.8</ele><time>2026-03-29T09:11:34.263Z</time></trkpt><trkpt lat="40.3595697" lon="8.9465341"><ele>788.4</ele><time>2026-03-29T09:11:35.263Z</time></trkpt><trkpt lat="40.3595201" lon="8.9464544"><ele>781.0</ele><time>2026-03-29T09:11:36.263Z</time></trkpt><trkpt lat="40.3595022" lon="8.9463206"><ele>781.0</ele><time>2026-03-29T09:11:38.263Z</time></trkpt><trkpt lat="40.3594255" lon="8.9461374"><ele>781.0</ele><time>2026-03-29T09:11:40.262Z</time></trkpt><trkpt lat="40.3593781" lon="8.9460445"><ele>781.0</ele><time>2026-03-29T09:11:41.263Z</time></trkpt><trkpt lat="40.3593414" lon="8.9459429"><ele>781.0</ele><time>2026-03-29T09:11:42.263Z</time></trkpt><trkpt lat="40.3593095" lon="8.9458505"><ele>781.0</ele><time>2026-03-29T09:11:43.263Z</time></trkpt><trkpt lat="40.3592828" lon="8.9457496"><ele>780.9999999999999</ele><time>2026-03-29T09:11:44.263Z</time></trkpt><trkpt lat="40.3592658" lon="8.9456607"><ele>781.0</ele><time>2026-03-29T09:11:45.261Z</time></trkpt><trkpt lat="40.3592266" lon="8.9455876"><ele>781.0</ele><time>2026-03-29T09:11:46.263Z</time></trkpt><trkpt lat="40.3592034" lon="8.9454934"><ele>781.0</ele><time>2026-03-29T09:11:48.262Z</time></trkpt><trkpt lat="40.3591666" lon="8.9455955"><ele>780.9999999999999</ele><time>2026-03-29T09:11:53.262Z</time></trkpt><trkpt lat="40.3592007" lon="8.9457624"><ele>781.0</ele><time>2026-03-29T09:11:54.265Z</time></trkpt><trkpt lat="40.3592158" lon="8.9458869"><ele>781.0</ele><time>2026-03-29T09:11:55.262Z</time></trkpt><trkpt lat="40.3592301" lon="8.946037"><ele>781.0</ele><time>2026-03-29T09:11:56.262Z</time></trkpt><trkpt lat="40.3591929" lon="8.9461736"><ele>781.0</ele><time>2026-03-29T09:11:57.263Z</time></trkpt><trkpt lat="40.359175" lon="8.946333"><ele>781.0</ele><time>2026-03-29T09:11:58.263Z</time></trkpt><trkpt lat="40.3591345" lon="8.9464599"><ele>781.0</ele><time>2026-03-29T09:11:59.264Z</time></trkpt><trkpt lat="40.3591064" lon="8.9465892"><ele>781.0</ele><time>2026-03-29T09:12:00.264Z</time></trkpt><trkpt lat="40.3590586" lon="8.9467163"><ele>781.0</ele><time>2026-03-29T09:12:01.262Z</time></trkpt><trkpt lat="40.35908" lon="8.946807"><ele>781.0</ele><time>2026-03-29T09:12:03.263Z</time></trkpt><trkpt lat="40.3591351" lon="8.9468689"><ele>781.0</ele><time>2026-03-29T09:12:04.264Z</time></trkpt><trkpt lat="40.3592172" lon="8.9469748"><ele>780.8333333333333</ele><time>2026-03-29T09:12:06.261Z</time></trkpt><trkpt lat="40.3592383" lon="8.9470797"><ele>780.6666666666666</ele><time>2026-03-29T09:12:08.262Z</time></trkpt><trkpt lat="40.3592288" lon="8.9472127"><ele>780.5</ele><time>2026-03-29T09:12:10.262Z</time></trkpt><trkpt lat="40.3592292" lon="8.9473365"><ele>780.3333333333333</ele><time>2026-03-29T09:12:11.263Z</time></trkpt><trkpt lat="40.3592016" lon="8.9474148"><ele>780.1666666666666</ele><time>2026-03-29T09:12:12.263Z</time></trkpt><trkpt lat="40.3591621" lon="8.9474834"><ele>780.0</ele><time>2026-03-29T09:12:13.263Z</time></trkpt><trkpt lat="40.3590831" lon="8.9475123"><ele>780.0</ele><time>2026-03-29T09:12:14.262Z</time></trkpt><trkpt lat="40.3590124" lon="8.947517"><ele>780.0</ele><time>2026-03-29T09:12:15.263Z</time></trkpt><trkpt lat="40.3589225" lon="8.9475046"><ele>780.0</ele><time>2026-03-29T09:12:16.262Z</time></trkpt><trkpt lat="40.3588391" lon="8.947497"><ele>780.0</ele><time>2026-03-29T09:12:17.264Z</time></trkpt><trkpt lat="40.358766" lon="8.9474682"><ele>780.0</ele><time>2026-03-29T09:12:18.262Z</time></trkpt><trkpt lat="40.3587071" lon="8.9473792"><ele>780.0</ele><time>2026-03-29T09:12:19.263Z</time></trkpt><trkpt lat="40.3586455" lon="8.9473191"><ele>779.3333333333334</ele><time>2026-03-29T09:12:20.263Z</time></trkpt><trkpt lat="40.3586006" lon="8.9472608"><ele>778.6666666666667</ele><time>2026-03-29T09:12:21.262Z</time></trkpt><trkpt lat="40.3585235" lon="8.9471841"><ele>778.0</ele><time>2026-03-29T09:12:22.263Z</time></trkpt><trkpt lat="40.3584426" lon="8.9471077"><ele>777.3333333333334</ele><time>2026-03-29T09:12:23.262Z</time></trkpt><trkpt lat="40.3583812" lon="8.9470502"><ele>776.6666666666667</ele><time>2026-03-29T09:12:24.262Z</time></trkpt><trkpt lat="40.3582749" lon="8.9469956"><ele>776.0</ele><time>2026-03-29T09:12:26.263Z</time></trkpt><trkpt lat="40.3582096" lon="8.9469471"><ele>776.0000000000001</ele><time>2026-03-29T09:12:27.262Z</time></trkpt><trkpt lat="40.35815" lon="8.9469097"><ele>776.0</ele><time>2026-03-29T09:12:28.263Z</time></trkpt><trkpt lat="40.3580849" lon="8.9468462"><ele>776.0</ele><time>2026-03-29T09:12:29.262Z</time></trkpt><trkpt lat="40.3580032" lon="8.9468011"><ele>776.0</ele><time>2026-03-29T09:12:30.262Z</time></trkpt><trkpt lat="40.3579201" lon="8.9467234"><ele>776.0000000000001</ele><time>2026-03-29T09:12:33.263Z</time></trkpt><trkpt lat="40.3579485" lon="8.946628"><ele>776.0</ele><time>2026-03-29T09:12:37.264Z</time></trkpt><trkpt lat="40.3579882" lon="8.9465561"><ele>771.1999999999999</ele><time>2026-03-29T09:12:38.261Z</time></trkpt><trkpt lat="40.3580685" lon="8.9464805"><ele>766.4</ele><time>2026-03-29T09:12:40.263Z</time></trkpt><trkpt lat="40.3581373" lon="8.946434"><ele>761.6</ele><time>2026-03-29T09:12:42.262Z</time></trkpt><trkpt lat="40.35814" lon="8.9463275"><ele>756.8</ele><time>2026-03-29T09:12:44.261Z</time></trkpt><trkpt lat="40.3581159" lon="8.9462155"><ele>752.0</ele><time>2026-03-29T09:12:46.263Z</time></trkpt><trkpt lat="40.3580209" lon="8.9460794"><ele>750.5</ele><time>2026-03-29T09:12:48.262Z</time></trkpt><trkpt lat="40.3579566" lon="8.9459576"><ele>749.0</ele><time>2026-03-29T09:12:50.262Z</time></trkpt><trkpt lat="40.3578972" lon="8.9458415"><ele>747.5</ele><time>2026-03-29T09:12:52.263Z</time></trkpt><trkpt lat="40.3577746" lon="8.9458262"><ele>746.0</ele><time>2026-03-29T09:12:54.263Z</time></trkpt><trkpt lat="40.3576439" lon="8.9457971"><ele>742.8333333333333</ele><time>2026-03-29T09:12:56.263Z</time></trkpt><trkpt lat="40.3575553" lon="8.945749"><ele>739.6666666666666</ele><time>2026-03-29T09:12:58.262Z</time></trkpt><trkpt lat="40.3575023" lon="8.9457015"><ele>736.5</ele><time>2026-03-29T09:13:00.262Z</time></trkpt><trkpt lat="40.3574381" lon="8.9457239"><ele>733.3333333333334</ele><time>2026-03-29T09:13:01.263Z</time></trkpt><trkpt lat="40.3573521" lon="8.9457207"><ele>730.1666666666667</ele><time>2026-03-29T09:13:02.264Z</time></trkpt><trkpt lat="40.3572558" lon="8.945798"><ele>727.0</ele><time>2026-03-29T09:13:03.262Z</time></trkpt><trkpt lat="40.3571538" lon="8.9458345"><ele>727.4000000000001</ele><time>2026-03-29T09:13:04.262Z</time></trkpt><trkpt lat="40.3570891" lon="8.9458709"><ele>727.8000000000001</ele><time>2026-03-29T09:13:05.263Z</time></trkpt><trkpt lat="40.3569935" lon="8.9459033"><ele>728.2</ele><time>2026-03-29T09:13:06.262Z</time></trkpt><trkpt lat="40.3568655" lon="8.945905"><ele>728.6</ele><time>2026-03-29T09:13:07.264Z</time></trkpt><trkpt lat="40.3567787" lon="8.9459045"><ele>729.0</ele><time>2026-03-29T09:13:08.262Z</time></trkpt><trkpt lat="40.356609" lon="8.9459107"><ele>724.4000000000001</ele><time>2026-03-29T09:13:10.262Z</time></trkpt><trkpt lat="40.3565234" lon="8.9458741"><ele>719.8</ele><time>2026-03-29T09:13:11.262Z</time></trkpt><trkpt lat="40.3564309" lon="8.9458636"><ele>715.2</ele><time>2026-03-29T09:13:12.263Z</time></trkpt><trkpt lat="40.3563536" lon="8.9458504"><ele>710.5999999999999</ele><time>2026-03-29T09:13:13.262Z</time></trkpt><trkpt lat="40.3562457" lon="8.9457694"><ele>706.0</ele><time>2026-03-29T09:13:15.263Z</time></trkpt><trkpt lat="40.3561273" lon="8.9456675"><ele>702.0</ele><time>2026-03-29T09:13:17.262Z</time></trkpt><trkpt lat="40.3560696" lon="8.9456202"><ele>698.0</ele><time>2026-03-29T09:13:18.263Z</time></trkpt><trkpt lat="40.3560006" lon="8.9456676"><ele>694.0</ele><time>2026-03-29T09:13:19.262Z</time></trkpt><trkpt lat="40.3558925" lon="8.9456202"><ele>690.0</ele><time>2026-03-29T09:13:21.263Z</time></trkpt><trkpt lat="40.3558241" lon="8.9455883"><ele>686.0</ele><time>2026-03-29T09:13:23.263Z</time></trkpt><trkpt lat="40.3556917" lon="8.9455481"><ele>686.0</ele><time>2026-03-29T09:13:26.263Z</time></trkpt><trkpt lat="40.3556162" lon="8.9455336"><ele>686.0</ele><time>2026-03-29T09:13:27.262Z</time></trkpt><trkpt lat="40.3555444" lon="8.945527"><ele>686.0</ele><time>2026-03-29T09:13:28.262Z</time></trkpt><trkpt lat="40.3554427" lon="8.9455444"><ele>686.0</ele><time>2026-03-29T09:13:30.262Z</time></trkpt><trkpt lat="40.3553727" lon="8.9455004"><ele>686.0</ele><time>2026-03-29T09:13:32.264Z</time></trkpt><trkpt lat="40.3553373" lon="8.9454192"><ele>686.0</ele><time>2026-03-29T09:13:35.263Z</time></trkpt><trkpt lat="40.3553076" lon="8.9453234"><ele>681.5</ele><time>2026-03-29T09:13:37.264Z</time></trkpt><trkpt lat="40.3552687" lon="8.9452107"><ele>677.0</ele><time>2026-03-29T09:13:40.263Z</time></trkpt><trkpt lat="40.3552817" lon="8.9451143"><ele>672.5</ele><time>2026-03-29T09:13:44.263Z</time></trkpt><trkpt lat="40.3553366" lon="8.9450738"><ele>668.0</ele><time>2026-03-29T09:14:11.264Z</time></trkpt><trkpt lat="40.3554839" lon="8.9446769"><ele>670.5999999999999</ele><time>2026-03-29T09:14:49.263Z</time></trkpt><trkpt lat="40.3555651" lon="8.9445424"><ele>673.1999999999999</ele><time>2026-03-29T09:14:50.264Z</time></trkpt><trkpt lat="40.355628" lon="8.9444599"><ele>675.8</ele><time>2026-03-29T09:14:51.263Z</time></trkpt><trkpt lat="40.3556859" lon="8.9444017"><ele>678.4</ele><time>2026-03-29T09:14:52.262Z</time></trkpt><trkpt lat="40.3557424" lon="8.9443112"><ele>681.0</ele><time>2026-03-29T09:14:53.262Z</time></trkpt><trkpt lat="40.3557813" lon="8.9442033"><ele>682.75</ele><time>2026-03-29T09:14:54.262Z</time></trkpt><trkpt lat="40.3558175" lon="8.9441259"><ele>684.5</ele><time>2026-03-29T09:14:55.262Z</time></trkpt><trkpt lat="40.3558724" lon="8.9440804"><ele>686.25</ele><time>2026-03-29T09:14:57.262Z</time></trkpt><trkpt lat="40.3559863" lon="8.9440318"><ele>688.0</ele><time>2026-03-29T09:15:12.263Z</time></trkpt><trkpt lat="40.3561873" lon="8.9440302"><ele>688.0</ele><time>2026-03-29T09:15:22.262Z</time></trkpt><trkpt lat="40.3562293" lon="8.9439538"><ele>688.0</ele><time>2026-03-29T09:15:25.262Z</time></trkpt><trkpt lat="40.3562958" lon="8.9438889"><ele>688.0</ele><time>2026-03-29T09:15:28.264Z</time></trkpt><trkpt lat="40.3563835" lon="8.9438304"><ele>688.0</ele><time>2026-03-29T09:15:31.263Z</time></trkpt><trkpt lat="40.3564485" lon="8.9438002"><ele>688.0</ele><time>2026-03-29T09:15:33.263Z</time></trkpt><trkpt lat="40.3565313" lon="8.9437673"><ele>688.0</ele><time>2026-03-29T09:16:03.262Z</time></trkpt><trkpt lat="40.3566099" lon="8.9437591"><ele>691.8333333333334</ele><time>2026-03-29T09:16:05.263Z</time></trkpt><trkpt lat="40.3566781" lon="8.9437385"><ele>695.6666666666667</ele><time>2026-03-29T09:16:07.263Z</time></trkpt><trkpt lat="40.3567629" lon="8.9437758"><ele>699.5</ele><time>2026-03-29T09:16:09.263Z</time></trkpt><trkpt lat="40.3568697" lon="8.9437982"><ele>703.3333333333334</ele><time>2026-03-29T09:16:11.263Z</time></trkpt><trkpt lat="40.3569368" lon="8.9437898"><ele>707.1666666666666</ele><time>2026-03-29T09:16:13.263Z</time></trkpt><trkpt lat="40.3570101" lon="8.9438006"><ele>711.0</ele><time>2026-03-29T09:16:15.263Z</time></trkpt><trkpt lat="40.3571444" lon="8.9438288"><ele>714.0</ele><time>2026-03-29T09:16:17.262Z</time></trkpt><trkpt lat="40.3572417" lon="8.9438099"><ele>717.0</ele><time>2026-03-29T09:16:19.263Z</time></trkpt><trkpt lat="40.3573477" lon="8.943782"><ele>720.0</ele><time>2026-03-29T09:16:21.263Z</time></trkpt><trkpt lat="40.3573695" lon="8.9438915"><ele>723.0</ele><time>2026-03-29T09:16:24.262Z</time></trkpt><trkpt lat="40.3574222" lon="8.9439574"><ele>726.0</ele><time>2026-03-29T09:17:05.262Z</time></trkpt><trkpt lat="40.3575234" lon="8.9439851"><ele>726.0</ele><time>2026-03-29T09:17:08.264Z</time></trkpt><trkpt lat="40.3576308" lon="8.9440617"><ele>726.0</ele><time>2026-03-29T09:17:10.262Z</time></trkpt><trkpt lat="40.3577299" lon="8.944127"><ele>726.0</ele><time>2026-03-29T09:17:12.263Z</time></trkpt><trkpt lat="40.357827" lon="8.9441912"><ele>726.0</ele><time>2026-03-29T09:17:14.264Z</time></trkpt><trkpt lat="40.357895" lon="8.9442345"><ele>726.0</ele><time>2026-03-29T09:17:15.264Z</time></trkpt><trkpt lat="40.3579533" lon="8.9442725"><ele>731.0</ele><time>2026-03-29T09:17:16.263Z</time></trkpt><trkpt lat="40.3580356" lon="8.9443136"><ele>736.0</ele><time>2026-03-29T09:17:17.264Z</time></trkpt><trkpt lat="40.358153" lon="8.9443444"><ele>741.0</ele><time>2026-03-29T09:17:18.264Z</time></trkpt><trkpt lat="40.3582429" lon="8.9443929"><ele>746.0</ele><time>2026-03-29T09:17:19.262Z</time></trkpt><trkpt lat="40.358348" lon="8.9444129"><ele>751.0</ele><time>2026-03-29T09:17:20.262Z</time></trkpt><trkpt lat="40.3584468" lon="8.9444334"><ele>751.0</ele><time>2026-03-29T09:17:21.263Z</time></trkpt><trkpt lat="40.3585507" lon="8.9444529"><ele>751.0</ele><time>2026-03-29T09:17:22.264Z</time></trkpt><trkpt lat="40.3586576" lon="8.9444494"><ele>751.0</ele><time>2026-03-29T09:17:23.263Z</time></trkpt><trkpt lat="40.3587261" lon="8.9444704"><ele>751.0</ele><time>2026-03-29T09:17:24.264Z</time></trkpt><trkpt lat="40.3588211" lon="8.9444735"><ele>751.0</ele><time>2026-03-29T09:17:25.262Z</time></trkpt><trkpt lat="40.3589037" lon="8.9445271"><ele>755.0</ele><time>2026-03-29T09:17:26.263Z</time></trkpt><trkpt lat="40.3589781" lon="8.9445578"><ele>759.0</ele><time>2026-03-29T09:17:28.263Z</time></trkpt><trkpt lat="40.359043" lon="8.9445493"><ele>763.0</ele><time>2026-03-29T09:17:31.263Z</time></trkpt><trkpt lat="40.3591308" lon="8.9445641"><ele>767.0</ele><time>2026-03-29T09:17:34.263Z</time></trkpt><trkpt lat="40.3592095" lon="8.9445143"><ele>770.9999999999999</ele><time>2026-03-29T09:17:37.262Z</time></trkpt><trkpt lat="40.3592212" lon="8.9444133"><ele>775.0</ele><time>2026-03-29T09:17:43.263Z</time></trkpt><trkpt lat="40.3592335" lon="8.9442926"><ele>773.3333333333333</ele><time>2026-03-29T09:17:45.262Z</time></trkpt><trkpt lat="40.3592392" lon="8.9441837"><ele>771.6666666666666</ele><time>2026-03-29T09:17:46.262Z</time></trkpt><trkpt lat="40.3592071" lon="8.9441024"><ele>770.0</ele><time>2026-03-29T09:17:47.263Z</time></trkpt><trkpt lat="40.3591967" lon="8.9439799"><ele>768.3333333333333</ele><time>2026-03-29T09:17:49.264Z</time></trkpt><trkpt lat="40.359187" lon="8.9438845"><ele>766.6666666666666</ele><time>2026-03-29T09:17:51.262Z</time></trkpt><trkpt lat="40.3592322" lon="8.943797"><ele>765.0</ele><time>2026-03-29T09:17:53.263Z</time></trkpt><trkpt lat="40.3592861" lon="8.9437412"><ele>765.0</ele><time>2026-03-29T09:17:54.263Z</time></trkpt><trkpt lat="40.3593945" lon="8.9436939"><ele>765.0</ele><time>2026-03-29T09:17:56.262Z</time></trkpt><trkpt lat="40.3594602" lon="8.943661"><ele>765.0</ele><time>2026-03-29T09:17:57.263Z</time></trkpt><trkpt lat="40.3595856" lon="8.9436655"><ele>765.0</ele><time>2026-03-29T09:17:58.262Z</time></trkpt><trkpt lat="40.3596692" lon="8.9436732"><ele>765.0</ele><time>2026-03-29T09:17:59.262Z</time></trkpt><trkpt lat="40.359759" lon="8.9436886"><ele>770.4</ele><time>2026-03-29T09:18:01.263Z</time></trkpt><trkpt lat="40.359865" lon="8.9437071"><ele>775.8</ele><time>2026-03-29T09:18:03.262Z</time></trkpt><trkpt lat="40.3599587" lon="8.9437211"><ele>781.2</ele><time>2026-03-29T09:18:05.265Z</time></trkpt><trkpt lat="40.3600559" lon="8.9437404"><ele>786.6</ele><time>2026-03-29T09:18:07.263Z</time></trkpt><trkpt lat="40.3601366" lon="8.9437617"><ele>792.0</ele><time>2026-03-29T09:18:08.263Z</time></trkpt><trkpt lat="40.3602071" lon="8.9437741"><ele>792.0</ele><time>2026-03-29T09:18:09.264Z</time></trkpt><trkpt lat="40.3602708" lon="8.9437959"><ele>792.0</ele><time>2026-03-29T09:18:10.263Z</time></trkpt><trkpt lat="40.3604109" lon="8.9438232"><ele>792.0</ele><time>2026-03-29T09:18:12.264Z</time></trkpt><trkpt lat="40.3604775" lon="8.9438324"><ele>792.0</ele><time>2026-03-29T09:18:13.264Z</time></trkpt><trkpt lat="40.3605851" lon="8.9438111"><ele>792.0</ele><time>2026-03-29T09:18:15.264Z</time></trkpt><trkpt lat="40.3606609" lon="8.9437936"><ele>797.0</ele><time>2026-03-29T09:18:45.264Z</time></trkpt><trkpt lat="40.3607389" lon="8.9437932"><ele>802.0</ele><time>2026-03-29T09:18:47.264Z</time></trkpt><trkpt lat="40.3608758" lon="8.9438136"><ele>807.0</ele><time>2026-03-29T09:18:49.264Z</time></trkpt><trkpt lat="40.3609391" lon="8.9438147"><ele>812.0</ele><time>2026-03-29T09:18:50.264Z</time></trkpt><trkpt lat="40.3610104" lon="8.9437931"><ele>817.0</ele><time>2026-03-29T09:18:51.264Z</time></trkpt><trkpt lat="40.3610758" lon="8.9437608"><ele>822.0</ele><time>2026-03-29T09:18:53.263Z</time></trkpt><trkpt lat="40.3611481" lon="8.9436989"><ele>822.0</ele><time>2026-03-29T09:18:55.264Z</time></trkpt><trkpt lat="40.3612066" lon="8.943666"><ele>822.0</ele><time>2026-03-29T09:18:56.264Z</time></trkpt><trkpt lat="40.3612751" lon="8.943627"><ele>822.0</ele><time>2026-03-29T09:18:58.264Z</time></trkpt><trkpt lat="40.3613856" lon="8.9436177"><ele>822.0</ele><time>2026-03-29T09:19:00.264Z</time></trkpt><trkpt lat="40.3614719" lon="8.9435602"><ele>822.0</ele><time>2026-03-29T09:19:02.264Z</time></trkpt><trkpt lat="40.3615432" lon="8.9435128"><ele>822.0</ele><time>2026-03-29T09:19:04.263Z</time></trkpt><trkpt lat="40.361638" lon="8.943473"><ele>824.3333333333334</ele><time>2026-03-29T09:19:06.264Z</time></trkpt><trkpt lat="40.3617043" lon="8.9434801"><ele>826.6666666666667</ele><time>2026-03-29T09:19:07.265Z</time></trkpt><trkpt lat="40.3617733" lon="8.9434698"><ele>829.0</ele><time>2026-03-29T09:19:08.264Z</time></trkpt><trkpt lat="40.361881" lon="8.9434342"><ele>831.3333333333334</ele><time>2026-03-29T09:19:10.265Z</time></trkpt><trkpt lat="40.361978" lon="8.9434196"><ele>833.6666666666667</ele><time>2026-03-29T09:19:12.265Z</time></trkpt><trkpt lat="40.3620503" lon="8.9434007"><ele>836.0</ele><time>2026-03-29T09:19:14.262Z</time></trkpt><trkpt lat="40.3621137" lon="8.9433573"><ele>836.0000000000001</ele><time>2026-03-29T09:19:16.263Z</time></trkpt><trkpt lat="40.362191" lon="8.9433069"><ele>836.0</ele><time>2026-03-29T09:19:19.262Z</time></trkpt><trkpt lat="40.3622569" lon="8.9432648"><ele>836.0</ele><time>2026-03-29T09:19:22.263Z</time></trkpt><trkpt lat="40.3623284" lon="8.9432173"><ele>836.0</ele><time>2026-03-29T09:19:26.263Z</time></trkpt><trkpt lat="40.3624013" lon="8.9431738"><ele>836.0000000000001</ele><time>2026-03-29T09:19:38.263Z</time></trkpt><trkpt lat="40.3624714" lon="8.9431278"><ele>836.0</ele><time>2026-03-29T09:19:41.264Z</time></trkpt><trkpt lat="40.3625507" lon="8.9430905"><ele>840.6666666666667</ele><time>2026-03-29T09:19:43.263Z</time></trkpt><trkpt lat="40.36263" lon="8.9430525"><ele>845.3333333333334</ele><time>2026-03-29T09:19:47.263Z</time></trkpt><trkpt lat="40.3627069" lon="8.9430375"><ele>850.0</ele><time>2026-03-29T09:19:50.262Z</time></trkpt><trkpt lat="40.3627715" lon="8.9430352"><ele>854.6666666666667</ele><time>2026-03-29T09:19:52.263Z</time></trkpt><trkpt lat="40.3628298" lon="8.9429735"><ele>859.3333333333334</ele><time>2026-03-29T09:19:54.263Z</time></trkpt><trkpt lat="40.3627721" lon="8.9429129"><ele>864.0</ele><time>2026-03-29T09:19:56.263Z</time></trkpt><trkpt lat="40.3627757" lon="8.9430234"><ele>864.0</ele><time>2026-03-29T09:20:28.263Z</time></trkpt><trkpt lat="40.362813" lon="8.9431282"><ele>864.0</ele><time>2026-03-29T09:20:31.262Z</time></trkpt><trkpt lat="40.3628229" lon="8.9432615"><ele>864.0</ele><time>2026-03-29T09:20:34.264Z</time></trkpt><trkpt lat="40.3628434" lon="8.9433413"><ele>864.0</ele><time>2026-03-29T09:20:39.262Z</time></trkpt><trkpt lat="40.3628913" lon="8.9434174"><ele>864.0</ele><time>2026-03-29T09:20:44.263Z</time></trkpt><trkpt lat="40.3629763" lon="8.9433742"><ele>864.0</ele><time>2026-03-29T09:25:33.265Z</time></trkpt><trkpt lat="40.3630742" lon="8.9433463"><ele>871.0</ele><time>2026-03-29T09:25:35.264Z</time></trkpt><trkpt lat="40.3632127" lon="8.943223"><ele>878.0</ele><time>2026-03-29T09:25:37.263Z</time></trkpt><trkpt lat="40.3633036" lon="8.9431133"><ele>885.0</ele><time>2026-03-29T09:25:38.264Z</time></trkpt><trkpt lat="40.3633836" lon="8.9430165"><ele>892.0</ele><time>2026-03-29T09:25:39.264Z</time></trkpt><trkpt lat="40.3634439" lon="8.9429343"><ele>892.0</ele><time>2026-03-29T09:25:40.263Z</time></trkpt><trkpt lat="40.3635267" lon="8.9428163"><ele>892.0</ele><time>2026-03-29T09:25:41.265Z</time></trkpt><trkpt lat="40.3636139" lon="8.9427292"><ele>892.0</ele><time>2026-03-29T09:25:42.264Z</time></trkpt><trkpt lat="40.3636703" lon="8.9426633"><ele>892.0</ele><time>2026-03-29T09:25:43.265Z</time></trkpt><trkpt lat="40.363739" lon="8.942576"><ele>892.0</ele><time>2026-03-29T09:25:44.263Z</time></trkpt><trkpt lat="40.3637795" lon="8.9424378"><ele>891.0</ele><time>2026-03-29T09:25:45.264Z</time></trkpt><trkpt lat="40.3638096" lon="8.9423385"><ele>890.0</ele><time>2026-03-29T09:25:46.265Z</time></trkpt><trkpt lat="40.3638417" lon="8.9422131"><ele>889.0</ele><time>2026-03-29T09:25:49.264Z</time></trkpt><trkpt lat="40.3638742" lon="8.9420909"><ele>888.0</ele><time>2026-03-29T09:25:51.265Z</time></trkpt><trkpt lat="40.3638897" lon="8.9419757"><ele>887.0</ele><time>2026-03-29T09:25:53.265Z</time></trkpt><trkpt lat="40.3639533" lon="8.941845"><ele>890.0</ele><time>2026-03-29T09:25:56.263Z</time></trkpt><trkpt lat="40.3639167" lon="8.9417046"><ele>893.0</ele><time>2026-03-29T09:25:58.263Z</time></trkpt><trkpt lat="40.3638572" lon="8.9416302"><ele>896.0</ele><time>2026-03-29T09:26:00.263Z</time></trkpt><trkpt lat="40.363803" lon="8.9415758"><ele>899.0</ele><time>2026-03-29T09:26:01.264Z</time></trkpt><trkpt lat="40.3637469" lon="8.9414778"><ele>902.0</ele><time>2026-03-29T09:26:03.265Z</time></trkpt><trkpt lat="40.3637331" lon="8.941357"><ele>902.0</ele><time>2026-03-29T09:26:05.264Z</time></trkpt><trkpt lat="40.3636531" lon="8.9412776"><ele>902.0</ele><time>2026-03-29T09:26:07.264Z</time></trkpt><trkpt lat="40.3636045" lon="8.9412194"><ele>902.0</ele><time>2026-03-29T09:26:08.264Z</time></trkpt><trkpt lat="40.3635445" lon="8.9410997"><ele>902.0</ele><time>2026-03-29T09:26:10.264Z</time></trkpt><trkpt lat="40.3634757" lon="8.9409473"><ele>902.0</ele><time>2026-03-29T09:26:12.264Z</time></trkpt><trkpt lat="40.3634447" lon="8.9408634"><ele>906.8</ele><time>2026-03-29T09:26:13.265Z</time></trkpt><trkpt lat="40.3634282" lon="8.9407728"><ele>911.6</ele><time>2026-03-29T09:26:14.264Z</time></trkpt><trkpt lat="40.3634334" lon="8.9406158"><ele>916.3999999999999</ele><time>2026-03-29T09:26:16.263Z</time></trkpt><trkpt lat="40.3634225" lon="8.9404576"><ele>921.1999999999999</ele><time>2026-03-29T09:26:18.264Z</time></trkpt><trkpt lat="40.3633908" lon="8.9403759"><ele>926.0</ele><time>2026-03-29T09:26:19.265Z</time></trkpt><trkpt lat="40.3633596" lon="8.9402966"><ele>926.0</ele><time>2026-03-29T09:26:20.264Z</time></trkpt><trkpt lat="40.3633159" lon="8.9401542"><ele>925.9999999999999</ele><time>2026-03-29T09:26:22.265Z</time></trkpt><trkpt lat="40.3632854" lon="8.9400776"><ele>925.9999999999999</ele><time>2026-03-29T09:26:23.265Z</time></trkpt><trkpt lat="40.3632345" lon="8.9400068"><ele>926.0</ele><time>2026-03-29T09:26:24.264Z</time></trkpt><trkpt lat="40.3631514" lon="8.9399199"><ele>926.0</ele><time>2026-03-29T09:26:25.263Z</time></trkpt><trkpt lat="40.3630476" lon="8.9397813"><ele>924.5</ele><time>2026-03-29T09:26:26.265Z</time></trkpt><trkpt lat="40.3629407" lon="8.9396611"><ele>923.0</ele><time>2026-03-29T09:26:27.264Z</time></trkpt><trkpt lat="40.3628282" lon="8.9395366"><ele>921.5</ele><time>2026-03-29T09:26:28.264Z</time></trkpt><trkpt lat="40.3627305" lon="8.9394166"><ele>920.0</ele><time>2026-03-29T09:26:29.264Z</time></trkpt><trkpt lat="40.3626336" lon="8.9393019"><ele>920.0</ele><time>2026-03-29T09:26:30.265Z</time></trkpt><trkpt lat="40.3625427" lon="8.9392223"><ele>920.0</ele><time>2026-03-29T09:26:31.266Z</time></trkpt><trkpt lat="40.3624347" lon="8.9391366"><ele>920.0</ele><time>2026-03-29T09:26:32.266Z</time></trkpt><trkpt lat="40.3623264" lon="8.9390751"><ele>920.0</ele><time>2026-03-29T09:26:33.265Z</time></trkpt><trkpt lat="40.36222" lon="8.9390193"><ele>921.4</ele><time>2026-03-29T09:26:34.264Z</time></trkpt><trkpt lat="40.3621359" lon="8.938948"><ele>922.8</ele><time>2026-03-29T09:26:35.263Z</time></trkpt><trkpt lat="40.3620722" lon="8.9388596"><ele>924.2</ele><time>2026-03-29T09:26:36.264Z</time></trkpt><trkpt lat="40.3619971" lon="8.9387536"><ele>925.6</ele><time>2026-03-29T09:26:37.263Z</time></trkpt><trkpt lat="40.3619276" lon="8.9386482"><ele>927.0</ele><time>2026-03-29T09:26:38.264Z</time></trkpt><trkpt lat="40.3618674" lon="8.9385404"><ele>927.0</ele><time>2026-03-29T09:26:39.264Z</time></trkpt><trkpt lat="40.3618103" lon="8.9384144"><ele>927.0</ele><time>2026-03-29T09:26:40.264Z</time></trkpt><trkpt lat="40.3617617" lon="8.9382921"><ele>927.0</ele><time>2026-03-29T09:26:41.263Z</time></trkpt><trkpt lat="40.3617246" lon="8.9381838"><ele>927.0</ele><time>2026-03-29T09:26:42.264Z</time></trkpt><trkpt lat="40.3616662" lon="8.9380974"><ele>927.0</ele><time>2026-03-29T09:26:43.265Z</time></trkpt><trkpt lat="40.3615698" lon="8.9380157"><ele>927.5</ele><time>2026-03-29T09:26:44.264Z</time></trkpt><trkpt lat="40.3614617" lon="8.9379518"><ele>928.0</ele><time>2026-03-29T09:26:45.265Z</time></trkpt><trkpt lat="40.3613526" lon="8.9379114"><ele>928.5</ele><time>2026-03-29T09:26:46.266Z</time></trkpt><trkpt lat="40.3612231" lon="8.9379098"><ele>929.0</ele><time>2026-03-29T09:26:47.263Z</time></trkpt><trkpt lat="40.3611189" lon="8.9378889"><ele>929.0000000000001</ele><time>2026-03-29T09:26:48.266Z</time></trkpt><trkpt lat="40.361033" lon="8.937837"><ele>929.0</ele><time>2026-03-29T09:26:49.266Z</time></trkpt><trkpt lat="40.3609706" lon="8.9377826"><ele>929.0</ele><time>2026-03-29T09:26:50.263Z</time></trkpt><trkpt lat="40.360932" lon="8.9377059"><ele>929.0</ele><time>2026-03-29T09:26:51.264Z</time></trkpt><trkpt lat="40.3609059" lon="8.937597"><ele>929.0000000000001</ele><time>2026-03-29T09:26:52.264Z</time></trkpt><trkpt lat="40.3608628" lon="8.9374793"><ele>929.0</ele><time>2026-03-29T09:26:53.264Z</time></trkpt><trkpt lat="40.3607936" lon="8.9373248"><ele>927.25</ele><time>2026-03-29T09:26:54.265Z</time></trkpt><trkpt lat="40.3607261" lon="8.9371804"><ele>925.5</ele><time>2026-03-29T09:26:55.265Z</time></trkpt><trkpt lat="40.360647" lon="8.9370503"><ele>923.75</ele><time>2026-03-29T09:26:56.263Z</time></trkpt><trkpt lat="40.3605611" lon="8.9369238"><ele>922.0</ele><time>2026-03-29T09:26:57.264Z</time></trkpt><trkpt lat="40.3604815" lon="8.9368361"><ele>922.0</ele><time>2026-03-29T09:26:58.265Z</time></trkpt><trkpt lat="40.3603951" lon="8.9367946"><ele>922.0</ele><time>2026-03-29T09:26:59.264Z</time></trkpt><trkpt lat="40.3602978" lon="8.9367563"><ele>922.0</ele><time>2026-03-29T09:27:00.264Z</time></trkpt><trkpt lat="40.3602076" lon="8.9367261"><ele>922.0</ele><time>2026-03-29T09:27:01.264Z</time></trkpt><trkpt lat="40.3601492" lon="8.9366397"><ele>922.0</ele><time>2026-03-29T09:27:02.264Z</time></trkpt><trkpt lat="40.36008" lon="8.9365459"><ele>922.5</ele><time>2026-03-29T09:27:03.264Z</time></trkpt><trkpt lat="40.3599963" lon="8.9364291"><ele>923.0</ele><time>2026-03-29T09:27:04.265Z</time></trkpt><trkpt lat="40.3599225" lon="8.9363243"><ele>923.5</ele><time>2026-03-29T09:27:05.263Z</time></trkpt><trkpt lat="40.3598114" lon="8.9361994"><ele>924.0</ele><time>2026-03-29T09:27:06.264Z</time></trkpt><trkpt lat="40.359699" lon="8.9360778"><ele>924.0</ele><time>2026-03-29T09:27:07.265Z</time></trkpt><trkpt lat="40.3595517" lon="8.9359643"><ele>924.0</ele><time>2026-03-29T09:27:08.265Z</time></trkpt><trkpt lat="40.3594248" lon="8.9358584"><ele>924.0</ele><time>2026-03-29T09:27:09.265Z</time></trkpt><trkpt lat="40.3592968" lon="8.9357704"><ele>923.6666666666667</ele><time>2026-03-29T09:27:10.264Z</time></trkpt><trkpt lat="40.3591577" lon="8.9356749"><ele>923.3333333333334</ele><time>2026-03-29T09:27:11.265Z</time></trkpt><trkpt lat="40.3589829" lon="8.9355611"><ele>923.0</ele><time>2026-03-29T09:27:12.264Z</time></trkpt><trkpt lat="40.3588512" lon="8.9354743"><ele>923.0</ele><time>2026-03-29T09:27:13.263Z</time></trkpt><trkpt lat="40.3587565" lon="8.9354174"><ele>923.0</ele><time>2026-03-29T09:27:14.263Z</time></trkpt><trkpt lat="40.358695" lon="8.9353531"><ele>923.0</ele><time>2026-03-29T09:27:15.265Z</time></trkpt><trkpt lat="40.3586216" lon="8.9352458"><ele>923.0</ele><time>2026-03-29T09:27:16.265Z</time></trkpt><trkpt lat="40.3585398" lon="8.9351326"><ele>923.0</ele><time>2026-03-29T09:27:17.266Z</time></trkpt><trkpt lat="40.3584535" lon="8.9350313"><ele>926.8333333333334</ele><time>2026-03-29T09:27:18.265Z</time></trkpt><trkpt lat="40.3583815" lon="8.9349628"><ele>930.6666666666667</ele><time>2026-03-29T09:27:19.264Z</time></trkpt><trkpt lat="40.3583069" lon="8.9349328"><ele>934.5</ele><time>2026-03-29T09:27:20.265Z</time></trkpt><trkpt lat="40.3582182" lon="8.9349103"><ele>938.3333333333333</ele><time>2026-03-29T09:27:21.264Z</time></trkpt><trkpt lat="40.3581349" lon="8.9348923"><ele>942.1666666666666</ele><time>2026-03-29T09:27:22.264Z</time></trkpt><trkpt lat="40.3580511" lon="8.9348496"><ele>946.0</ele><time>2026-03-29T09:27:23.266Z</time></trkpt><trkpt lat="40.3579653" lon="8.9347947"><ele>946.0</ele><time>2026-03-29T09:27:24.264Z</time></trkpt><trkpt lat="40.3578464" lon="8.9346865"><ele>946.0</ele><time>2026-03-29T09:27:25.263Z</time></trkpt><trkpt lat="40.3577821" lon="8.9346192"><ele>946.0</ele><time>2026-03-29T09:27:26.264Z</time></trkpt><trkpt lat="40.3576938" lon="8.9345124"><ele>946.0</ele><time>2026-03-29T09:27:27.264Z</time></trkpt><trkpt lat="40.3575916" lon="8.9344389"><ele>946.0</ele><time>2026-03-29T09:27:28.264Z</time></trkpt><trkpt lat="40.3574761" lon="8.934353"><ele>946.0</ele><time>2026-03-29T09:27:29.264Z</time></trkpt><trkpt lat="40.3573346" lon="8.9342792"><ele>946.0</ele><time>2026-03-29T09:27:30.265Z</time></trkpt><trkpt lat="40.3572117" lon="8.9342212"><ele>946.0</ele><time>2026-03-29T09:27:31.265Z</time></trkpt><trkpt lat="40.3570887" lon="8.9341587"><ele>956.75</ele><time>2026-03-29T09:27:32.263Z</time></trkpt><trkpt lat="40.3569717" lon="8.9340971"><ele>967.5</ele><time>2026-03-29T09:27:33.265Z</time></trkpt><trkpt lat="40.3568523" lon="8.9340356"><ele>978.25</ele><time>2026-03-29T09:27:34.266Z</time></trkpt><trkpt lat="40.3567465" lon="8.9340312"><ele>989.0</ele><time>2026-03-29T09:27:35.265Z</time></trkpt><trkpt lat="40.3566437" lon="8.9340161"><ele>989.0</ele><time>2026-03-29T09:27:36.266Z</time></trkpt><trkpt lat="40.3565371" lon="8.9340608"><ele>989.0</ele><time>2026-03-29T09:27:37.263Z</time></trkpt><trkpt lat="40.3564409" lon="8.9340926"><ele>989.0</ele><time>2026-03-29T09:27:38.265Z</time></trkpt><trkpt lat="40.3563005" lon="8.9341469"><ele>989.0</ele><time>2026-03-29T09:27:39.265Z</time></trkpt><trkpt lat="40.3561856" lon="8.934193"><ele>983.5</ele><time>2026-03-29T09:27:40.265Z</time></trkpt><trkpt lat="40.3560722" lon="8.9342327"><ele>978.0</ele><time>2026-03-29T09:27:41.264Z</time></trkpt><trkpt lat="40.3559277" lon="8.9342556"><ele>972.5</ele><time>2026-03-29T09:27:42.266Z</time></trkpt><trkpt lat="40.3558014" lon="8.9342915"><ele>967.0</ele><time>2026-03-29T09:27:43.264Z</time></trkpt><trkpt lat="40.3556592" lon="8.9343474"><ele>966.2</ele><time>2026-03-29T09:27:44.265Z</time></trkpt><trkpt lat="40.3555353" lon="8.9343851"><ele>965.4000000000001</ele><time>2026-03-29T09:27:45.263Z</time></trkpt><trkpt lat="40.3554372" lon="8.9343975"><ele>964.5999999999999</ele><time>2026-03-29T09:27:46.264Z</time></trkpt><trkpt lat="40.3553574" lon="8.9343761"><ele>963.8</ele><time>2026-03-29T09:27:47.266Z</time></trkpt><trkpt lat="40.3552712" lon="8.9343246"><ele>963.0</ele><time>2026-03-29T09:27:48.263Z</time></trkpt><trkpt lat="40.3551808" lon="8.9342578"><ele>970.5</ele><time>2026-03-29T09:27:49.265Z</time></trkpt><trkpt lat="40.3551013" lon="8.9341996"><ele>978.0</ele><time>2026-03-29T09:27:50.263Z</time></trkpt><trkpt lat="40.3550242" lon="8.9341141"><ele>985.5</ele><time>2026-03-29T09:27:51.265Z</time></trkpt><trkpt lat="40.3549174" lon="8.9339882"><ele>993.0</ele><time>2026-03-29T09:27:52.264Z</time></trkpt><trkpt lat="40.3547965" lon="8.9338379"><ele>986.0</ele><time>2026-03-29T09:27:53.266Z</time></trkpt><trkpt lat="40.3546985" lon="8.9337134"><ele>979.0</ele><time>2026-03-29T09:27:54.266Z</time></trkpt><trkpt lat="40.3546008" lon="8.9336028"><ele>972.0</ele><time>2026-03-29T09:27:55.264Z</time></trkpt><trkpt lat="40.3545269" lon="8.9334884"><ele>965.0</ele><time>2026-03-29T09:27:56.265Z</time></trkpt><trkpt lat="40.3544525" lon="8.9333899"><ele>969.6</ele><time>2026-03-29T09:27:57.264Z</time></trkpt><trkpt lat="40.3543936" lon="8.933279"><ele>974.2</ele><time>2026-03-29T09:27:58.266Z</time></trkpt><trkpt lat="40.3543061" lon="8.9331654"><ele>978.8</ele><time>2026-03-29T09:27:59.263Z</time></trkpt><trkpt lat="40.3542384" lon="8.933052"><ele>983.4</ele><time>2026-03-29T09:28:00.263Z</time></trkpt><trkpt lat="40.3541599" lon="8.9329501"><ele>988.0</ele><time>2026-03-29T09:28:01.264Z</time></trkpt><trkpt lat="40.35412" lon="8.9327968"><ele>988.0</ele><time>2026-03-29T09:28:02.263Z</time></trkpt><trkpt lat="40.3540718" lon="8.9326434"><ele>988.0</ele><time>2026-03-29T09:28:03.265Z</time></trkpt><trkpt lat="40.3540157" lon="8.9325054"><ele>988.0</ele><time>2026-03-29T09:28:04.263Z</time></trkpt><trkpt lat="40.3539771" lon="8.9323992"><ele>988.0</ele><time>2026-03-29T09:28:05.266Z</time></trkpt><trkpt lat="40.3539228" lon="8.9323148"><ele>988.0</ele><time>2026-03-29T09:28:06.264Z</time></trkpt><trkpt lat="40.3538524" lon="8.9322424"><ele>988.25</ele><time>2026-03-29T09:28:07.265Z</time></trkpt><trkpt lat="40.3537656" lon="8.9321655"><ele>988.5</ele><time>2026-03-29T09:28:08.265Z</time></trkpt><trkpt lat="40.3536464" lon="8.9320665"><ele>988.75</ele><time>2026-03-29T09:28:09.264Z</time></trkpt><trkpt lat="40.353538" lon="8.9319828"><ele>989.0</ele><time>2026-03-29T09:28:10.265Z</time></trkpt><trkpt lat="40.3534541" lon="8.9319211"><ele>989.0</ele><time>2026-03-29T09:28:11.264Z</time></trkpt><trkpt lat="40.3533876" lon="8.9318924"><ele>989.0000000000001</ele><time>2026-03-29T09:28:12.265Z</time></trkpt><trkpt lat="40.35331" lon="8.931882"><ele>989.0000000000001</ele><time>2026-03-29T09:28:13.264Z</time></trkpt><trkpt lat="40.3532095" lon="8.9318765"><ele>989.0</ele><time>2026-03-29T09:28:14.265Z</time></trkpt><trkpt lat="40.3530974" lon="8.9318696"><ele>989.0</ele><time>2026-03-29T09:28:15.265Z</time></trkpt><trkpt lat="40.3529918" lon="8.9318411"><ele>984.6</ele><time>2026-03-29T09:28:16.266Z</time></trkpt><trkpt lat="40.3529114" lon="8.9318134"><ele>980.2</ele><time>2026-03-29T09:28:17.265Z</time></trkpt><trkpt lat="40.3528252" lon="8.9317582"><ele>975.8000000000001</ele><time>2026-03-29T09:28:18.266Z</time></trkpt><trkpt lat="40.3527529" lon="8.9316712"><ele>971.4000000000001</ele><time>2026-03-29T09:28:19.264Z</time></trkpt><trkpt lat="40.3526849" lon="8.9315801"><ele>967.0</ele><time>2026-03-29T09:28:20.264Z</time></trkpt><trkpt lat="40.3525971" lon="8.9314762"><ele>972.8</ele><time>2026-03-29T09:28:21.266Z</time></trkpt><trkpt lat="40.3525128" lon="8.9313872"><ele>978.6</ele><time>2026-03-29T09:28:22.264Z</time></trkpt><trkpt lat="40.3524086" lon="8.931345"><ele>984.3999999999999</ele><time>2026-03-29T09:28:23.264Z</time></trkpt><trkpt lat="40.3523071" lon="8.9312997"><ele>990.1999999999999</ele><time>2026-03-29T09:28:24.266Z</time></trkpt><trkpt lat="40.3522218" lon="8.9312754"><ele>996.0</ele><time>2026-03-29T09:28:25.264Z</time></trkpt><trkpt lat="40.3521301" lon="8.9312136"><ele>996.0</ele><time>2026-03-29T09:28:26.264Z</time></trkpt><trkpt lat="40.3520201" lon="8.9311496"><ele>996.0</ele><time>2026-03-29T09:28:27.265Z</time></trkpt><trkpt lat="40.3519291" lon="8.9310825"><ele>996.0</ele><time>2026-03-29T09:28:28.264Z</time></trkpt><trkpt lat="40.3518133" lon="8.9310153"><ele>996.0</ele><time>2026-03-29T09:28:29.265Z</time></trkpt><trkpt lat="40.3516929" lon="8.9309456"><ele>1003.4</ele><time>2026-03-29T09:28:30.265Z</time></trkpt><trkpt lat="40.3516207" lon="8.9308876"><ele>1010.8</ele><time>2026-03-29T09:28:31.265Z</time></trkpt><trkpt lat="40.3515119" lon="8.930821"><ele>1018.1999999999999</ele><time>2026-03-29T09:28:32.266Z</time></trkpt><trkpt lat="40.3514345" lon="8.9307542"><ele>1025.6</ele><time>2026-03-29T09:28:33.264Z</time></trkpt><trkpt lat="40.3513284" lon="8.9306919"><ele>1033.0</ele><time>2026-03-29T09:28:34.266Z</time></trkpt><trkpt lat="40.3512329" lon="8.9306522"><ele>1033.0</ele><time>2026-03-29T09:28:35.265Z</time></trkpt><trkpt lat="40.3511462" lon="8.9306025"><ele>1033.0</ele><time>2026-03-29T09:28:36.265Z</time></trkpt><trkpt lat="40.3510413" lon="8.9305418"><ele>1033.0</ele><time>2026-03-29T09:28:37.264Z</time></trkpt><trkpt lat="40.3509271" lon="8.9304861"><ele>1033.0</ele><time>2026-03-29T09:28:38.265Z</time></trkpt><trkpt lat="40.350835" lon="8.930394"><ele>1033.0</ele><time>2026-03-29T09:28:39.266Z</time></trkpt><trkpt lat="40.350726" lon="8.9302767"><ele>1033.0</ele><time>2026-03-29T09:28:40.264Z</time></trkpt><trkpt lat="40.3506274" lon="8.930185"><ele>1033.0</ele><time>2026-03-29T09:28:41.265Z</time></trkpt><trkpt lat="40.3505387" lon="8.9301012"><ele>1033.0</ele><time>2026-03-29T09:28:42.265Z</time></trkpt><trkpt lat="40.350455" lon="8.9300325"><ele>1033.0</ele><time>2026-03-29T09:28:43.263Z</time></trkpt><trkpt lat="40.3503533" lon="8.9300296"><ele>1033.0</ele><time>2026-03-29T09:28:44.264Z</time></trkpt><trkpt lat="40.3502555" lon="8.9300082"><ele>1041.0</ele><time>2026-03-29T09:28:45.264Z</time></trkpt><trkpt lat="40.3501712" lon="8.9299696"><ele>1049.0</ele><time>2026-03-29T09:28:46.265Z</time></trkpt><trkpt lat="40.3500762" lon="8.9298951"><ele>1057.0</ele><time>2026-03-29T09:28:47.265Z</time></trkpt><trkpt lat="40.349975" lon="8.9298149"><ele>1065.0</ele><time>2026-03-29T09:28:48.264Z</time></trkpt><trkpt lat="40.3498274" lon="8.9297205"><ele>1061.75</ele><time>2026-03-29T09:28:49.265Z</time></trkpt><trkpt lat="40.3497022" lon="8.9296278"><ele>1058.5</ele><time>2026-03-29T09:28:50.265Z</time></trkpt><trkpt lat="40.349589" lon="8.9295462"><ele>1055.25</ele><time>2026-03-29T09:28:51.264Z</time></trkpt><trkpt lat="40.3494613" lon="8.9294862"><ele>1052.0</ele><time>2026-03-29T09:28:52.264Z</time></trkpt><trkpt lat="40.3493243" lon="8.9294379"><ele>1052.0</ele><time>2026-03-29T09:28:53.265Z</time></trkpt><trkpt lat="40.3491909" lon="8.9293842"><ele>1052.0</ele><time>2026-03-29T09:28:54.264Z</time></trkpt><trkpt lat="40.3490807" lon="8.9293399"><ele>1052.0</ele><time>2026-03-29T09:28:55.265Z</time></trkpt><trkpt lat="40.3489826" lon="8.9292874"><ele>1052.0</ele><time>2026-03-29T09:28:56.264Z</time></trkpt><trkpt lat="40.3488819" lon="8.9292364"><ele>1050.8</ele><time>2026-03-29T09:28:57.266Z</time></trkpt><trkpt lat="40.3487897" lon="8.9292041"><ele>1049.6</ele><time>2026-03-29T09:28:58.266Z</time></trkpt><trkpt lat="40.3486932" lon="8.9292236"><ele>1048.3999999999999</ele><time>2026-03-29T09:28:59.265Z</time></trkpt><trkpt lat="40.3485621" lon="8.9292822"><ele>1047.2</ele><time>2026-03-29T09:29:00.265Z</time></trkpt><trkpt lat="40.3484659" lon="8.9293154"><ele>1046.0</ele><time>2026-03-29T09:29:01.264Z</time></trkpt><trkpt lat="40.3483655" lon="8.9293107"><ele>1046.0</ele><time>2026-03-29T09:29:02.265Z</time></trkpt><trkpt lat="40.3482829" lon="8.9292859"><ele>1046.0</ele><time>2026-03-29T09:29:03.266Z</time></trkpt><trkpt lat="40.3482161" lon="8.9292463"><ele>1046.0</ele><time>2026-03-29T09:29:04.265Z</time></trkpt><trkpt lat="40.3481619" lon="8.929171"><ele>1046.0</ele><time>2026-03-29T09:29:05.265Z</time></trkpt><trkpt lat="40.3481111" lon="8.929058"><ele>1046.0</ele><time>2026-03-29T09:29:06.264Z</time></trkpt><trkpt lat="40.3480549" lon="8.9289194"><ele>1046.0</ele><time>2026-03-29T09:29:07.264Z</time></trkpt><trkpt lat="40.3479603" lon="8.9287011"><ele>1046.0</ele><time>2026-03-29T09:29:08.264Z</time></trkpt><trkpt lat="40.3478732" lon="8.9285042"><ele>1046.0</ele><time>2026-03-29T09:29:09.264Z</time></trkpt><trkpt lat="40.347806" lon="8.9283422"><ele>1046.0</ele><time>2026-03-29T09:29:10.264Z</time></trkpt><trkpt lat="40.3477633" lon="8.9281953"><ele>1046.0</ele><time>2026-03-29T09:29:11.266Z</time></trkpt><trkpt lat="40.3477267" lon="8.9280629"><ele>1046.0</ele><time>2026-03-29T09:29:12.264Z</time></trkpt><trkpt lat="40.3476872" lon="8.9279362"><ele>1046.0</ele><time>2026-03-29T09:29:13.265Z</time></trkpt><trkpt lat="40.3476356" lon="8.9277651"><ele>1046.0</ele><time>2026-03-29T09:29:15.264Z</time></trkpt><trkpt lat="40.3476259" lon="8.9276495"><ele>1046.0</ele><time>2026-03-29T09:29:16.265Z</time></trkpt><trkpt lat="40.3476117" lon="8.9275602"><ele>1046.0</ele><time>2026-03-29T09:29:17.264Z</time></trkpt><trkpt lat="40.3475856" lon="8.92745"><ele>1046.0</ele><time>2026-03-29T09:29:19.265Z</time></trkpt><trkpt lat="40.3475482" lon="8.9273414"><ele>1046.0</ele><time>2026-03-29T09:30:32.266Z</time></trkpt><trkpt lat="40.3474763" lon="8.9272386"><ele>1046.0</ele><time>2026-03-29T09:30:34.266Z</time></trkpt><trkpt lat="40.3474327" lon="8.9271768"><ele>1045.8</ele><time>2026-03-29T09:30:35.265Z</time></trkpt><trkpt lat="40.347401" lon="8.9270881"><ele>1045.6</ele><time>2026-03-29T09:30:36.264Z</time></trkpt><trkpt lat="40.3473621" lon="8.9269973"><ele>1045.4</ele><time>2026-03-29T09:30:37.264Z</time></trkpt><trkpt lat="40.3472817" lon="8.9268683"><ele>1045.2</ele><time>2026-03-29T09:30:39.265Z</time></trkpt><trkpt lat="40.347208" lon="8.9267787"><ele>1045.0</ele><time>2026-03-29T09:30:41.266Z</time></trkpt><trkpt lat="40.3471615" lon="8.9266867"><ele>1045.0</ele><time>2026-03-29T09:30:43.265Z</time></trkpt><trkpt lat="40.347103" lon="8.926603"><ele>1045.0</ele><time>2026-03-29T09:30:45.265Z</time></trkpt><trkpt lat="40.3470551" lon="8.9265021"><ele>1045.0</ele><time>2026-03-29T09:30:47.265Z</time></trkpt><trkpt lat="40.3469994" lon="8.926448"><ele>1045.0</ele><time>2026-03-29T09:30:50.266Z</time></trkpt><trkpt lat="40.3469357" lon="8.9264379"><ele>1045.0</ele><time>2026-03-29T09:30:52.266Z</time></trkpt><trkpt lat="40.3468733" lon="8.9264052"><ele>1045.0</ele><time>2026-03-29T09:30:55.264Z</time></trkpt><trkpt lat="40.3468774" lon="8.9263089"><ele>1045.0</ele><time>2026-03-29T09:30:57.265Z</time></trkpt><trkpt lat="40.3469271" lon="8.9261432"><ele>1045.0</ele><time>2026-03-29T09:30:59.264Z</time></trkpt><trkpt lat="40.3469541" lon="8.9260589"><ele>1045.0</ele><time>2026-03-29T09:31:00.265Z</time></trkpt><trkpt lat="40.346938" lon="8.9259207"><ele>1045.0</ele><time>2026-03-29T09:31:02.264Z</time></trkpt><trkpt lat="40.346929" lon="8.9257875"><ele>1045.0</ele><time>2026-03-29T09:31:04.265Z</time></trkpt><trkpt lat="40.3469072" lon="8.9256755"><ele>1047.1666666666665</ele><time>2026-03-29T09:31:06.266Z</time></trkpt><trkpt lat="40.3468727" lon="8.9255768"><ele>1049.3333333333333</ele><time>2026-03-29T09:31:08.264Z</time></trkpt><trkpt lat="40.3468659" lon="8.9254668"><ele>1051.5</ele><time>2026-03-29T09:31:10.264Z</time></trkpt><trkpt lat="40.3468574" lon="8.9253286"><ele>1053.6666666666667</ele><time>2026-03-29T09:31:12.265Z</time></trkpt><trkpt lat="40.3468749" lon="8.9252247"><ele>1055.8333333333335</ele><time>2026-03-29T09:31:14.265Z</time></trkpt><trkpt lat="40.3468705" lon="8.9251222"><ele>1058.0</ele><time>2026-03-29T09:31:16.264Z</time></trkpt><trkpt lat="40.3468504" lon="8.9250221"><ele>1060.4</ele><time>2026-03-29T09:31:18.264Z</time></trkpt><trkpt lat="40.3468535" lon="8.9249052"><ele>1062.8</ele><time>2026-03-29T09:31:20.264Z</time></trkpt><trkpt lat="40.3468872" lon="8.9247691"><ele>1065.2</ele><time>2026-03-29T09:31:23.265Z</time></trkpt><trkpt lat="40.3468994" lon="8.9246354"><ele>1067.6</ele><time>2026-03-29T09:31:25.264Z</time></trkpt><trkpt lat="40.3469293" lon="8.9245297"><ele>1070.0</ele><time>2026-03-29T09:31:27.265Z</time></trkpt><trkpt lat="40.346927" lon="8.9244215"><ele>1070.0</ele><time>2026-03-29T09:31:30.266Z</time></trkpt><trkpt lat="40.3468987" lon="8.9243295"><ele>1070.0</ele><time>2026-03-29T09:31:33.267Z</time></trkpt><trkpt lat="40.3468383" lon="8.9242626"><ele>1070.0</ele><time>2026-03-29T09:31:37.266Z</time></trkpt><trkpt lat="40.3467905" lon="8.9241478"><ele>1070.0</ele><time>2026-03-29T09:31:56.264Z</time></trkpt><trkpt lat="40.3468261" lon="8.9240574"><ele>1070.0</ele><time>2026-03-29T09:31:59.266Z</time></trkpt><trkpt lat="40.3468793" lon="8.923979"><ele>1070.0</ele><time>2026-03-29T09:32:02.265Z</time></trkpt><trkpt lat="40.3469149" lon="8.9238972"><ele>1071.3333333333335</ele><time>2026-03-29T09:32:06.266Z</time></trkpt><trkpt lat="40.34696" lon="8.9238306"><ele>1072.6666666666667</ele><time>2026-03-29T09:32:09.264Z</time></trkpt><trkpt lat="40.3469696" lon="8.9237079"><ele>1074.0</ele><time>2026-03-29T09:32:13.264Z</time></trkpt><trkpt lat="40.3469682" lon="8.9236168"><ele>1075.3333333333333</ele><time>2026-03-29T09:32:31.265Z</time></trkpt><trkpt lat="40.3469931" lon="8.9234993"><ele>1076.6666666666665</ele><time>2026-03-29T09:32:34.266Z</time></trkpt><trkpt lat="40.3470059" lon="8.9233879"><ele>1078.0</ele><time>2026-03-29T09:32:36.264Z</time></trkpt><trkpt lat="40.3470224" lon="8.9232744"><ele>1079.6</ele><time>2026-03-29T09:32:37.264Z</time></trkpt><trkpt lat="40.3470627" lon="8.9231911"><ele>1081.1999999999998</ele><time>2026-03-29T09:32:38.265Z</time></trkpt><trkpt lat="40.3472039" lon="8.9231027"><ele>1082.8</ele><time>2026-03-29T09:35:33.265Z</time></trkpt><trkpt lat="40.3472685" lon="8.9231194"><ele>1084.3999999999999</ele><time>2026-03-29T09:35:34.267Z</time></trkpt><trkpt lat="40.3473447" lon="8.9231344"><ele>1086.0</ele><time>2026-03-29T09:35:35.266Z</time></trkpt><trkpt lat="40.3474227" lon="8.9231403"><ele>1086.0</ele><time>2026-03-29T09:35:36.265Z</time></trkpt><trkpt lat="40.3474845" lon="8.9231737"><ele>1086.0</ele><time>2026-03-29T09:35:37.266Z</time></trkpt><trkpt lat="40.3475482" lon="8.9232185"><ele>1086.0</ele><time>2026-03-29T09:35:38.265Z</time></trkpt><trkpt lat="40.347604" lon="8.9232574"><ele>1086.0</ele><time>2026-03-29T09:35:39.264Z</time></trkpt><trkpt lat="40.3476787" lon="8.9232578"><ele>1086.0</ele><time>2026-03-29T09:35:40.266Z</time></trkpt><trkpt lat="40.3477654" lon="8.9232847"><ele>1086.0</ele><time>2026-03-29T09:35:41.265Z</time></trkpt><trkpt lat="40.3478492" lon="8.9232923"><ele>1086.0</ele><time>2026-03-29T09:35:42.267Z</time></trkpt><trkpt lat="40.3479082" lon="8.9233254"><ele>1086.0</ele><time>2026-03-29T09:35:43.266Z</time></trkpt><trkpt lat="40.3479924" lon="8.9233478"><ele>1086.0</ele><time>2026-03-29T09:35:44.266Z</time></trkpt><trkpt lat="40.3480508" lon="8.9233833"><ele>1086.0</ele><time>2026-03-29T09:35:45.266Z</time></trkpt><trkpt lat="40.3481302" lon="8.923455"><ele>1086.0</ele><time>2026-03-29T09:35:47.265Z</time></trkpt><trkpt lat="40.3482157" lon="8.9235149"><ele>1086.0</ele><time>2026-03-29T09:35:50.265Z</time></trkpt><trkpt lat="40.348279" lon="8.9235601"><ele>1085.2</ele><time>2026-03-29T09:35:52.265Z</time></trkpt><trkpt lat="40.3483724" lon="8.9236222"><ele>1084.3999999999999</ele><time>2026-03-29T09:35:54.267Z</time></trkpt><trkpt lat="40.3484743" lon="8.9236294"><ele>1083.6</ele><time>2026-03-29T09:35:56.266Z</time></trkpt><trkpt lat="40.3485319" lon="8.9236654"><ele>1082.8</ele><time>2026-03-29T09:35:58.266Z</time></trkpt><trkpt lat="40.3486044" lon="8.9237574"><ele>1082.0</ele><time>2026-03-29T09:36:00.265Z</time></trkpt><trkpt lat="40.3486729" lon="8.923898"><ele>1082.0</ele><time>2026-03-29T09:36:02.266Z</time></trkpt><trkpt lat="40.3487084" lon="8.9240035"><ele>1082.0</ele><time>2026-03-29T09:36:03.267Z</time></trkpt><trkpt lat="40.3487529" lon="8.9240986"><ele>1082.0</ele><time>2026-03-29T09:36:04.266Z</time></trkpt><trkpt lat="40.3488036" lon="8.9241968"><ele>1082.0</ele><time>2026-03-29T09:36:05.265Z</time></trkpt><trkpt lat="40.348867" lon="8.92432"><ele>1082.0</ele><time>2026-03-29T09:36:06.266Z</time></trkpt><trkpt lat="40.3489377" lon="8.9243993"><ele>1085.0</ele><time>2026-03-29T09:36:07.266Z</time></trkpt><trkpt lat="40.3490235" lon="8.9244858"><ele>1088.0</ele><time>2026-03-29T09:36:08.267Z</time></trkpt><trkpt lat="40.3491083" lon="8.9245731"><ele>1091.0</ele><time>2026-03-29T09:36:09.266Z</time></trkpt><trkpt lat="40.3491944" lon="8.9246799"><ele>1094.0</ele><time>2026-03-29T09:36:10.266Z</time></trkpt><trkpt lat="40.3493007" lon="8.9247793"><ele>1094.0</ele><time>2026-03-29T09:36:11.267Z</time></trkpt><trkpt lat="40.3494221" lon="8.9249062"><ele>1094.0</ele><time>2026-03-29T09:36:12.265Z</time></trkpt><trkpt lat="40.3495281" lon="8.9250011"><ele>1094.0</ele><time>2026-03-29T09:36:13.265Z</time></trkpt><trkpt lat="40.3496346" lon="8.9250806"><ele>1094.0</ele><time>2026-03-29T09:36:14.266Z</time></trkpt><trkpt lat="40.3496916" lon="8.925141"><ele>1095.3333333333335</ele><time>2026-03-29T09:36:15.266Z</time></trkpt><trkpt lat="40.3497647" lon="8.9251873"><ele>1096.6666666666667</ele><time>2026-03-29T09:36:16.265Z</time></trkpt><trkpt lat="40.3498502" lon="8.925187"><ele>1098.0</ele><time>2026-03-29T09:36:17.266Z</time></trkpt><trkpt lat="40.3499133" lon="8.925191"><ele>1099.3333333333333</ele><time>2026-03-29T09:36:18.267Z</time></trkpt><trkpt lat="40.3499741" lon="8.92524"><ele>1100.6666666666665</ele><time>2026-03-29T09:36:20.265Z</time></trkpt><trkpt lat="40.3500159" lon="8.925353"><ele>1102.0</ele><time>2026-03-29T09:36:22.265Z</time></trkpt><trkpt lat="40.3500734" lon="8.9254969"><ele>1102.0</ele><time>2026-03-29T09:36:24.266Z</time></trkpt><trkpt lat="40.3501232" lon="8.9256193"><ele>1102.0</ele><time>2026-03-29T09:36:25.265Z</time></trkpt><trkpt lat="40.3502016" lon="8.9257501"><ele>1102.0</ele><time>2026-03-29T09:36:26.266Z</time></trkpt><trkpt lat="40.3502374" lon="8.9258777"><ele>1102.0</ele><time>2026-03-29T09:36:27.265Z</time></trkpt><trkpt lat="40.3502621" lon="8.9261315"><ele>1102.6</ele><time>2026-03-29T09:36:28.265Z</time></trkpt><trkpt lat="40.3502738" lon="8.9262714"><ele>1103.2</ele><time>2026-03-29T09:36:29.265Z</time></trkpt><trkpt lat="40.3502766" lon="8.9264083"><ele>1103.8</ele><time>2026-03-29T09:36:30.265Z</time></trkpt><trkpt lat="40.3502984" lon="8.9265393"><ele>1104.4</ele><time>2026-03-29T09:36:31.266Z</time></trkpt><trkpt lat="40.3503319" lon="8.9266857"><ele>1105.0</ele><time>2026-03-29T09:36:32.265Z</time></trkpt><trkpt lat="40.3503613" lon="8.9268142"><ele>1105.6</ele><time>2026-03-29T09:36:33.266Z</time></trkpt><trkpt lat="40.350418" lon="8.9269231"><ele>1106.2</ele><time>2026-03-29T09:36:34.265Z</time></trkpt><trkpt lat="40.3504722" lon="8.9270102"><ele>1106.8</ele><time>2026-03-29T09:36:35.266Z</time></trkpt><trkpt lat="40.3505197" lon="8.9270727"><ele>1107.4</ele><time>2026-03-29T09:36:36.265Z</time></trkpt><trkpt lat="40.3505671" lon="8.9271599"><ele>1108.0</ele><time>2026-03-29T09:36:37.266Z</time></trkpt><trkpt lat="40.3506789" lon="8.9272366"><ele>1108.0</ele><time>2026-03-29T09:36:39.265Z</time></trkpt><trkpt lat="40.3507517" lon="8.9272766"><ele>1108.0</ele><time>2026-03-29T09:36:40.265Z</time></trkpt><trkpt lat="40.3508441" lon="8.9274148"><ele>1108.0</ele><time>2026-03-29T09:36:41.265Z</time></trkpt><trkpt lat="40.3509694" lon="8.9275613"><ele>1108.0</ele><time>2026-03-29T09:36:42.265Z</time></trkpt><trkpt lat="40.3510891" lon="8.927735"><ele>1107.75</ele><time>2026-03-29T09:36:43.267Z</time></trkpt><trkpt lat="40.351203" lon="8.9279008"><ele>1107.5</ele><time>2026-03-29T09:36:44.266Z</time></trkpt><trkpt lat="40.3513075" lon="8.9280418"><ele>1107.25</ele><time>2026-03-29T09:36:45.265Z</time></trkpt><trkpt lat="40.3513855" lon="8.9280672"><ele>1107.0</ele><time>2026-03-29T09:36:46.266Z</time></trkpt><trkpt lat="40.3515034" lon="8.9281393"><ele>1107.0</ele><time>2026-03-29T09:36:47.266Z</time></trkpt><trkpt lat="40.3516217" lon="8.9282089"><ele>1107.0</ele><time>2026-03-29T09:36:48.267Z</time></trkpt><trkpt lat="40.3517074" lon="8.9282769"><ele>1107.0</ele><time>2026-03-29T09:36:49.266Z</time></trkpt><trkpt lat="40.3518006" lon="8.9283179"><ele>1107.0</ele><time>2026-03-29T09:36:50.266Z</time></trkpt><trkpt lat="40.3518839" lon="8.9283597"><ele>1107.0</ele><time>2026-03-29T09:36:51.266Z</time></trkpt><trkpt lat="40.3520056" lon="8.9283318"><ele>1107.0</ele><time>2026-03-29T09:36:53.267Z</time></trkpt><trkpt lat="40.3520602" lon="8.9282775"><ele>1107.0</ele><time>2026-03-29T09:36:54.267Z</time></trkpt><trkpt lat="40.3521121" lon="8.9282265"><ele>1107.0</ele><time>2026-03-29T09:36:55.266Z</time></trkpt><trkpt lat="40.352174" lon="8.9281832"><ele>1107.0</ele><time>2026-03-29T09:36:56.267Z</time></trkpt><trkpt lat="40.3522293" lon="8.9281184"><ele>1107.0</ele><time>2026-03-29T09:36:57.266Z</time></trkpt><trkpt lat="40.3522814" lon="8.9280423"><ele>1107.0</ele><time>2026-03-29T09:36:58.265Z</time></trkpt><trkpt lat="40.3523258" lon="8.9279604"><ele>1107.0</ele><time>2026-03-29T09:36:59.265Z</time></trkpt><trkpt lat="40.3523646" lon="8.9278706"><ele>1107.4</ele><time>2026-03-29T09:37:00.267Z</time></trkpt><trkpt lat="40.3524309" lon="8.9277764"><ele>1107.8000000000002</ele><time>2026-03-29T09:37:01.266Z</time></trkpt><trkpt lat="40.3524774" lon="8.927687"><ele>1108.2</ele><time>2026-03-29T09:37:02.266Z</time></trkpt><trkpt lat="40.3525245" lon="8.9275545"><ele>1108.6000000000001</ele><time>2026-03-29T09:37:03.266Z</time></trkpt><trkpt lat="40.352576" lon="8.927456"><ele>1109.0</ele><time>2026-03-29T09:37:04.265Z</time></trkpt><trkpt lat="40.3526282" lon="8.9273489"><ele>1110.6000000000001</ele><time>2026-03-29T09:37:05.266Z</time></trkpt><trkpt lat="40.3526834" lon="8.9272667"><ele>1112.2</ele><time>2026-03-29T09:37:06.265Z</time></trkpt><trkpt lat="40.3527324" lon="8.9271799"><ele>1113.8000000000002</ele><time>2026-03-29T09:37:07.266Z</time></trkpt><trkpt lat="40.3527365" lon="8.9270414"><ele>1115.4</ele><time>2026-03-29T09:37:10.266Z</time></trkpt><trkpt lat="40.3526964" lon="8.9268755"><ele>1117.0</ele><time>2026-03-29T09:37:11.265Z</time></trkpt><trkpt lat="40.3526726" lon="8.9267805"><ele>1117.6</ele><time>2026-03-29T09:37:12.265Z</time></trkpt><trkpt lat="40.3526361" lon="8.926625"><ele>1118.2</ele><time>2026-03-29T09:37:14.265Z</time></trkpt><trkpt lat="40.3525874" lon="8.9265466"><ele>1118.8</ele><time>2026-03-29T09:37:15.267Z</time></trkpt><trkpt lat="40.3525436" lon="8.9264444"><ele>1119.4</ele><time>2026-03-29T09:37:17.265Z</time></trkpt><trkpt lat="40.352521" lon="8.9263015"><ele>1120.0</ele><time>2026-03-29T09:37:18.265Z</time></trkpt><trkpt lat="40.3524973" lon="8.9262057"><ele>1120.0</ele><time>2026-03-29T09:37:19.266Z</time></trkpt><trkpt lat="40.3524352" lon="8.9261414"><ele>1120.0</ele><time>2026-03-29T09:37:21.267Z</time></trkpt><trkpt lat="40.3524102" lon="8.9260064"><ele>1120.0</ele><time>2026-03-29T09:37:23.265Z</time></trkpt><trkpt lat="40.3524145" lon="8.9258907"><ele>1120.0</ele><time>2026-03-29T09:37:25.266Z</time></trkpt><trkpt lat="40.3524581" lon="8.925773"><ele>1120.0</ele><time>2026-03-29T09:37:27.266Z</time></trkpt><trkpt lat="40.3525212" lon="8.9256876"><ele>1119.8</ele><time>2026-03-29T09:37:29.265Z</time></trkpt><trkpt lat="40.3525762" lon="8.9256171"><ele>1119.6</ele><time>2026-03-29T09:37:31.266Z</time></trkpt><trkpt lat="40.3526419" lon="8.9256346"><ele>1119.4</ele><time>2026-03-29T09:37:33.267Z</time></trkpt><trkpt lat="40.3526971" lon="8.9257365"><ele>1119.2</ele><time>2026-03-29T09:37:35.266Z</time></trkpt><trkpt lat="40.3527807" lon="8.925842"><ele>1119.0</ele><time>2026-03-29T09:37:37.266Z</time></trkpt><trkpt lat="40.3528719" lon="8.9258812"><ele>1119.1666666666667</ele><time>2026-03-29T09:37:38.266Z</time></trkpt><trkpt lat="40.3529334" lon="8.9259552"><ele>1119.3333333333333</ele><time>2026-03-29T09:37:39.266Z</time></trkpt><trkpt lat="40.3529848" lon="8.9260186"><ele>1119.5</ele><time>2026-03-29T09:37:40.267Z</time></trkpt><trkpt lat="40.3530395" lon="8.9260777"><ele>1119.6666666666665</ele><time>2026-03-29T09:37:41.267Z</time></trkpt><trkpt lat="40.3531131" lon="8.9261024"><ele>1119.8333333333333</ele><time>2026-03-29T09:37:43.267Z</time></trkpt><trkpt lat="40.3531732" lon="8.9260219"><ele>1120.0</ele><time>2026-03-29T09:37:45.266Z</time></trkpt><trkpt lat="40.3532085" lon="8.9259482"><ele>1117.2</ele><time>2026-03-29T09:37:55.265Z</time></trkpt><trkpt lat="40.3532598" lon="8.9258717"><ele>1114.4</ele><time>2026-03-29T09:37:57.265Z</time></trkpt><trkpt lat="40.3533075" lon="8.9257166"><ele>1111.6</ele><time>2026-03-29T09:37:59.266Z</time></trkpt><trkpt lat="40.3533786" lon="8.9256525"><ele>1108.8</ele><time>2026-03-29T09:38:00.265Z</time></trkpt><trkpt lat="40.3534124" lon="8.9255706"><ele>1106.0</ele><time>2026-03-29T09:38:01.266Z</time></trkpt><trkpt lat="40.3534612" lon="8.9254484"><ele>1106.0</ele><time>2026-03-29T09:38:03.265Z</time></trkpt><trkpt lat="40.3534599" lon="8.9253028"><ele>1106.0</ele><time>2026-03-29T09:38:05.266Z</time></trkpt><trkpt lat="40.3535363" lon="8.925204"><ele>1106.0</ele><time>2026-03-29T09:38:08.265Z</time></trkpt><trkpt lat="40.3536146" lon="8.925086"><ele>1106.0</ele><time>2026-03-29T09:38:10.267Z</time></trkpt><trkpt lat="40.3536636" lon="8.9250245"><ele>1106.0</ele><time>2026-03-29T09:38:11.266Z</time></trkpt><trkpt lat="40.3536987" lon="8.924902"><ele>1105.1666666666667</ele><time>2026-03-29T09:38:13.265Z</time></trkpt><trkpt lat="40.3537459" lon="8.9247815"><ele>1104.3333333333335</ele><time>2026-03-29T09:38:15.266Z</time></trkpt><trkpt lat="40.3538022" lon="8.9246982"><ele>1103.5</ele><time>2026-03-29T09:38:16.265Z</time></trkpt><trkpt lat="40.3538456" lon="8.9246208"><ele>1102.6666666666667</ele><time>2026-03-29T09:38:17.267Z</time></trkpt><trkpt lat="40.3538836" lon="8.9245543"><ele>1101.8333333333333</ele><time>2026-03-29T09:38:18.266Z</time></trkpt><trkpt lat="40.3539252" lon="8.9244436"><ele>1101.0</ele><time>2026-03-29T09:38:20.265Z</time></trkpt><trkpt lat="40.3539563" lon="8.9243639"><ele>1098.6666666666667</ele><time>2026-03-29T09:38:22.267Z</time></trkpt><trkpt lat="40.3539864" lon="8.9242776"><ele>1096.3333333333333</ele><time>2026-03-29T09:38:24.266Z</time></trkpt><trkpt lat="40.3540368" lon="8.9242032"><ele>1094.0</ele><time>2026-03-29T09:38:26.267Z</time></trkpt><trkpt lat="40.3541017" lon="8.9241666"><ele>1091.6666666666665</ele><time>2026-03-29T09:38:28.266Z</time></trkpt><trkpt lat="40.3541493" lon="8.9240741"><ele>1089.3333333333333</ele><time>2026-03-29T09:38:30.266Z</time></trkpt><trkpt lat="40.3541905" lon="8.9239457"><ele>1087.0</ele><time>2026-03-29T09:38:32.266Z</time></trkpt><trkpt lat="40.3542382" lon="8.9238246"><ele>1086.142857142857</ele><time>2026-03-29T09:38:34.267Z</time></trkpt><trkpt lat="40.3542813" lon="8.9237368"><ele>1085.2857142857142</ele><time>2026-03-29T09:38:39.265Z</time></trkpt><trkpt lat="40.3543373" lon="8.9236775"><ele>1084.4285714285713</ele><time>2026-03-29T09:38:42.265Z</time></trkpt><trkpt lat="40.3543961" lon="8.9236027"><ele>1083.5714285714284</ele><time>2026-03-29T09:38:45.266Z</time></trkpt><trkpt lat="40.3544219" lon="8.9235196"><ele>1082.7142857142858</ele><time>2026-03-29T09:38:47.267Z</time></trkpt><trkpt lat="40.3544582" lon="8.9234471"><ele>1081.8571428571427</ele><time>2026-03-29T09:38:49.265Z</time></trkpt><trkpt lat="40.3545058" lon="8.9233884"><ele>1081.0</ele><time>2026-03-29T09:38:51.268Z</time></trkpt><trkpt lat="40.3545477" lon="8.9232867"><ele>1079.3999999999999</ele><time>2026-03-29T09:38:53.266Z</time></trkpt><trkpt lat="40.3545763" lon="8.9231292"><ele>1077.8</ele><time>2026-03-29T09:38:55.268Z</time></trkpt><trkpt lat="40.3546016" lon="8.9229823"><ele>1076.1999999999998</ele><time>2026-03-29T09:38:57.267Z</time></trkpt><trkpt lat="40.3546564" lon="8.9229119"><ele>1074.6</ele><time>2026-03-29T09:38:59.267Z</time></trkpt><trkpt lat="40.3547097" lon="8.9228679"><ele>1073.0</ele><time>2026-03-29T09:39:01.266Z</time></trkpt><trkpt lat="40.3547799" lon="8.9227881"><ele>1070.6</ele><time>2026-03-29T09:39:04.266Z</time></trkpt><trkpt lat="40.3548309" lon="8.9227224"><ele>1068.1999999999998</ele><time>2026-03-29T09:39:06.267Z</time></trkpt><trkpt lat="40.3548708" lon="8.9226441"><ele>1065.8</ele><time>2026-03-29T09:39:08.266Z</time></trkpt><trkpt lat="40.3548728" lon="8.9224802"><ele>1063.3999999999999</ele><time>2026-03-29T09:39:10.267Z</time></trkpt><trkpt lat="40.3549171" lon="8.9223837"><ele>1061.0</ele><time>2026-03-29T09:39:12.268Z</time></trkpt><trkpt lat="40.3549813" lon="8.922257"><ele>1059.7142857142858</ele><time>2026-03-29T09:39:14.267Z</time></trkpt><trkpt lat="40.355008" lon="8.9221811"><ele>1058.4285714285716</ele><time>2026-03-29T09:39:15.266Z</time></trkpt><trkpt lat="40.3550741" lon="8.9221843"><ele>1057.142857142857</ele><time>2026-03-29T09:39:23.266Z</time></trkpt><trkpt lat="40.3550762" lon="8.9220772"><ele>1055.857142857143</ele><time>2026-03-29T09:39:26.266Z</time></trkpt><trkpt lat="40.3550943" lon="8.9219974"><ele>1054.5714285714284</ele><time>2026-03-29T09:39:28.266Z</time></trkpt><trkpt lat="40.3551212" lon="8.9219081"><ele>1053.2857142857142</ele><time>2026-03-29T09:39:31.265Z</time></trkpt><trkpt lat="40.3551486" lon="8.9217962"><ele>1052.0</ele><time>2026-03-29T09:39:34.265Z</time></trkpt><trkpt lat="40.355213" lon="8.9216806"><ele>1050.3333333333335</ele><time>2026-03-29T09:39:36.266Z</time></trkpt><trkpt lat="40.3552703" lon="8.9216012"><ele>1048.6666666666667</ele><time>2026-03-29T09:39:38.267Z</time></trkpt><trkpt lat="40.3553423" lon="8.92154"><ele>1047.0</ele><time>2026-03-29T09:39:40.266Z</time></trkpt><trkpt lat="40.3554207" lon="8.9214897"><ele>1045.3333333333333</ele><time>2026-03-29T09:39:42.267Z</time></trkpt><trkpt lat="40.3554298" lon="8.9214015"><ele>1043.6666666666665</ele><time>2026-03-29T09:39:44.267Z</time></trkpt><trkpt lat="40.3554584" lon="8.9213214"><ele>1042.0</ele><time>2026-03-29T09:39:46.266Z</time></trkpt><trkpt lat="40.3555171" lon="8.9212334"><ele>1039.6</ele><time>2026-03-29T09:39:49.267Z</time></trkpt><trkpt lat="40.355563" lon="8.9211264"><ele>1037.2</ele><time>2026-03-29T09:39:52.266Z</time></trkpt><trkpt lat="40.3556162" lon="8.9210202"><ele>1034.8</ele><time>2026-03-29T09:39:54.268Z</time></trkpt><trkpt lat="40.3556622" lon="8.9209242"><ele>1032.4</ele><time>2026-03-29T09:39:56.266Z</time></trkpt><trkpt lat="40.3556893" lon="8.9208291"><ele>1030.0</ele><time>2026-03-29T09:39:58.267Z</time></trkpt><trkpt lat="40.3557567" lon="8.9206886"><ele>1029.1666666666665</ele><time>2026-03-29T09:40:00.267Z</time></trkpt><trkpt lat="40.3557975" lon="8.9206114"><ele>1028.3333333333333</ele><time>2026-03-29T09:40:01.265Z</time></trkpt><trkpt lat="40.3558346" lon="8.9205425"><ele>1027.5</ele><time>2026-03-29T09:40:02.267Z</time></trkpt><trkpt lat="40.3558932" lon="8.9204881"><ele>1026.6666666666667</ele><time>2026-03-29T09:40:03.266Z</time></trkpt><trkpt lat="40.3559238" lon="8.9203452"><ele>1025.8333333333335</ele><time>2026-03-29T09:40:05.268Z</time></trkpt><trkpt lat="40.3559578" lon="8.9202589"><ele>1025.0</ele><time>2026-03-29T09:40:07.268Z</time></trkpt><trkpt lat="40.3559759" lon="8.9201508"><ele>1023.25</ele><time>2026-03-29T09:40:10.268Z</time></trkpt><trkpt lat="40.3558912" lon="8.9199324"><ele>1021.5</ele><time>2026-03-29T09:40:13.268Z</time></trkpt><trkpt lat="40.3558432" lon="8.9198035"><ele>1019.75</ele><time>2026-03-29T09:40:15.265Z</time></trkpt><trkpt lat="40.3558137" lon="8.9197145"><ele>1018.0</ele><time>2026-03-29T09:40:18.268Z</time></trkpt><trkpt lat="40.3557347" lon="8.9197304"><ele>1017.9999999999999</ele><time>2026-03-29T09:40:21.268Z</time></trkpt><trkpt lat="40.3556787" lon="8.9197939"><ele>1018.0</ele><time>2026-03-29T09:41:43.266Z</time></trkpt><trkpt lat="40.3556139" lon="8.9198643"><ele>1018.0</ele><time>2026-03-29T09:41:47.268Z</time></trkpt><trkpt lat="40.3555827" lon="8.9199384"><ele>1018.0</ele><time>2026-03-29T09:41:50.267Z</time></trkpt><trkpt lat="40.355543" lon="8.9200255"><ele>1017.9999999999999</ele><time>2026-03-29T09:41:53.267Z</time></trkpt><trkpt lat="40.3555266" lon="8.9201087"><ele>1018.0</ele><time>2026-03-29T09:41:56.268Z</time></trkpt><trkpt lat="40.3555074" lon="8.9202431"><ele>1020.9999999999999</ele><time>2026-03-29T09:41:58.267Z</time></trkpt><trkpt lat="40.3555124" lon="8.9203297"><ele>1024.0</ele><time>2026-03-29T09:42:00.267Z</time></trkpt><trkpt lat="40.3554776" lon="8.9204056"><ele>1027.0</ele><time>2026-03-29T09:42:02.267Z</time></trkpt><trkpt lat="40.3554143" lon="8.9204615"><ele>1030.0</ele><time>2026-03-29T09:42:05.266Z</time></trkpt><trkpt lat="40.355313" lon="8.9204381"><ele>1033.0</ele><time>2026-03-29T09:42:08.267Z</time></trkpt><trkpt lat="40.3552313" lon="8.9204369"><ele>1036.0</ele><time>2026-03-29T09:42:10.267Z</time></trkpt><trkpt lat="40.3551141" lon="8.9203925"><ele>1036.0</ele><time>2026-03-29T09:42:12.267Z</time></trkpt><trkpt lat="40.3550572" lon="8.9203524"><ele>1036.0</ele><time>2026-03-29T09:42:13.267Z</time></trkpt><trkpt lat="40.3549701" lon="8.9202838"><ele>1036.0</ele><time>2026-03-29T09:42:15.267Z</time></trkpt><trkpt lat="40.3548771" lon="8.9202655"><ele>1036.0</ele><time>2026-03-29T09:42:17.266Z</time></trkpt><trkpt lat="40.3547843" lon="8.9203139"><ele>1036.0</ele><time>2026-03-29T09:42:19.266Z</time></trkpt><trkpt lat="40.3547213" lon="8.920387"><ele>1036.0</ele><time>2026-03-29T09:42:21.266Z</time></trkpt><trkpt lat="40.3546936" lon="8.9205045"><ele>1038.1666666666665</ele><time>2026-03-29T09:42:24.267Z</time></trkpt><trkpt lat="40.354693" lon="8.9205929"><ele>1040.3333333333333</ele><time>2026-03-29T09:42:26.268Z</time></trkpt><trkpt lat="40.3546468" lon="8.9207061"><ele>1042.5</ele><time>2026-03-29T09:42:28.266Z</time></trkpt><trkpt lat="40.3545842" lon="8.9207229"><ele>1044.6666666666667</ele><time>2026-03-29T09:42:30.267Z</time></trkpt><trkpt lat="40.3545247" lon="8.9206775"><ele>1046.8333333333335</ele><time>2026-03-29T09:42:32.266Z</time></trkpt><trkpt lat="40.3544537" lon="8.9206185"><ele>1049.0</ele><time>2026-03-29T09:42:34.267Z</time></trkpt><trkpt lat="40.3543732" lon="8.9205774"><ele>1049.0</ele><time>2026-03-29T09:42:36.267Z</time></trkpt><trkpt lat="40.3542709" lon="8.9204962"><ele>1049.0</ele><time>2026-03-29T09:42:38.267Z</time></trkpt><trkpt lat="40.3542055" lon="8.9204228"><ele>1049.0</ele><time>2026-03-29T09:42:40.267Z</time></trkpt><trkpt lat="40.3541448" lon="8.9203649"><ele>1049.0</ele><time>2026-03-29T09:42:42.266Z</time></trkpt><trkpt lat="40.3540931" lon="8.9202695"><ele>1049.0</ele><time>2026-03-29T09:42:44.266Z</time></trkpt><trkpt lat="40.354012" lon="8.9202031"><ele>1049.0</ele><time>2026-03-29T09:42:47.266Z</time></trkpt><trkpt lat="40.3539304" lon="8.9201951"><ele>1049.0</ele><time>2026-03-29T09:42:49.267Z</time></trkpt><trkpt lat="40.3538363" lon="8.920194"><ele>1049.0</ele><time>2026-03-29T09:42:51.267Z</time></trkpt><trkpt lat="40.3537171" lon="8.9201982"><ele>1049.0</ele><time>2026-03-29T09:42:53.268Z</time></trkpt><trkpt lat="40.3536444" lon="8.9202078"><ele>1049.0</ele><time>2026-03-29T09:42:55.268Z</time></trkpt><trkpt lat="40.3535876" lon="8.920168"><ele>1049.0</ele><time>2026-03-29T09:42:57.268Z</time></trkpt><trkpt lat="40.3535162" lon="8.9201359"><ele>1050.6666666666667</ele><time>2026-03-29T09:42:59.267Z</time></trkpt><trkpt lat="40.3534387" lon="8.9200858"><ele>1052.3333333333335</ele><time>2026-03-29T09:43:01.266Z</time></trkpt><trkpt lat="40.3533721" lon="8.9200304"><ele>1054.0</ele><time>2026-03-29T09:43:04.267Z</time></trkpt><trkpt lat="40.3532854" lon="8.9199844"><ele>1055.6666666666667</ele><time>2026-03-29T09:43:22.268Z</time></trkpt><trkpt lat="40.3532236" lon="8.9199541"><ele>1057.3333333333333</ele><time>2026-03-29T09:43:23.268Z</time></trkpt><trkpt lat="40.3531495" lon="8.9199256"><ele>1059.0</ele><time>2026-03-29T09:43:25.267Z</time></trkpt><trkpt lat="40.3530869" lon="8.9199136"><ele>1061.5</ele><time>2026-03-29T09:43:27.268Z</time></trkpt><trkpt lat="40.3530269" lon="8.9199595"><ele>1064.0</ele><time>2026-03-29T09:43:30.269Z</time></trkpt><trkpt lat="40.3529804" lon="8.9200704"><ele>1066.5</ele><time>2026-03-29T09:43:35.267Z</time></trkpt><trkpt lat="40.3529326" lon="8.9201388"><ele>1069.0</ele><time>2026-03-29T09:43:37.268Z</time></trkpt><trkpt lat="40.3528205" lon="8.9201652"><ele>1071.5</ele><time>2026-03-29T09:43:40.268Z</time></trkpt><trkpt lat="40.3527413" lon="8.9201147"><ele>1074.0</ele><time>2026-03-29T09:43:42.267Z</time></trkpt><trkpt lat="40.3527038" lon="8.9200421"><ele>1073.9999999999998</ele><time>2026-03-29T09:43:43.267Z</time></trkpt><trkpt lat="40.3526467" lon="8.9199673"><ele>1074.0</ele><time>2026-03-29T09:43:44.268Z</time></trkpt><trkpt lat="40.3526073" lon="8.9198732"><ele>1074.0</ele><time>2026-03-29T09:43:45.267Z</time></trkpt><trkpt lat="40.3525627" lon="8.9197973"><ele>1074.0</ele><time>2026-03-29T09:43:46.269Z</time></trkpt><trkpt lat="40.3525193" lon="8.9197264"><ele>1074.0</ele><time>2026-03-29T09:43:47.267Z</time></trkpt><trkpt lat="40.3524682" lon="8.9196687"><ele>1073.9999999999998</ele><time>2026-03-29T09:43:48.267Z</time></trkpt><trkpt lat="40.3524119" lon="8.9196044"><ele>1074.0</ele><time>2026-03-29T09:43:49.266Z</time></trkpt><trkpt lat="40.3523604" lon="8.9195407"><ele>1074.0</ele><time>2026-03-29T09:43:50.269Z</time></trkpt><trkpt lat="40.3522884" lon="8.9194786"><ele>1074.0</ele><time>2026-03-29T09:43:52.267Z</time></trkpt><trkpt lat="40.3522151" lon="8.9194807"><ele>1074.0</ele><time>2026-03-29T09:43:54.266Z</time></trkpt><trkpt lat="40.3521528" lon="8.9194141"><ele>1074.0</ele><time>2026-03-29T09:43:56.268Z</time></trkpt><trkpt lat="40.3520457" lon="8.9193239"><ele>1074.0</ele><time>2026-03-29T09:43:58.267Z</time></trkpt><trkpt lat="40.3519548" lon="8.9192646"><ele>1074.3333333333333</ele><time>2026-03-29T09:44:00.266Z</time></trkpt><trkpt lat="40.3518783" lon="8.9192505"><ele>1074.6666666666667</ele><time>2026-03-29T09:44:02.268Z</time></trkpt><trkpt lat="40.351791" lon="8.9192525"><ele>1075.0</ele><time>2026-03-29T09:44:04.267Z</time></trkpt><trkpt lat="40.3517248" lon="8.9192656"><ele>1075.3333333333335</ele><time>2026-03-29T09:44:06.266Z</time></trkpt><trkpt lat="40.3516403" lon="8.9192518"><ele>1075.6666666666667</ele><time>2026-03-29T09:44:08.268Z</time></trkpt><trkpt lat="40.3515488" lon="8.9192546"><ele>1076.0</ele><time>2026-03-29T09:44:11.268Z</time></trkpt><trkpt lat="40.351484" lon="8.9192326"><ele>1076.0</ele><time>2026-03-29T09:44:13.268Z</time></trkpt><trkpt lat="40.3514257" lon="8.9191927"><ele>1076.0</ele><time>2026-03-29T09:44:15.266Z</time></trkpt><trkpt lat="40.3513475" lon="8.919149"><ele>1076.0</ele><time>2026-03-29T09:44:18.267Z</time></trkpt><trkpt lat="40.3512787" lon="8.9191625"><ele>1076.0</ele><time>2026-03-29T09:44:21.267Z</time></trkpt><trkpt lat="40.3512156" lon="8.9191487"><ele>1076.0</ele><time>2026-03-29T09:44:23.267Z</time></trkpt><trkpt lat="40.3511413" lon="8.9190504"><ele>1076.0</ele><time>2026-03-29T09:44:25.267Z</time></trkpt><trkpt lat="40.3510838" lon="8.9189489"><ele>1078.3333333333335</ele><time>2026-03-29T09:44:27.267Z</time></trkpt><trkpt lat="40.3510162" lon="8.9188826"><ele>1080.6666666666667</ele><time>2026-03-29T09:44:29.267Z</time></trkpt><trkpt lat="40.3509573" lon="8.9187888"><ele>1083.0</ele><time>2026-03-29T09:44:31.268Z</time></trkpt><trkpt lat="40.3509089" lon="8.9186911"><ele>1085.3333333333333</ele><time>2026-03-29T09:44:33.267Z</time></trkpt><trkpt lat="40.3508337" lon="8.9186299"><ele>1087.6666666666665</ele><time>2026-03-29T09:44:35.268Z</time></trkpt><trkpt lat="40.3507527" lon="8.9185761"><ele>1090.0</ele><time>2026-03-29T09:44:38.267Z</time></trkpt><trkpt lat="40.3506851" lon="8.9185215"><ele>1090.0</ele><time>2026-03-29T09:44:40.267Z</time></trkpt><trkpt lat="40.3506148" lon="8.918462"><ele>1090.0</ele><time>2026-03-29T09:44:44.267Z</time></trkpt><trkpt lat="40.3505539" lon="8.9183889"><ele>1090.0</ele><time>2026-03-29T09:44:48.268Z</time></trkpt><trkpt lat="40.3504966" lon="8.9183513"><ele>1090.0</ele><time>2026-03-29T09:44:51.268Z</time></trkpt><trkpt lat="40.3504235" lon="8.9183376"><ele>1090.0</ele><time>2026-03-29T09:44:53.267Z</time></trkpt><trkpt lat="40.3503262" lon="8.9182748"><ele>1090.0</ele><time>2026-03-29T09:44:55.267Z</time></trkpt><trkpt lat="40.3502307" lon="8.9182456"><ele>1091.3333333333333</ele><time>2026-03-29T09:44:57.268Z</time></trkpt><trkpt lat="40.3501535" lon="8.9182124"><ele>1092.6666666666665</ele><time>2026-03-29T09:44:59.269Z</time></trkpt><trkpt lat="40.350057" lon="8.9182048"><ele>1094.0</ele><time>2026-03-29T09:45:01.267Z</time></trkpt><trkpt lat="40.3499849" lon="8.9182345"><ele>1095.3333333333333</ele><time>2026-03-29T09:45:03.267Z</time></trkpt><trkpt lat="40.3499204" lon="8.9182879"><ele>1096.6666666666667</ele><time>2026-03-29T09:45:05.267Z</time></trkpt><trkpt lat="40.3498142" lon="8.918279"><ele>1098.0</ele><time>2026-03-29T09:45:07.266Z</time></trkpt><trkpt lat="40.3497494" lon="8.9182674"><ele>1099.0</ele><time>2026-03-29T09:45:09.268Z</time></trkpt><trkpt lat="40.34968" lon="8.9182993"><ele>1100.0</ele><time>2026-03-29T09:45:11.268Z</time></trkpt><trkpt lat="40.3495956" lon="8.9183018"><ele>1101.0</ele><time>2026-03-29T09:45:13.268Z</time></trkpt><trkpt lat="40.3494815" lon="8.9182699"><ele>1102.0</ele><time>2026-03-29T09:46:58.268Z</time></trkpt><trkpt lat="40.3494683" lon="8.9180521"><ele>1103.0</ele><time>2026-03-29T09:47:00.269Z</time></trkpt><trkpt lat="40.3495205" lon="8.9179079"><ele>1103.0</ele><time>2026-03-29T09:47:02.268Z</time></trkpt><trkpt lat="40.3495618" lon="8.9178443"><ele>1103.0</ele><time>2026-03-29T09:47:03.269Z</time></trkpt><trkpt lat="40.349611" lon="8.917789"><ele>1103.0</ele><time>2026-03-29T09:47:04.268Z</time></trkpt><trkpt lat="40.3496584" lon="8.9176511"><ele>1103.0</ele><time>2026-03-29T09:47:06.268Z</time></trkpt><trkpt lat="40.3496858" lon="8.917565"><ele>1103.0</ele><time>2026-03-29T09:47:07.268Z</time></trkpt><trkpt lat="40.3497131" lon="8.9174827"><ele>1103.0</ele><time>2026-03-29T09:47:08.269Z</time></trkpt><trkpt lat="40.3497253" lon="8.9173839"><ele>1101.0</ele><time>2026-03-29T09:47:09.268Z</time></trkpt><trkpt lat="40.3497351" lon="8.9172576"><ele>1099.0</ele><time>2026-03-29T09:47:10.267Z</time></trkpt><trkpt lat="40.3497542" lon="8.9171337"><ele>1097.0</ele><time>2026-03-29T09:47:11.268Z</time></trkpt><trkpt lat="40.3497562" lon="8.9170212"><ele>1095.0</ele><time>2026-03-29T09:47:12.267Z</time></trkpt><trkpt lat="40.3497696" lon="8.9168776"><ele>1093.0</ele><time>2026-03-29T09:47:13.268Z</time></trkpt><trkpt lat="40.3497751" lon="8.9167323"><ele>1091.6666666666665</ele><time>2026-03-29T09:47:14.267Z</time></trkpt><trkpt lat="40.3497807" lon="8.916611"><ele>1090.3333333333333</ele><time>2026-03-29T09:47:15.267Z</time></trkpt><trkpt lat="40.3497909" lon="8.91649"><ele>1089.0</ele><time>2026-03-29T09:47:16.268Z</time></trkpt><trkpt lat="40.3498027" lon="8.9163777"><ele>1087.6666666666667</ele><time>2026-03-29T09:47:17.269Z</time></trkpt><trkpt lat="40.3498044" lon="8.9162568"><ele>1086.3333333333335</ele><time>2026-03-29T09:47:18.266Z</time></trkpt><trkpt lat="40.3498124" lon="8.916152"><ele>1085.0</ele><time>2026-03-29T09:47:19.267Z</time></trkpt><trkpt lat="40.3498374" lon="8.9159956"><ele>1085.0</ele><time>2026-03-29T09:47:21.268Z</time></trkpt><trkpt lat="40.349822" lon="8.915907"><ele>1085.0</ele><time>2026-03-29T09:47:22.268Z</time></trkpt><trkpt lat="40.3497963" lon="8.9157873"><ele>1085.0</ele><time>2026-03-29T09:47:24.268Z</time></trkpt><trkpt lat="40.3498639" lon="8.9157335"><ele>1085.0</ele><time>2026-03-29T09:47:27.268Z</time></trkpt><trkpt lat="40.3499447" lon="8.9157265"><ele>1085.0</ele><time>2026-03-29T09:47:29.269Z</time></trkpt><trkpt lat="40.3500311" lon="8.9157214"><ele>1085.0</ele><time>2026-03-29T09:47:31.269Z</time></trkpt><trkpt lat="40.3501052" lon="8.9156337"><ele>1084.6666666666667</ele><time>2026-03-29T09:47:33.269Z</time></trkpt><trkpt lat="40.3501861" lon="8.9155703"><ele>1084.3333333333335</ele><time>2026-03-29T09:47:35.268Z</time></trkpt><trkpt lat="40.3502366" lon="8.9154903"><ele>1084.0</ele><time>2026-03-29T09:47:37.267Z</time></trkpt><trkpt lat="40.3502333" lon="8.9153879"><ele>1083.6666666666667</ele><time>2026-03-29T09:47:39.268Z</time></trkpt><trkpt lat="40.3502189" lon="8.9152903"><ele>1083.3333333333333</ele><time>2026-03-29T09:47:42.269Z</time></trkpt><trkpt lat="40.3502242" lon="8.9151666"><ele>1083.0</ele><time>2026-03-29T09:47:45.268Z</time></trkpt><trkpt lat="40.3502632" lon="8.9150968"><ele>1081.3333333333333</ele><time>2026-03-29T09:47:47.268Z</time></trkpt><trkpt lat="40.3502997" lon="8.9149939"><ele>1079.6666666666667</ele><time>2026-03-29T09:47:50.267Z</time></trkpt><trkpt lat="40.3503238" lon="8.9148835"><ele>1078.0</ele><time>2026-03-29T09:47:53.269Z</time></trkpt><trkpt lat="40.3503181" lon="8.9147783"><ele>1076.3333333333335</ele><time>2026-03-29T09:47:56.267Z</time></trkpt><trkpt lat="40.3502884" lon="8.9146981"><ele>1074.6666666666667</ele><time>2026-03-29T09:47:59.268Z</time></trkpt><trkpt lat="40.350281" lon="8.9146004"><ele>1073.0</ele><time>2026-03-29T09:48:02.268Z</time></trkpt><trkpt lat="40.3502767" lon="8.9144916"><ele>1073.0</ele><time>2026-03-29T09:48:06.268Z</time></trkpt><trkpt lat="40.3502671" lon="8.9144092"><ele>1073.0</ele><time>2026-03-29T09:48:08.268Z</time></trkpt><trkpt lat="40.3502297" lon="8.9143293"><ele>1073.0</ele><time>2026-03-29T09:48:11.267Z</time></trkpt><trkpt lat="40.3501742" lon="8.9142769"><ele>1073.0</ele><time>2026-03-29T09:48:14.268Z</time></trkpt><trkpt lat="40.3501236" lon="8.9142012"><ele>1073.0</ele><time>2026-03-29T09:48:17.268Z</time></trkpt><trkpt lat="40.350074" lon="8.9141238"><ele>1073.0</ele><time>2026-03-29T09:48:20.268Z</time></trkpt><trkpt lat="40.3500164" lon="8.9140532"><ele>1073.0</ele><time>2026-03-29T09:48:24.269Z</time></trkpt><trkpt lat="40.3499921" lon="8.9139566"><ele>1071.4285714285713</ele><time>2026-03-29T09:48:27.267Z</time></trkpt><trkpt lat="40.3499704" lon="8.9138621"><ele>1069.8571428571427</ele><time>2026-03-29T09:48:30.268Z</time></trkpt><trkpt lat="40.3499656" lon="8.9137711"><ele>1068.2857142857142</ele><time>2026-03-29T09:48:33.269Z</time></trkpt><trkpt lat="40.3499436" lon="8.913691"><ele>1066.7142857142858</ele><time>2026-03-29T09:48:36.268Z</time></trkpt><trkpt lat="40.349918" lon="8.9135897"><ele>1065.1428571428573</ele><time>2026-03-29T09:48:39.268Z</time></trkpt><trkpt lat="40.3498919" lon="8.9135133"><ele>1063.5714285714287</ele><time>2026-03-29T09:48:42.268Z</time></trkpt><trkpt lat="40.3498754" lon="8.9134029"><ele>1062.0</ele><time>2026-03-29T09:49:32.267Z</time></trkpt><trkpt lat="40.3498658" lon="8.9133093"><ele>1062.0</ele><time>2026-03-29T09:49:56.267Z</time></trkpt><trkpt lat="40.3498916" lon="8.9132326"><ele>1062.0</ele><time>2026-03-29T09:50:03.27Z</time></trkpt><trkpt lat="40.3499556" lon="8.9132715"><ele>1062.0</ele><time>2026-03-29T09:50:14.269Z</time></trkpt><trkpt lat="40.3500503" lon="8.9133195"><ele>1062.0</ele><time>2026-03-29T09:50:17.269Z</time></trkpt><trkpt lat="40.350152" lon="8.9133561"><ele>1062.0</ele><time>2026-03-29T09:50:19.269Z</time></trkpt><trkpt lat="40.3502212" lon="8.9133867"><ele>1062.0</ele><time>2026-03-29T09:50:21.269Z</time></trkpt><trkpt lat="40.3502899" lon="8.9134325"><ele>1062.0</ele><time>2026-03-29T09:50:23.268Z</time></trkpt><trkpt lat="40.3503457" lon="8.9134891"><ele>1062.0</ele><time>2026-03-29T09:50:25.269Z</time></trkpt><trkpt lat="40.3504107" lon="8.9134448"><ele>1062.0</ele><time>2026-03-29T09:50:28.269Z</time></trkpt><trkpt lat="40.3504071" lon="8.9133197"><ele>1062.0</ele><time>2026-03-29T09:50:31.267Z</time></trkpt><trkpt lat="40.35038" lon="8.9132242"><ele>1062.0</ele><time>2026-03-29T09:50:33.27Z</time></trkpt><trkpt lat="40.3503275" lon="8.9131222"><ele>1062.0</ele><time>2026-03-29T09:50:35.268Z</time></trkpt><trkpt lat="40.3502681" lon="8.9130183"><ele>1059.1666666666667</ele><time>2026-03-29T09:50:37.268Z</time></trkpt><trkpt lat="40.3502515" lon="8.9129307"><ele>1056.3333333333333</ele><time>2026-03-29T09:50:40.268Z</time></trkpt><trkpt lat="40.3502222" lon="8.9128317"><ele>1053.5</ele><time>2026-03-29T09:50:43.268Z</time></trkpt><trkpt lat="40.3501695" lon="8.9127397"><ele>1050.6666666666665</ele><time>2026-03-29T09:50:45.269Z</time></trkpt><trkpt lat="40.3501087" lon="8.912658"><ele>1047.8333333333333</ele><time>2026-03-29T09:50:47.268Z</time></trkpt><trkpt lat="40.3500531" lon="8.9125677"><ele>1045.0</ele><time>2026-03-29T09:50:50.27Z</time></trkpt><trkpt lat="40.3500282" lon="8.9124724"><ele>1043.2857142857142</ele><time>2026-03-29T09:50:52.267Z</time></trkpt><trkpt lat="40.3500007" lon="8.9123753"><ele>1041.5714285714284</ele><time>2026-03-29T09:50:54.267Z</time></trkpt><trkpt lat="40.3499889" lon="8.9122877"><ele>1039.857142857143</ele><time>2026-03-29T09:50:57.27Z</time></trkpt><trkpt lat="40.3499538" lon="8.9122162"><ele>1038.142857142857</ele><time>2026-03-29T09:51:00.27Z</time></trkpt><trkpt lat="40.3499153" lon="8.9121306"><ele>1036.4285714285716</ele><time>2026-03-29T09:51:02.268Z</time></trkpt><trkpt lat="40.3499151" lon="8.9120256"><ele>1034.7142857142858</ele><time>2026-03-29T09:51:04.268Z</time></trkpt><trkpt lat="40.3499345" lon="8.9119294"><ele>1033.0</ele><time>2026-03-29T09:51:06.269Z</time></trkpt><trkpt lat="40.3499535" lon="8.9120102"><ele>1033.0</ele><time>2026-03-29T09:51:07.269Z</time></trkpt><trkpt lat="40.3500057" lon="8.9121195"><ele>1033.0</ele><time>2026-03-29T09:51:28.268Z</time></trkpt><trkpt lat="40.350127" lon="8.9122783"><ele>1033.0</ele><time>2026-03-29T09:51:30.269Z</time></trkpt><trkpt lat="40.3502314" lon="8.9123558"><ele>1033.0</ele><time>2026-03-29T09:51:31.268Z</time></trkpt><trkpt lat="40.3502971" lon="8.9124231"><ele>1033.0</ele><time>2026-03-29T09:51:32.269Z</time></trkpt><trkpt lat="40.3504231" lon="8.9125479"><ele>1033.0</ele><time>2026-03-29T09:51:33.27Z</time></trkpt><trkpt lat="40.3505434" lon="8.9126846"><ele>1033.0</ele><time>2026-03-29T09:51:34.27Z</time></trkpt><trkpt lat="40.350676" lon="8.9128024"><ele>1031.3333333333333</ele><time>2026-03-29T09:51:35.269Z</time></trkpt><trkpt lat="40.3508" lon="8.9129715"><ele>1029.6666666666667</ele><time>2026-03-29T09:51:36.269Z</time></trkpt><trkpt lat="40.3508836" lon="8.9131725"><ele>1028.0</ele><time>2026-03-29T09:51:37.27Z</time></trkpt><trkpt lat="40.3509988" lon="8.91329"><ele>1033.3333333333335</ele><time>2026-03-29T09:51:38.268Z</time></trkpt><trkpt lat="40.3511027" lon="8.913427"><ele>1038.6666666666667</ele><time>2026-03-29T09:51:39.269Z</time></trkpt><trkpt lat="40.3512352" lon="8.913595"><ele>1044.0</ele><time>2026-03-29T09:51:40.269Z</time></trkpt><trkpt lat="40.3513464" lon="8.9137524"><ele>1037.0</ele><time>2026-03-29T09:51:41.268Z</time></trkpt><trkpt lat="40.3514454" lon="8.9138984"><ele>1030.0</ele><time>2026-03-29T09:51:42.269Z</time></trkpt><trkpt lat="40.3515568" lon="8.9140534"><ele>1023.0</ele><time>2026-03-29T09:51:43.269Z</time></trkpt><trkpt lat="40.3516653" lon="8.9142156"><ele>1025.6666666666667</ele><time>2026-03-29T09:51:44.269Z</time></trkpt><trkpt lat="40.3517632" lon="8.9143797"><ele>1028.3333333333335</ele><time>2026-03-29T09:51:45.268Z</time></trkpt><trkpt lat="40.3519064" lon="8.914535"><ele>1031.0</ele><time>2026-03-29T09:51:46.268Z</time></trkpt><trkpt lat="40.3520188" lon="8.9147126"><ele>1031.0</ele><time>2026-03-29T09:51:47.268Z</time></trkpt><trkpt lat="40.3521455" lon="8.9148841"><ele>1031.0</ele><time>2026-03-29T09:51:48.269Z</time></trkpt><trkpt lat="40.3522591" lon="8.9150477"><ele>1031.0</ele><time>2026-03-29T09:51:49.269Z</time></trkpt><trkpt lat="40.3523682" lon="8.9152062"><ele>1028.0</ele><time>2026-03-29T09:51:50.268Z</time></trkpt><trkpt lat="40.3524664" lon="8.9153618"><ele>1025.0</ele><time>2026-03-29T09:51:51.269Z</time></trkpt><trkpt lat="40.3525687" lon="8.9155026"><ele>1022.0</ele><time>2026-03-29T09:51:52.268Z</time></trkpt><trkpt lat="40.3526751" lon="8.9156474"><ele>1022.0</ele><time>2026-03-29T09:51:53.268Z</time></trkpt><trkpt lat="40.3527711" lon="8.9157926"><ele>1022.0</ele><time>2026-03-29T09:51:54.269Z</time></trkpt><trkpt lat="40.3528764" lon="8.9159195"><ele>1022.0</ele><time>2026-03-29T09:51:55.269Z</time></trkpt><trkpt lat="40.3529713" lon="8.9160537"><ele>1022.0</ele><time>2026-03-29T09:51:56.269Z</time></trkpt><trkpt lat="40.3530698" lon="8.9161921"><ele>1021.5</ele><time>2026-03-29T09:51:57.269Z</time></trkpt><trkpt lat="40.3531751" lon="8.9163325"><ele>1021.0</ele><time>2026-03-29T09:51:58.269Z</time></trkpt><trkpt lat="40.3532595" lon="8.9164645"><ele>1020.5</ele><time>2026-03-29T09:51:59.268Z</time></trkpt><trkpt lat="40.3533461" lon="8.9166025"><ele>1020.0</ele><time>2026-03-29T09:52:00.27Z</time></trkpt><trkpt lat="40.3534372" lon="8.9167235"><ele>1022.25</ele><time>2026-03-29T09:52:01.268Z</time></trkpt><trkpt lat="40.3535254" lon="8.9168384"><ele>1024.5</ele><time>2026-03-29T09:52:02.269Z</time></trkpt><trkpt lat="40.3536097" lon="8.9169487"><ele>1026.75</ele><time>2026-03-29T09:52:03.269Z</time></trkpt><trkpt lat="40.3536988" lon="8.9170645"><ele>1029.0</ele><time>2026-03-29T09:52:04.268Z</time></trkpt><trkpt lat="40.3537857" lon="8.9171772"><ele>1028.75</ele><time>2026-03-29T09:52:05.27Z</time></trkpt><trkpt lat="40.3538786" lon="8.9172883"><ele>1028.5</ele><time>2026-03-29T09:52:06.268Z</time></trkpt><trkpt lat="40.3539762" lon="8.9173948"><ele>1028.25</ele><time>2026-03-29T09:52:07.268Z</time></trkpt><trkpt lat="40.3540745" lon="8.9174943"><ele>1028.0</ele><time>2026-03-29T09:52:08.27Z</time></trkpt><trkpt lat="40.3541732" lon="8.9175912"><ele>1028.0</ele><time>2026-03-29T09:52:09.269Z</time></trkpt><trkpt lat="40.354276" lon="8.9176856"><ele>1028.0</ele><time>2026-03-29T09:52:10.269Z</time></trkpt><trkpt lat="40.3543846" lon="8.9177837"><ele>1028.0</ele><time>2026-03-29T09:52:11.27Z</time></trkpt><trkpt lat="40.3544941" lon="8.917885"><ele>1028.0</ele><time>2026-03-29T09:52:12.269Z</time></trkpt><trkpt lat="40.3546048" lon="8.9179877"><ele>1025.5</ele><time>2026-03-29T09:52:13.269Z</time></trkpt><trkpt lat="40.3547174" lon="8.9180877"><ele>1023.0</ele><time>2026-03-29T09:52:14.268Z</time></trkpt><trkpt lat="40.3548306" lon="8.9181915"><ele>1020.5</ele><time>2026-03-29T09:52:15.269Z</time></trkpt><trkpt lat="40.3549418" lon="8.9182953"><ele>1018.0</ele><time>2026-03-29T09:52:16.268Z</time></trkpt><trkpt lat="40.3550469" lon="8.9183941"><ele>1019.75</ele><time>2026-03-29T09:52:17.269Z</time></trkpt><trkpt lat="40.3551478" lon="8.918489"><ele>1021.5</ele><time>2026-03-29T09:52:18.269Z</time></trkpt><trkpt lat="40.3552425" lon="8.9185779"><ele>1023.25</ele><time>2026-03-29T09:52:19.269Z</time></trkpt><trkpt lat="40.3553309" lon="8.9186606"><ele>1025.0</ele><time>2026-03-29T09:52:20.269Z</time></trkpt><trkpt lat="40.3554168" lon="8.9187393"><ele>1025.0</ele><time>2026-03-29T09:52:21.27Z</time></trkpt><trkpt lat="40.3555049" lon="8.9188257"><ele>1025.0</ele><time>2026-03-29T09:52:22.269Z</time></trkpt><trkpt lat="40.3555973" lon="8.9189128"><ele>1025.0</ele><time>2026-03-29T09:52:23.268Z</time></trkpt><trkpt lat="40.3556956" lon="8.9190072"><ele>1025.0</ele><time>2026-03-29T09:52:24.268Z</time></trkpt><trkpt lat="40.3557974" lon="8.9191065"><ele>1023.25</ele><time>2026-03-29T09:52:25.269Z</time></trkpt><trkpt lat="40.3559018" lon="8.9192114"><ele>1021.5</ele><time>2026-03-29T09:52:26.269Z</time></trkpt><trkpt lat="40.3560052" lon="8.9193055"><ele>1019.75</ele><time>2026-03-29T09:52:27.268Z</time></trkpt><trkpt lat="40.3561057" lon="8.9194069"><ele>1018.0</ele><time>2026-03-29T09:52:28.268Z</time></trkpt><trkpt lat="40.3562099" lon="8.9195111"><ele>1018.0</ele><time>2026-03-29T09:52:29.269Z</time></trkpt><trkpt lat="40.3563188" lon="8.9196224"><ele>1018.0</ele><time>2026-03-29T09:52:30.269Z</time></trkpt><trkpt lat="40.3564276" lon="8.9197613"><ele>1018.0</ele><time>2026-03-29T09:52:31.269Z</time></trkpt><trkpt lat="40.3565321" lon="8.9199259"><ele>1016.0</ele><time>2026-03-29T09:52:32.269Z</time></trkpt><trkpt lat="40.3566226" lon="8.92012"><ele>1014.0</ele><time>2026-03-29T09:52:33.27Z</time></trkpt><trkpt lat="40.3567147" lon="8.9203429"><ele>1012.0</ele><time>2026-03-29T09:52:34.269Z</time></trkpt><trkpt lat="40.3568024" lon="8.9205707"><ele>1012.0</ele><time>2026-03-29T09:52:35.27Z</time></trkpt><trkpt lat="40.3568845" lon="8.9208014"><ele>1012.0</ele><time>2026-03-29T09:52:36.269Z</time></trkpt><trkpt lat="40.3569764" lon="8.9210356"><ele>1012.0</ele><time>2026-03-29T09:52:37.27Z</time></trkpt><trkpt lat="40.3570706" lon="8.9212646"><ele>1013.0</ele><time>2026-03-29T09:52:38.268Z</time></trkpt><trkpt lat="40.3571574" lon="8.9214903"><ele>1014.0</ele><time>2026-03-29T09:52:39.268Z</time></trkpt><trkpt lat="40.357244" lon="8.9217036"><ele>1015.0</ele><time>2026-03-29T09:52:40.268Z</time></trkpt><trkpt lat="40.3573326" lon="8.9219206"><ele>1009.0</ele><time>2026-03-29T09:52:41.269Z</time></trkpt><trkpt lat="40.3574232" lon="8.9221423"><ele>1003.0</ele><time>2026-03-29T09:52:42.268Z</time></trkpt><trkpt lat="40.3575136" lon="8.922358"><ele>997.0</ele><time>2026-03-29T09:52:43.269Z</time></trkpt><trkpt lat="40.3576047" lon="8.922563"><ele>998.6666666666666</ele><time>2026-03-29T09:52:44.268Z</time></trkpt><trkpt lat="40.3576864" lon="8.9227726"><ele>1000.3333333333333</ele><time>2026-03-29T09:52:45.27Z</time></trkpt><trkpt lat="40.3577798" lon="8.9229501"><ele>1002.0</ele><time>2026-03-29T09:52:46.269Z</time></trkpt><trkpt lat="40.3578582" lon="8.9231501"><ele>1002.0</ele><time>2026-03-29T09:52:47.268Z</time></trkpt><trkpt lat="40.3579334" lon="8.9233479"><ele>1002.0</ele><time>2026-03-29T09:52:48.269Z</time></trkpt><trkpt lat="40.3580168" lon="8.9235382"><ele>1002.0</ele><time>2026-03-29T09:52:49.27Z</time></trkpt><trkpt lat="40.3580829" lon="8.9237281"><ele>997.0</ele><time>2026-03-29T09:52:50.269Z</time></trkpt><trkpt lat="40.3581567" lon="8.9239191"><ele>992.0</ele><time>2026-03-29T09:52:51.27Z</time></trkpt><trkpt lat="40.3582249" lon="8.9241006"><ele>987.0</ele><time>2026-03-29T09:52:52.27Z</time></trkpt><trkpt lat="40.3582936" lon="8.9242793"><ele>987.0</ele><time>2026-03-29T09:52:53.268Z</time></trkpt><trkpt lat="40.3583636" lon="8.9244596"><ele>987.0</ele><time>2026-03-29T09:52:54.269Z</time></trkpt><trkpt lat="40.3584322" lon="8.9246373"><ele>987.0</ele><time>2026-03-29T09:52:55.269Z</time></trkpt><trkpt lat="40.3585008" lon="8.9247958"><ele>987.0</ele><time>2026-03-29T09:52:56.268Z</time></trkpt><trkpt lat="40.3585686" lon="8.9249777"><ele>989.0</ele><time>2026-03-29T09:52:57.268Z</time></trkpt><trkpt lat="40.3586369" lon="8.92517"><ele>991.0</ele><time>2026-03-29T09:52:58.269Z</time></trkpt><trkpt lat="40.3587081" lon="8.9253674"><ele>993.0</ele><time>2026-03-29T09:52:59.269Z</time></trkpt><trkpt lat="40.3587666" lon="8.9255747"><ele>993.0</ele><time>2026-03-29T09:53:00.27Z</time></trkpt><trkpt lat="40.3588148" lon="8.9257696"><ele>993.0</ele><time>2026-03-29T09:53:01.269Z</time></trkpt><trkpt lat="40.3588631" lon="8.9259526"><ele>993.0</ele><time>2026-03-29T09:53:02.269Z</time></trkpt><trkpt lat="40.3589097" lon="8.9261338"><ele>993.0</ele><time>2026-03-29T09:53:03.268Z</time></trkpt><trkpt lat="40.3589539" lon="8.9263062"><ele>990.5</ele><time>2026-03-29T09:53:04.269Z</time></trkpt><trkpt lat="40.3589995" lon="8.9264826"><ele>988.0</ele><time>2026-03-29T09:53:05.269Z</time></trkpt><trkpt lat="40.3590475" lon="8.9266636"><ele>985.5</ele><time>2026-03-29T09:53:06.268Z</time></trkpt><trkpt lat="40.3590917" lon="8.926855"><ele>983.0</ele><time>2026-03-29T09:53:07.27Z</time></trkpt><trkpt lat="40.3591348" lon="8.9270493"><ele>983.0</ele><time>2026-03-29T09:53:08.269Z</time></trkpt><trkpt lat="40.359183" lon="8.9272448"><ele>983.0</ele><time>2026-03-29T09:53:09.268Z</time></trkpt><trkpt lat="40.3592304" lon="8.9274331"><ele>983.0</ele><time>2026-03-29T09:53:10.269Z</time></trkpt><trkpt lat="40.3592752" lon="8.9276146"><ele>984.0</ele><time>2026-03-29T09:53:11.269Z</time></trkpt><trkpt lat="40.3593233" lon="8.9277963"><ele>985.0</ele><time>2026-03-29T09:53:12.269Z</time></trkpt><trkpt lat="40.3593833" lon="8.9279834"><ele>986.0</ele><time>2026-03-29T09:53:13.27Z</time></trkpt><trkpt lat="40.359469" lon="8.9281772"><ele>986.0</ele><time>2026-03-29T09:53:14.268Z</time></trkpt><trkpt lat="40.3596287" lon="8.9285602"><ele>986.0</ele><time>2026-03-29T09:53:16.27Z</time></trkpt><trkpt lat="40.3597173" lon="8.9287541"><ele>983.0</ele><time>2026-03-29T09:53:17.27Z</time></trkpt><trkpt lat="40.3598052" lon="8.9289664"><ele>980.0</ele><time>2026-03-29T09:53:18.269Z</time></trkpt><trkpt lat="40.3598966" lon="8.9291688"><ele>977.0</ele><time>2026-03-29T09:53:19.269Z</time></trkpt><trkpt lat="40.3599853" lon="8.9293786"><ele>977.0</ele><time>2026-03-29T09:53:20.268Z</time></trkpt><trkpt lat="40.3600788" lon="8.9295882"><ele>977.0</ele><time>2026-03-29T09:53:21.27Z</time></trkpt><trkpt lat="40.3601628" lon="8.9297974"><ele>977.0</ele><time>2026-03-29T09:53:22.268Z</time></trkpt><trkpt lat="40.3602431" lon="8.9299873"><ele>979.6666666666667</ele><time>2026-03-29T09:53:23.269Z</time></trkpt><trkpt lat="40.3603291" lon="8.9301869"><ele>982.3333333333333</ele><time>2026-03-29T09:53:24.27Z</time></trkpt><trkpt lat="40.3604122" lon="8.9303664"><ele>985.0</ele><time>2026-03-29T09:53:25.269Z</time></trkpt><trkpt lat="40.3604855" lon="8.9305399"><ele>983.75</ele><time>2026-03-29T09:53:26.269Z</time></trkpt><trkpt lat="40.3605583" lon="8.9307032"><ele>982.5</ele><time>2026-03-29T09:53:27.269Z</time></trkpt><trkpt lat="40.3606284" lon="8.9308715"><ele>981.25</ele><time>2026-03-29T09:53:28.268Z</time></trkpt><trkpt lat="40.3606953" lon="8.9310387"><ele>980.0</ele><time>2026-03-29T09:53:29.268Z</time></trkpt><trkpt lat="40.360761" lon="8.931187"><ele>980.0</ele><time>2026-03-29T09:53:30.269Z</time></trkpt><trkpt lat="40.3608307" lon="8.9313582"><ele>980.0</ele><time>2026-03-29T09:53:31.27Z</time></trkpt><trkpt lat="40.360909" lon="8.9315405"><ele>980.0</ele><time>2026-03-29T09:53:32.269Z</time></trkpt><trkpt lat="40.3609879" lon="8.9317304"><ele>982.6666666666667</ele><time>2026-03-29T09:53:33.268Z</time></trkpt><trkpt lat="40.3610658" lon="8.9319281"><ele>985.3333333333333</ele><time>2026-03-29T09:53:34.269Z</time></trkpt><trkpt lat="40.3611391" lon="8.9321195"><ele>988.0</ele><time>2026-03-29T09:53:35.27Z</time></trkpt><trkpt lat="40.3612236" lon="8.9323025"><ele>988.0</ele><time>2026-03-29T09:53:36.269Z</time></trkpt><trkpt lat="40.3613163" lon="8.9324797"><ele>988.0</ele><time>2026-03-29T09:53:37.269Z</time></trkpt><trkpt lat="40.3614222" lon="8.9326397"><ele>988.0</ele><time>2026-03-29T09:53:38.269Z</time></trkpt><trkpt lat="40.3615664" lon="8.9327935"><ele>987.0</ele><time>2026-03-29T09:53:39.269Z</time></trkpt><trkpt lat="40.361718" lon="8.9329428"><ele>986.0</ele><time>2026-03-29T09:53:40.269Z</time></trkpt><trkpt lat="40.3618749" lon="8.9330906"><ele>985.0</ele><time>2026-03-29T09:53:41.268Z</time></trkpt><trkpt lat="40.3620317" lon="8.9332336"><ele>985.0</ele><time>2026-03-29T09:53:42.269Z</time></trkpt><trkpt lat="40.362187" lon="8.933381"><ele>985.0</ele><time>2026-03-29T09:53:43.269Z</time></trkpt><trkpt lat="40.3623368" lon="8.9335245"><ele>985.0</ele><time>2026-03-29T09:53:44.27Z</time></trkpt><trkpt lat="40.3624885" lon="8.9336714"><ele>983.6666666666666</ele><time>2026-03-29T09:53:45.27Z</time></trkpt><trkpt lat="40.3626393" lon="8.9338149"><ele>982.3333333333333</ele><time>2026-03-29T09:53:46.268Z</time></trkpt><trkpt lat="40.362785" lon="8.9339536"><ele>981.0</ele><time>2026-03-29T09:53:47.268Z</time></trkpt><trkpt lat="40.3629356" lon="8.9340985"><ele>979.6666666666667</ele><time>2026-03-29T09:53:48.268Z</time></trkpt><trkpt lat="40.3630824" lon="8.93424"><ele>978.3333333333334</ele><time>2026-03-29T09:53:49.27Z</time></trkpt><trkpt lat="40.3632246" lon="8.9343821"><ele>977.0</ele><time>2026-03-29T09:53:50.269Z</time></trkpt><trkpt lat="40.363381" lon="8.9345275"><ele>977.0</ele><time>2026-03-29T09:53:51.269Z</time></trkpt><trkpt lat="40.3635342" lon="8.9346719"><ele>977.0</ele><time>2026-03-29T09:53:52.271Z</time></trkpt><trkpt lat="40.3636936" lon="8.9348208"><ele>977.0</ele><time>2026-03-29T09:53:53.269Z</time></trkpt><trkpt lat="40.3638444" lon="8.9349629"><ele>975.6666666666667</ele><time>2026-03-29T09:53:54.27Z</time></trkpt><trkpt lat="40.364" lon="8.9351099"><ele>974.3333333333333</ele><time>2026-03-29T09:53:55.269Z</time></trkpt><trkpt lat="40.3641541" lon="8.935257"><ele>973.0</ele><time>2026-03-29T09:53:56.268Z</time></trkpt><trkpt lat="40.3643044" lon="8.9353975"><ele>973.0</ele><time>2026-03-29T09:53:57.269Z</time></trkpt><trkpt lat="40.3644525" lon="8.9355437"><ele>973.0</ele><time>2026-03-29T09:53:58.268Z</time></trkpt><trkpt lat="40.3645989" lon="8.935691"><ele>973.0</ele><time>2026-03-29T09:53:59.268Z</time></trkpt><trkpt lat="40.3647536" lon="8.9358382"><ele>971.6666666666666</ele><time>2026-03-29T09:54:00.27Z</time></trkpt><trkpt lat="40.3648974" lon="8.9359837"><ele>970.3333333333333</ele><time>2026-03-29T09:54:01.269Z</time></trkpt><trkpt lat="40.3650444" lon="8.9361251"><ele>969.0</ele><time>2026-03-29T09:54:02.269Z</time></trkpt><trkpt lat="40.3651907" lon="8.9362679"><ele>969.0</ele><time>2026-03-29T09:54:03.268Z</time></trkpt><trkpt lat="40.3653382" lon="8.9364037"><ele>969.0</ele><time>2026-03-29T09:54:04.268Z</time></trkpt><trkpt lat="40.365484" lon="8.9365444"><ele>969.0</ele><time>2026-03-29T09:54:05.269Z</time></trkpt><trkpt lat="40.3656314" lon="8.9366888"><ele>967.3333333333333</ele><time>2026-03-29T09:54:06.27Z</time></trkpt><trkpt lat="40.3657781" lon="8.9368315"><ele>965.6666666666666</ele><time>2026-03-29T09:54:07.269Z</time></trkpt><trkpt lat="40.3659285" lon="8.9369741"><ele>964.0</ele><time>2026-03-29T09:54:08.269Z</time></trkpt><trkpt lat="40.3660831" lon="8.9371156"><ele>964.0</ele><time>2026-03-29T09:54:09.269Z</time></trkpt><trkpt lat="40.3662281" lon="8.9372545"><ele>964.0</ele><time>2026-03-29T09:54:10.268Z</time></trkpt><trkpt lat="40.3663661" lon="8.9373928"><ele>964.0</ele><time>2026-03-29T09:54:11.27Z</time></trkpt><trkpt lat="40.3665118" lon="8.9375326"><ele>964.3333333333333</ele><time>2026-03-29T09:54:12.268Z</time></trkpt><trkpt lat="40.366656" lon="8.9376644"><ele>964.6666666666667</ele><time>2026-03-29T09:54:13.269Z</time></trkpt><trkpt lat="40.3667935" lon="8.937797"><ele>965.0</ele><time>2026-03-29T09:54:14.27Z</time></trkpt><trkpt lat="40.3669251" lon="8.9379212"><ele>965.0</ele><time>2026-03-29T09:54:15.268Z</time></trkpt><trkpt lat="40.367054" lon="8.9380546"><ele>965.0</ele><time>2026-03-29T09:54:16.269Z</time></trkpt><trkpt lat="40.3671816" lon="8.9381858"><ele>965.0</ele><time>2026-03-29T09:54:17.268Z</time></trkpt><trkpt lat="40.3673066" lon="8.9383343"><ele>963.0</ele><time>2026-03-29T09:54:18.27Z</time></trkpt><trkpt lat="40.3674144" lon="8.9385062"><ele>961.0</ele><time>2026-03-29T09:54:19.269Z</time></trkpt><trkpt lat="40.36751" lon="8.9386843"><ele>959.0</ele><time>2026-03-29T09:54:20.27Z</time></trkpt><trkpt lat="40.3675902" lon="8.9388519"><ele>959.0</ele><time>2026-03-29T09:54:21.269Z</time></trkpt><trkpt lat="40.3676807" lon="8.9390281"><ele>959.0</ele><time>2026-03-29T09:54:22.269Z</time></trkpt><trkpt lat="40.3677582" lon="8.9391921"><ele>959.0</ele><time>2026-03-29T09:54:23.269Z</time></trkpt><trkpt lat="40.3678277" lon="8.9393549"><ele>959.0</ele><time>2026-03-29T09:54:24.268Z</time></trkpt><trkpt lat="40.3678796" lon="8.9395286"><ele>959.0</ele><time>2026-03-29T09:54:25.269Z</time></trkpt><trkpt lat="40.3678975" lon="8.9397164"><ele>959.0</ele><time>2026-03-29T09:54:26.27Z</time></trkpt><trkpt lat="40.3678785" lon="8.9399282"><ele>959.0</ele><time>2026-03-29T09:54:27.27Z</time></trkpt><trkpt lat="40.3678421" lon="8.9401489"><ele>957.6666666666667</ele><time>2026-03-29T09:54:28.268Z</time></trkpt><trkpt lat="40.3678055" lon="8.9403821"><ele>956.3333333333333</ele><time>2026-03-29T09:54:29.27Z</time></trkpt><trkpt lat="40.3677638" lon="8.9406296"><ele>955.0</ele><time>2026-03-29T09:54:30.27Z</time></trkpt><trkpt lat="40.367724" lon="8.9408773"><ele>954.0</ele><time>2026-03-29T09:54:31.269Z</time></trkpt><trkpt lat="40.3676827" lon="8.9411084"><ele>953.0</ele><time>2026-03-29T09:54:32.269Z</time></trkpt><trkpt lat="40.3676429" lon="8.9413247"><ele>952.0</ele><time>2026-03-29T09:54:33.269Z</time></trkpt><trkpt lat="40.3676106" lon="8.9415327"><ele>950.75</ele><time>2026-03-29T09:54:34.27Z</time></trkpt><trkpt lat="40.367576" lon="8.9417356"><ele>949.5</ele><time>2026-03-29T09:54:35.269Z</time></trkpt><trkpt lat="40.3675428" lon="8.9419259"><ele>948.25</ele><time>2026-03-29T09:54:36.27Z</time></trkpt><trkpt lat="40.3675136" lon="8.9421023"><ele>947.0</ele><time>2026-03-29T09:54:37.271Z</time></trkpt><trkpt lat="40.3674803" lon="8.9422713"><ele>947.0</ele><time>2026-03-29T09:54:38.268Z</time></trkpt><trkpt lat="40.367452" lon="8.9424309"><ele>947.0</ele><time>2026-03-29T09:54:39.268Z</time></trkpt><trkpt lat="40.3674191" lon="8.9425745"><ele>947.0</ele><time>2026-03-29T09:54:40.268Z</time></trkpt><trkpt lat="40.3673804" lon="8.9427094"><ele>947.0</ele><time>2026-03-29T09:54:41.27Z</time></trkpt><trkpt lat="40.3673312" lon="8.9428312"><ele>946.1666666666667</ele><time>2026-03-29T09:54:42.27Z</time></trkpt><trkpt lat="40.3672777" lon="8.9429245"><ele>945.3333333333334</ele><time>2026-03-29T09:54:43.269Z</time></trkpt><trkpt lat="40.3672342" lon="8.9429973"><ele>944.5</ele><time>2026-03-29T09:54:44.269Z</time></trkpt><trkpt lat="40.3671917" lon="8.9431081"><ele>943.6666666666667</ele><time>2026-03-29T09:54:46.269Z</time></trkpt><trkpt lat="40.3672316" lon="8.943183"><ele>942.8333333333334</ele><time>2026-03-29T09:54:49.269Z</time></trkpt><trkpt lat="40.3673135" lon="8.9431676"><ele>942.0</ele><time>2026-03-29T09:55:14.268Z</time></trkpt><trkpt lat="40.3674049" lon="8.9431631"><ele>942.0</ele><time>2026-03-29T09:56:37.269Z</time></trkpt><trkpt lat="40.3674918" lon="8.9431659"><ele>942.0</ele><time>2026-03-29T09:56:39.27Z</time></trkpt><trkpt lat="40.3675981" lon="8.9431334"><ele>942.0</ele><time>2026-03-29T09:56:41.27Z</time></trkpt><trkpt lat="40.3676689" lon="8.9431279"><ele>942.0</ele><time>2026-03-29T09:56:42.27Z</time></trkpt><trkpt lat="40.3677385" lon="8.9431227"><ele>942.0</ele><time>2026-03-29T09:56:43.271Z</time></trkpt><trkpt lat="40.3678623" lon="8.9431193"><ele>942.0</ele><time>2026-03-29T09:56:45.27Z</time></trkpt><trkpt lat="40.3679293" lon="8.9431401"><ele>942.0</ele><time>2026-03-29T09:56:46.27Z</time></trkpt><trkpt lat="40.3680083" lon="8.9431701"><ele>942.0</ele><time>2026-03-29T09:56:47.269Z</time></trkpt><trkpt lat="40.3680792" lon="8.943207"><ele>942.0</ele><time>2026-03-29T09:56:48.27Z</time></trkpt><trkpt lat="40.3681546" lon="8.9432441"><ele>942.0</ele><time>2026-03-29T09:56:49.269Z</time></trkpt><trkpt lat="40.3682237" lon="8.9432805"><ele>942.0</ele><time>2026-03-29T09:56:50.271Z</time></trkpt><trkpt lat="40.3682966" lon="8.9433317"><ele>940.4285714285716</ele><time>2026-03-29T09:56:51.27Z</time></trkpt><trkpt lat="40.3683696" lon="8.9433899"><ele>938.8571428571429</ele><time>2026-03-29T09:56:52.269Z</time></trkpt><trkpt lat="40.368432" lon="8.9434504"><ele>937.2857142857143</ele><time>2026-03-29T09:56:53.27Z</time></trkpt><trkpt lat="40.3684852" lon="8.943518"><ele>935.7142857142858</ele><time>2026-03-29T09:56:54.27Z</time></trkpt><trkpt lat="40.3685337" lon="8.9435906"><ele>934.1428571428571</ele><time>2026-03-29T09:56:55.27Z</time></trkpt><trkpt lat="40.3685736" lon="8.9436698"><ele>932.5714285714286</ele><time>2026-03-29T09:56:56.27Z</time></trkpt><trkpt lat="40.3685998" lon="8.9437494"><ele>931.0</ele><time>2026-03-29T09:56:57.269Z</time></trkpt><trkpt lat="40.3686407" lon="8.9438269"><ele>931.0</ele><time>2026-03-29T09:56:58.27Z</time></trkpt><trkpt lat="40.3686961" lon="8.9438996"><ele>931.0</ele><time>2026-03-29T09:56:59.271Z</time></trkpt><trkpt lat="40.3687488" lon="8.9439774"><ele>931.0</ele><time>2026-03-29T09:57:00.268Z</time></trkpt><trkpt lat="40.3688006" lon="8.9440583"><ele>931.0</ele><time>2026-03-29T09:57:01.269Z</time></trkpt><trkpt lat="40.3688487" lon="8.9441338"><ele>931.0</ele><time>2026-03-29T09:57:02.27Z</time></trkpt><trkpt lat="40.3689028" lon="8.9441926"><ele>931.0</ele><time>2026-03-29T09:57:03.27Z</time></trkpt><trkpt lat="40.3689618" lon="8.9442283"><ele>931.0</ele><time>2026-03-29T09:57:04.271Z</time></trkpt><trkpt lat="40.369061" lon="8.9442749"><ele>930.4</ele><time>2026-03-29T09:57:06.27Z</time></trkpt><trkpt lat="40.3691751" lon="8.9443319"><ele>929.8</ele><time>2026-03-29T09:57:08.271Z</time></trkpt><trkpt lat="40.3692437" lon="8.9443438"><ele>929.1999999999999</ele><time>2026-03-29T09:57:09.269Z</time></trkpt><trkpt lat="40.3693558" lon="8.944309"><ele>928.5999999999999</ele><time>2026-03-29T09:57:11.27Z</time></trkpt><trkpt lat="40.3694527" lon="8.9442288"><ele>928.0</ele><time>2026-03-29T09:57:13.268Z</time></trkpt><trkpt lat="40.369487" lon="8.9441486"><ele>928.0</ele><time>2026-03-29T09:57:14.269Z</time></trkpt><trkpt lat="40.3695204" lon="8.9440781"><ele>928.0</ele><time>2026-03-29T09:57:15.271Z</time></trkpt><trkpt lat="40.369568" lon="8.9439537"><ele>928.0</ele><time>2026-03-29T09:57:17.271Z</time></trkpt><trkpt lat="40.3695653" lon="8.9438428"><ele>928.0</ele><time>2026-03-29T09:57:19.271Z</time></trkpt><trkpt lat="40.3695712" lon="8.9437026"><ele>928.0</ele><time>2026-03-29T09:57:21.269Z</time></trkpt><trkpt lat="40.3696119" lon="8.943583"><ele>927.9999999999999</ele><time>2026-03-29T09:57:23.27Z</time></trkpt><trkpt lat="40.3696595" lon="8.9434913"><ele>928.0</ele><time>2026-03-29T09:57:25.271Z</time></trkpt><trkpt lat="40.3697037" lon="8.9434092"><ele>928.0</ele><time>2026-03-29T09:57:27.27Z</time></trkpt><trkpt lat="40.3697087" lon="8.9432989"><ele>928.0</ele><time>2026-03-29T09:57:29.269Z</time></trkpt><trkpt lat="40.3697126" lon="8.943194"><ele>927.9999999999999</ele><time>2026-03-29T09:57:31.27Z</time></trkpt><trkpt lat="40.3697187" lon="8.9430729"><ele>928.0</ele><time>2026-03-29T09:57:33.269Z</time></trkpt><trkpt lat="40.3697125" lon="8.9429708"><ele>926.3333333333333</ele><time>2026-03-29T09:57:35.269Z</time></trkpt><trkpt lat="40.369712" lon="8.9428708"><ele>924.6666666666666</ele><time>2026-03-29T09:57:37.27Z</time></trkpt><trkpt lat="40.3697156" lon="8.942784"><ele>923.0</ele><time>2026-03-29T09:57:39.27Z</time></trkpt><trkpt lat="40.3697321" lon="8.9426487"><ele>921.3333333333333</ele><time>2026-03-29T09:57:42.271Z</time></trkpt><trkpt lat="40.3697486" lon="8.9425049"><ele>919.6666666666666</ele><time>2026-03-29T09:57:44.269Z</time></trkpt><trkpt lat="40.3697722" lon="8.9424268"><ele>918.0</ele><time>2026-03-29T09:57:46.27Z</time></trkpt><trkpt lat="40.3698271" lon="8.9423461"><ele>917.1666666666666</ele><time>2026-03-29T09:57:49.27Z</time></trkpt><trkpt lat="40.3698933" lon="8.9423287"><ele>916.3333333333333</ele><time>2026-03-29T09:57:51.27Z</time></trkpt><trkpt lat="40.3699853" lon="8.942246"><ele>915.5</ele><time>2026-03-29T09:57:53.27Z</time></trkpt><trkpt lat="40.3700391" lon="8.942174"><ele>914.6666666666666</ele><time>2026-03-29T09:57:55.271Z</time></trkpt><trkpt lat="40.370091" lon="8.9420527"><ele>913.8333333333333</ele><time>2026-03-29T09:57:57.27Z</time></trkpt><trkpt lat="40.3701425" lon="8.9419663"><ele>913.0</ele><time>2026-03-29T09:57:59.27Z</time></trkpt><trkpt lat="40.370194" lon="8.9418587"><ele>913.0</ele><time>2026-03-29T09:58:01.269Z</time></trkpt><trkpt lat="40.3702259" lon="8.9417425"><ele>913.0</ele><time>2026-03-29T09:58:03.27Z</time></trkpt><trkpt lat="40.3702652" lon="8.9416083"><ele>913.0</ele><time>2026-03-29T09:58:05.27Z</time></trkpt><trkpt lat="40.370283" lon="8.9415069"><ele>913.0</ele><time>2026-03-29T09:58:07.27Z</time></trkpt><trkpt lat="40.3702899" lon="8.9414039"><ele>913.0</ele><time>2026-03-29T09:58:09.27Z</time></trkpt><trkpt lat="40.3702954" lon="8.9412791"><ele>911.9999999999999</ele><time>2026-03-29T09:58:11.271Z</time></trkpt><trkpt lat="40.3703112" lon="8.9411878"><ele>911.0</ele><time>2026-03-29T09:58:12.27Z</time></trkpt><trkpt lat="40.3703264" lon="8.9410957"><ele>910.0</ele><time>2026-03-29T09:58:13.27Z</time></trkpt><trkpt lat="40.3703523" lon="8.9409698"><ele>909.0</ele><time>2026-03-29T09:58:15.27Z</time></trkpt><trkpt lat="40.3703432" lon="8.9408639"><ele>907.9999999999999</ele><time>2026-03-29T09:58:17.27Z</time></trkpt><trkpt lat="40.3703553" lon="8.9407532"><ele>907.0</ele><time>2026-03-29T09:58:20.269Z</time></trkpt><trkpt lat="40.3703832" lon="8.9406556"><ele>906.9999999999999</ele><time>2026-03-29T09:58:23.269Z</time></trkpt><trkpt lat="40.3704351" lon="8.9405951"><ele>907.0</ele><time>2026-03-29T09:58:26.269Z</time></trkpt><trkpt lat="40.3704875" lon="8.9405118"><ele>907.0</ele><time>2026-03-29T09:58:37.272Z</time></trkpt><trkpt lat="40.37049" lon="8.9404235"><ele>907.0</ele><time>2026-03-29T09:58:39.27Z</time></trkpt><trkpt lat="40.3705076" lon="8.9403049"><ele>906.9999999999999</ele><time>2026-03-29T09:58:42.27Z</time></trkpt><trkpt lat="40.3705324" lon="8.940201"><ele>907.0</ele><time>2026-03-29T09:58:45.27Z</time></trkpt><trkpt lat="40.37056" lon="8.940085"><ele>903.8333333333333</ele><time>2026-03-29T09:58:47.27Z</time></trkpt><trkpt lat="40.3705618" lon="8.9399895"><ele>900.6666666666666</ele><time>2026-03-29T09:58:49.269Z</time></trkpt><trkpt lat="40.3705608" lon="8.9399048"><ele>897.5</ele><time>2026-03-29T09:58:57.27Z</time></trkpt><trkpt lat="40.3706001" lon="8.9398293"><ele>894.3333333333333</ele><time>2026-03-29T09:59:26.269Z</time></trkpt><trkpt lat="40.3706394" lon="8.9397323"><ele>891.1666666666666</ele><time>2026-03-29T10:00:20.27Z</time></trkpt><trkpt lat="40.3706398" lon="8.9396052"><ele>888.0</ele><time>2026-03-29T10:00:21.271Z</time></trkpt><trkpt lat="40.3706413" lon="8.9394885"><ele>888.0</ele><time>2026-03-29T10:00:22.272Z</time></trkpt><trkpt lat="40.3706375" lon="8.9393649"><ele>888.0</ele><time>2026-03-29T10:00:23.271Z</time></trkpt><trkpt lat="40.3705853" lon="8.9391132"><ele>888.0</ele><time>2026-03-29T10:00:25.27Z</time></trkpt><trkpt lat="40.3705373" lon="8.9389772"><ele>888.0</ele><time>2026-03-29T10:00:26.27Z</time></trkpt><trkpt lat="40.3704874" lon="8.9388633"><ele>890.5999999999999</ele><time>2026-03-29T10:00:27.271Z</time></trkpt><trkpt lat="40.3704272" lon="8.9387678"><ele>893.1999999999999</ele><time>2026-03-29T10:00:28.27Z</time></trkpt><trkpt lat="40.3703529" lon="8.938685"><ele>895.8</ele><time>2026-03-29T10:00:29.269Z</time></trkpt><trkpt lat="40.3702848" lon="8.9386013"><ele>898.4</ele><time>2026-03-29T10:00:30.27Z</time></trkpt><trkpt lat="40.3702356" lon="8.9384978"><ele>901.0</ele><time>2026-03-29T10:00:31.271Z</time></trkpt><trkpt lat="40.3701893" lon="8.9383478"><ele>901.0</ele><time>2026-03-29T10:00:32.27Z</time></trkpt><trkpt lat="40.3701327" lon="8.9381583"><ele>901.0</ele><time>2026-03-29T10:00:33.271Z</time></trkpt><trkpt lat="40.3700842" lon="8.937991"><ele>901.0</ele><time>2026-03-29T10:00:34.271Z</time></trkpt><trkpt lat="40.3700564" lon="8.9378757"><ele>901.0</ele><time>2026-03-29T10:00:35.27Z</time></trkpt><trkpt lat="40.3700324" lon="8.9377561"><ele>901.0</ele><time>2026-03-29T10:00:36.271Z</time></trkpt><trkpt lat="40.3700609" lon="8.9375909"><ele>901.0</ele><time>2026-03-29T10:00:37.269Z</time></trkpt><trkpt lat="40.3701109" lon="8.9373827"><ele>901.0</ele><time>2026-03-29T10:00:38.271Z</time></trkpt><trkpt lat="40.3701629" lon="8.9371448"><ele>900.25</ele><time>2026-03-29T10:00:39.27Z</time></trkpt><trkpt lat="40.3702127" lon="8.9369268"><ele>899.5</ele><time>2026-03-29T10:00:40.271Z</time></trkpt><trkpt lat="40.3702466" lon="8.936756"><ele>898.75</ele><time>2026-03-29T10:00:41.27Z</time></trkpt><trkpt lat="40.3702724" lon="8.9366094"><ele>898.0</ele><time>2026-03-29T10:00:42.27Z</time></trkpt><trkpt lat="40.3702965" lon="8.9364696"><ele>897.75</ele><time>2026-03-29T10:00:43.271Z</time></trkpt><trkpt lat="40.3703217" lon="8.9363415"><ele>897.5</ele><time>2026-03-29T10:00:44.271Z</time></trkpt><trkpt lat="40.3703219" lon="8.9362138"><ele>897.25</ele><time>2026-03-29T10:00:45.271Z</time></trkpt><trkpt lat="40.3702618" lon="8.9360254"><ele>897.0</ele><time>2026-03-29T10:00:46.272Z</time></trkpt><trkpt lat="40.370204" lon="8.9358537"><ele>896.2</ele><time>2026-03-29T10:00:47.271Z</time></trkpt><trkpt lat="40.3701585" lon="8.935708"><ele>895.4000000000001</ele><time>2026-03-29T10:00:48.271Z</time></trkpt><trkpt lat="40.3701354" lon="8.9355735"><ele>894.5999999999999</ele><time>2026-03-29T10:00:49.269Z</time></trkpt><trkpt lat="40.3701558" lon="8.9354519"><ele>893.8</ele><time>2026-03-29T10:00:50.27Z</time></trkpt><trkpt lat="40.3701957" lon="8.9353219"><ele>893.0</ele><time>2026-03-29T10:00:51.27Z</time></trkpt><trkpt lat="40.3702443" lon="8.9351662"><ele>891.5</ele><time>2026-03-29T10:00:52.27Z</time></trkpt><trkpt lat="40.3702814" lon="8.934975"><ele>890.0</ele><time>2026-03-29T10:00:53.272Z</time></trkpt><trkpt lat="40.3703042" lon="8.9348031"><ele>888.5</ele><time>2026-03-29T10:00:54.272Z</time></trkpt><trkpt lat="40.3702841" lon="8.9345982"><ele>887.0</ele><time>2026-03-29T10:00:55.271Z</time></trkpt><trkpt lat="40.3702361" lon="8.9343993"><ele>887.0</ele><time>2026-03-29T10:00:56.27Z</time></trkpt><trkpt lat="40.3702021" lon="8.9342631"><ele>887.0</ele><time>2026-03-29T10:00:57.271Z</time></trkpt><trkpt lat="40.3701599" lon="8.9341135"><ele>887.0</ele><time>2026-03-29T10:00:58.27Z</time></trkpt><trkpt lat="40.3701103" lon="8.9339702"><ele>887.0</ele><time>2026-03-29T10:00:59.271Z</time></trkpt><trkpt lat="40.3700302" lon="8.9338471"><ele>885.25</ele><time>2026-03-29T10:01:00.27Z</time></trkpt><trkpt lat="40.3699486" lon="8.9337242"><ele>883.5</ele><time>2026-03-29T10:01:01.269Z</time></trkpt><trkpt lat="40.3698696" lon="8.9335954"><ele>881.75</ele><time>2026-03-29T10:01:02.271Z</time></trkpt><trkpt lat="40.3698002" lon="8.9334568"><ele>880.0</ele><time>2026-03-29T10:01:03.269Z</time></trkpt><trkpt lat="40.3697268" lon="8.9332628"><ele>877.6666666666666</ele><time>2026-03-29T10:01:04.27Z</time></trkpt><trkpt lat="40.3697132" lon="8.9330615"><ele>875.3333333333333</ele><time>2026-03-29T10:01:05.271Z</time></trkpt><trkpt lat="40.3697194" lon="8.9328208"><ele>873.0</ele><time>2026-03-29T10:01:06.27Z</time></trkpt><trkpt lat="40.3697242" lon="8.9325552"><ele>870.6666666666667</ele><time>2026-03-29T10:01:07.27Z</time></trkpt><trkpt lat="40.3697211" lon="8.9323028"><ele>868.3333333333334</ele><time>2026-03-29T10:01:08.27Z</time></trkpt><trkpt lat="40.3697154" lon="8.9320784"><ele>866.0</ele><time>2026-03-29T10:01:09.271Z</time></trkpt><trkpt lat="40.369704" lon="8.9319223"><ele>867.0</ele><time>2026-03-29T10:01:10.272Z</time></trkpt><trkpt lat="40.3696918" lon="8.9317722"><ele>868.0</ele><time>2026-03-29T10:01:11.27Z</time></trkpt><trkpt lat="40.3696727" lon="8.9316099"><ele>869.0</ele><time>2026-03-29T10:01:12.269Z</time></trkpt><trkpt lat="40.3696308" lon="8.9314033"><ele>870.0</ele><time>2026-03-29T10:01:13.271Z</time></trkpt><trkpt lat="40.3695961" lon="8.9311761"><ele>870.0</ele><time>2026-03-29T10:01:14.271Z</time></trkpt><trkpt lat="40.3695747" lon="8.9309924"><ele>870.0</ele><time>2026-03-29T10:01:15.271Z</time></trkpt><trkpt lat="40.3695559" lon="8.9308541"><ele>870.0</ele><time>2026-03-29T10:01:16.272Z</time></trkpt><trkpt lat="40.3695094" lon="8.9307319"><ele>870.0</ele><time>2026-03-29T10:01:17.271Z</time></trkpt><trkpt lat="40.3694267" lon="8.930584"><ele>869.25</ele><time>2026-03-29T10:01:18.271Z</time></trkpt><trkpt lat="40.3693439" lon="8.9304263"><ele>868.5</ele><time>2026-03-29T10:01:19.271Z</time></trkpt><trkpt lat="40.3692759" lon="8.930292"><ele>867.75</ele><time>2026-03-29T10:01:20.269Z</time></trkpt><trkpt lat="40.369243" lon="8.9301717"><ele>867.0</ele><time>2026-03-29T10:01:21.27Z</time></trkpt><trkpt lat="40.3692438" lon="8.9300071"><ele>865.3333333333333</ele><time>2026-03-29T10:01:22.27Z</time></trkpt><trkpt lat="40.369273" lon="8.9298255"><ele>863.6666666666666</ele><time>2026-03-29T10:01:23.27Z</time></trkpt><trkpt lat="40.3692862" lon="8.9296293"><ele>862.0</ele><time>2026-03-29T10:01:24.27Z</time></trkpt><trkpt lat="40.369292" lon="8.9293965"><ele>861.0</ele><time>2026-03-29T10:01:25.271Z</time></trkpt><trkpt lat="40.3693143" lon="8.929124"><ele>860.0</ele><time>2026-03-29T10:01:26.272Z</time></trkpt><trkpt lat="40.3693449" lon="8.928853"><ele>859.0</ele><time>2026-03-29T10:01:27.27Z</time></trkpt><trkpt lat="40.3693637" lon="8.928606"><ele>860.0</ele><time>2026-03-29T10:01:28.271Z</time></trkpt><trkpt lat="40.3693788" lon="8.9283792"><ele>861.0</ele><time>2026-03-29T10:01:29.27Z</time></trkpt><trkpt lat="40.3693872" lon="8.9281471"><ele>862.0</ele><time>2026-03-29T10:01:30.27Z</time></trkpt><trkpt lat="40.3693897" lon="8.9279283"><ele>862.0</ele><time>2026-03-29T10:01:31.271Z</time></trkpt><trkpt lat="40.3693895" lon="8.9277364"><ele>862.0</ele><time>2026-03-29T10:01:32.271Z</time></trkpt><trkpt lat="40.3693965" lon="8.9275553"><ele>862.0</ele><time>2026-03-29T10:01:33.271Z</time></trkpt><trkpt lat="40.3694077" lon="8.9274071"><ele>862.0</ele><time>2026-03-29T10:01:34.27Z</time></trkpt><trkpt lat="40.3694312" lon="8.9272627"><ele>862.3333333333333</ele><time>2026-03-29T10:01:35.271Z</time></trkpt><trkpt lat="40.3694617" lon="8.9270802"><ele>862.6666666666667</ele><time>2026-03-29T10:01:36.271Z</time></trkpt><trkpt lat="40.3694868" lon="8.9268973"><ele>863.0</ele><time>2026-03-29T10:01:37.271Z</time></trkpt><trkpt lat="40.3695265" lon="8.9266662"><ele>863.6666666666667</ele><time>2026-03-29T10:01:38.272Z</time></trkpt><trkpt lat="40.3695778" lon="8.9264622"><ele>864.3333333333333</ele><time>2026-03-29T10:01:39.27Z</time></trkpt><trkpt lat="40.3696282" lon="8.9262566"><ele>865.0</ele><time>2026-03-29T10:01:40.27Z</time></trkpt><trkpt lat="40.3696909" lon="8.9260446"><ele>864.6666666666666</ele><time>2026-03-29T10:01:41.271Z</time></trkpt><trkpt lat="40.3697504" lon="8.9258291"><ele>864.3333333333333</ele><time>2026-03-29T10:01:42.271Z</time></trkpt><trkpt lat="40.3698189" lon="8.9256107"><ele>864.0</ele><time>2026-03-29T10:01:43.271Z</time></trkpt><trkpt lat="40.3698816" lon="8.9253787"><ele>864.0</ele><time>2026-03-29T10:01:44.272Z</time></trkpt><trkpt lat="40.3699539" lon="8.925151"><ele>864.0</ele><time>2026-03-29T10:01:45.272Z</time></trkpt><trkpt lat="40.3700141" lon="8.9249717"><ele>864.0</ele><time>2026-03-29T10:01:46.272Z</time></trkpt><trkpt lat="40.3700629" lon="8.9247941"><ele>865.0</ele><time>2026-03-29T10:01:47.271Z</time></trkpt><trkpt lat="40.3701023" lon="8.9246519"><ele>866.0</ele><time>2026-03-29T10:01:48.272Z</time></trkpt><trkpt lat="40.3701329" lon="8.9245103"><ele>867.0</ele><time>2026-03-29T10:01:49.27Z</time></trkpt><trkpt lat="40.370169" lon="8.924361"><ele>868.0</ele><time>2026-03-29T10:01:50.271Z</time></trkpt><trkpt lat="40.370217" lon="8.9242098"><ele>870.3333333333333</ele><time>2026-03-29T10:01:51.271Z</time></trkpt><trkpt lat="40.370265" lon="8.924012"><ele>872.6666666666667</ele><time>2026-03-29T10:01:52.27Z</time></trkpt><trkpt lat="40.3703163" lon="8.9238307"><ele>875.0</ele><time>2026-03-29T10:01:53.272Z</time></trkpt><trkpt lat="40.3703707" lon="8.923631"><ele>875.0</ele><time>2026-03-29T10:01:54.271Z</time></trkpt><trkpt lat="40.3704257" lon="8.9234454"><ele>875.0</ele><time>2026-03-29T10:01:55.27Z</time></trkpt><trkpt lat="40.3704767" lon="8.9232716"><ele>875.0</ele><time>2026-03-29T10:01:56.272Z</time></trkpt><trkpt lat="40.3705372" lon="8.923073"><ele>880.0</ele><time>2026-03-29T10:01:57.271Z</time></trkpt><trkpt lat="40.3705947" lon="8.9228629"><ele>885.0</ele><time>2026-03-29T10:01:58.271Z</time></trkpt><trkpt lat="40.370645" lon="8.9226877"><ele>890.0</ele><time>2026-03-29T10:01:59.271Z</time></trkpt><trkpt lat="40.3707011" lon="8.922516"><ele>893.0</ele><time>2026-03-29T10:02:00.271Z</time></trkpt><trkpt lat="40.370755" lon="8.9223968"><ele>896.0</ele><time>2026-03-29T10:02:01.272Z</time></trkpt><trkpt lat="40.3708398" lon="8.9222728"><ele>899.0</ele><time>2026-03-29T10:02:02.272Z</time></trkpt><trkpt lat="40.370929" lon="8.9221612"><ele>902.0</ele><time>2026-03-29T10:02:03.272Z</time></trkpt><trkpt lat="40.3710744" lon="8.9219206"><ele>902.0000000000001</ele><time>2026-03-29T10:02:05.272Z</time></trkpt><trkpt lat="40.3711132" lon="8.9217779"><ele>902.0</ele><time>2026-03-29T10:02:06.271Z</time></trkpt><trkpt lat="40.3711434" lon="8.9216709"><ele>902.0</ele><time>2026-03-29T10:02:07.271Z</time></trkpt><trkpt lat="40.3711707" lon="8.9215921"><ele>902.0</ele><time>2026-03-29T10:02:08.271Z</time></trkpt><trkpt lat="40.3712211" lon="8.9214896"><ele>902.0000000000001</ele><time>2026-03-29T10:02:10.27Z</time></trkpt><trkpt lat="40.3712561" lon="8.9214162"><ele>902.0</ele><time>2026-03-29T10:02:29.272Z</time></trkpt><trkpt lat="40.3713137" lon="8.9213484"><ele>904.75</ele><time>2026-03-29T10:02:32.271Z</time></trkpt><trkpt lat="40.3713585" lon="8.9212578"><ele>907.5</ele><time>2026-03-29T10:03:18.271Z</time></trkpt><trkpt lat="40.3714421" lon="8.9210899"><ele>910.25</ele><time>2026-03-29T10:03:20.272Z</time></trkpt><trkpt lat="40.3715016" lon="8.9209792"><ele>913.0</ele><time>2026-03-29T10:03:21.271Z</time></trkpt><trkpt lat="40.3716086" lon="8.9207972"><ele>913.0</ele><time>2026-03-29T10:03:22.272Z</time></trkpt><trkpt lat="40.3716947" lon="8.9206539"><ele>913.0</ele><time>2026-03-29T10:03:23.27Z</time></trkpt><trkpt lat="40.3717734" lon="8.9205217"><ele>913.0</ele><time>2026-03-29T10:03:24.272Z</time></trkpt><trkpt lat="40.3718732" lon="8.9204045"><ele>913.0</ele><time>2026-03-29T10:03:25.271Z</time></trkpt><trkpt lat="40.3719996" lon="8.9202752"><ele>913.0</ele><time>2026-03-29T10:03:26.271Z</time></trkpt><trkpt lat="40.3721183" lon="8.9201392"><ele>913.0</ele><time>2026-03-29T10:03:27.272Z</time></trkpt><trkpt lat="40.3722244" lon="8.9199866"><ele>913.0</ele><time>2026-03-29T10:03:28.272Z</time></trkpt><trkpt lat="40.3723347" lon="8.9198381"><ele>911.6666666666666</ele><time>2026-03-29T10:03:29.271Z</time></trkpt><trkpt lat="40.3724459" lon="8.9196811"><ele>910.3333333333333</ele><time>2026-03-29T10:03:30.27Z</time></trkpt><trkpt lat="40.3725599" lon="8.9195454"><ele>909.0</ele><time>2026-03-29T10:03:31.272Z</time></trkpt><trkpt lat="40.3726598" lon="8.9194042"><ele>909.0</ele><time>2026-03-29T10:03:32.27Z</time></trkpt><trkpt lat="40.3727359" lon="8.9192634"><ele>909.0</ele><time>2026-03-29T10:03:33.271Z</time></trkpt><trkpt lat="40.3728089" lon="8.9191"><ele>909.0</ele><time>2026-03-29T10:03:34.271Z</time></trkpt><trkpt lat="40.3728463" lon="8.9189057"><ele>909.0</ele><time>2026-03-29T10:03:35.27Z</time></trkpt><trkpt lat="40.3728937" lon="8.9187158"><ele>909.0</ele><time>2026-03-29T10:03:36.272Z</time></trkpt><trkpt lat="40.372918" lon="8.9185698"><ele>909.0</ele><time>2026-03-29T10:03:37.271Z</time></trkpt><trkpt lat="40.3729325" lon="8.9184011"><ele>909.0</ele><time>2026-03-29T10:03:38.271Z</time></trkpt><trkpt lat="40.372932" lon="8.9182064"><ele>909.0</ele><time>2026-03-29T10:03:39.271Z</time></trkpt><trkpt lat="40.3729281" lon="8.9180166"><ele>909.0</ele><time>2026-03-29T10:03:40.271Z</time></trkpt><trkpt lat="40.3729204" lon="8.917818"><ele>909.0</ele><time>2026-03-29T10:03:41.27Z</time></trkpt><trkpt lat="40.372923" lon="8.9176017"><ele>909.0</ele><time>2026-03-29T10:03:42.272Z</time></trkpt><trkpt lat="40.372926" lon="8.9173994"><ele>908.0</ele><time>2026-03-29T10:03:43.271Z</time></trkpt><trkpt lat="40.3729315" lon="8.9172083"><ele>907.0</ele><time>2026-03-29T10:03:44.27Z</time></trkpt><trkpt lat="40.3729387" lon="8.9170479"><ele>906.0</ele><time>2026-03-29T10:03:45.271Z</time></trkpt><trkpt lat="40.3729529" lon="8.9169127"><ele>905.0</ele><time>2026-03-29T10:03:46.271Z</time></trkpt><trkpt lat="40.3729624" lon="8.9167933"><ele>904.0</ele><time>2026-03-29T10:03:47.27Z</time></trkpt><trkpt lat="40.3729603" lon="8.9166931"><ele>903.0</ele><time>2026-03-29T10:03:48.271Z</time></trkpt><trkpt lat="40.3729444" lon="8.9166092"><ele>902.0</ele><time>2026-03-29T10:03:49.272Z</time></trkpt><trkpt lat="40.3728957" lon="8.9164729"><ele>901.0</ele><time>2026-03-29T10:03:51.272Z</time></trkpt><trkpt lat="40.372856" lon="8.9164085"><ele>900.0</ele><time>2026-03-29T10:03:52.272Z</time></trkpt><trkpt lat="40.372797" lon="8.9162566"><ele>900.0</ele><time>2026-03-29T10:03:54.272Z</time></trkpt><trkpt lat="40.3727573" lon="8.9161736"><ele>900.0</ele><time>2026-03-29T10:03:55.272Z</time></trkpt><trkpt lat="40.3727244" lon="8.9160909"><ele>900.0</ele><time>2026-03-29T10:03:56.27Z</time></trkpt><trkpt lat="40.3727092" lon="8.9160062"><ele>900.0</ele><time>2026-03-29T10:03:57.27Z</time></trkpt><trkpt lat="40.3726644" lon="8.915867"><ele>900.0</ele><time>2026-03-29T10:03:59.272Z</time></trkpt><trkpt lat="40.3726094" lon="8.9157543"><ele>900.0</ele><time>2026-03-29T10:04:01.271Z</time></trkpt><trkpt lat="40.3725483" lon="8.9156565"><ele>897.8</ele><time>2026-03-29T10:04:03.271Z</time></trkpt><trkpt lat="40.3724757" lon="8.9155094"><ele>895.6</ele><time>2026-03-29T10:04:05.27Z</time></trkpt><trkpt lat="40.3724294" lon="8.9154007"><ele>893.4000000000001</ele><time>2026-03-29T10:04:06.271Z</time></trkpt><trkpt lat="40.3723825" lon="8.9153049"><ele>891.2</ele><time>2026-03-29T10:04:07.271Z</time></trkpt><trkpt lat="40.3723409" lon="8.9152138"><ele>889.0</ele><time>2026-03-29T10:04:08.272Z</time></trkpt><trkpt lat="40.3723046" lon="8.9151157"><ele>888.1666666666666</ele><time>2026-03-29T10:04:09.271Z</time></trkpt><trkpt lat="40.3722563" lon="8.9150348"><ele>887.3333333333333</ele><time>2026-03-29T10:04:10.27Z</time></trkpt><trkpt lat="40.3722134" lon="8.9149509"><ele>886.5</ele><time>2026-03-29T10:04:11.271Z</time></trkpt><trkpt lat="40.3721796" lon="8.9148771"><ele>885.6666666666667</ele><time>2026-03-29T10:04:12.271Z</time></trkpt><trkpt lat="40.372112" lon="8.9147553"><ele>884.8333333333334</ele><time>2026-03-29T10:04:14.272Z</time></trkpt><trkpt lat="40.3720539" lon="8.9146491"><ele>884.0</ele><time>2026-03-29T10:04:16.271Z</time></trkpt><trkpt lat="40.3720105" lon="8.9145709"><ele>883.1666666666667</ele><time>2026-03-29T10:04:18.271Z</time></trkpt><trkpt lat="40.3719665" lon="8.9144815"><ele>882.3333333333334</ele><time>2026-03-29T10:04:21.272Z</time></trkpt><trkpt lat="40.3719336" lon="8.9143946"><ele>881.5</ele><time>2026-03-29T10:04:24.27Z</time></trkpt><trkpt lat="40.3719265" lon="8.9142864"><ele>880.6666666666667</ele><time>2026-03-29T10:05:01.272Z</time></trkpt><trkpt lat="40.3719586" lon="8.9141555"><ele>879.8333333333334</ele><time>2026-03-29T10:05:25.27Z</time></trkpt><trkpt lat="40.3719571" lon="8.9140172"><ele>879.0</ele><time>2026-03-29T10:05:27.272Z</time></trkpt><trkpt lat="40.371956" lon="8.9139136"><ele>879.0</ele><time>2026-03-29T10:05:28.273Z</time></trkpt><trkpt lat="40.3719621" lon="8.9137947"><ele>879.0</ele><time>2026-03-29T10:05:29.271Z</time></trkpt><trkpt lat="40.3719869" lon="8.913704"><ele>879.0</ele><time>2026-03-29T10:05:30.272Z</time></trkpt><trkpt lat="40.3720211" lon="8.9136064"><ele>879.0</ele><time>2026-03-29T10:05:31.272Z</time></trkpt><trkpt lat="40.3720799" lon="8.913525"><ele>879.0</ele><time>2026-03-29T10:05:32.271Z</time></trkpt><trkpt lat="40.3721458" lon="8.9134242"><ele>879.0</ele><time>2026-03-29T10:05:33.272Z</time></trkpt><trkpt lat="40.3722021" lon="8.9133351"><ele>879.0</ele><time>2026-03-29T10:05:34.27Z</time></trkpt><trkpt lat="40.3722488" lon="8.913231"><ele>879.0000000000001</ele><time>2026-03-29T10:05:35.272Z</time></trkpt><trkpt lat="40.3723055" lon="8.913113"><ele>879.0000000000001</ele><time>2026-03-29T10:05:36.271Z</time></trkpt><trkpt lat="40.3723466" lon="8.9129737"><ele>879.0</ele><time>2026-03-29T10:05:37.272Z</time></trkpt><trkpt lat="40.3723901" lon="8.9128239"><ele>879.0</ele><time>2026-03-29T10:05:38.271Z</time></trkpt><trkpt lat="40.3724295" lon="8.9126869"><ele>879.0</ele><time>2026-03-29T10:05:39.272Z</time></trkpt><trkpt lat="40.3724608" lon="8.9125881"><ele>879.0000000000001</ele><time>2026-03-29T10:05:40.27Z</time></trkpt><trkpt lat="40.3724901" lon="8.9124821"><ele>879.0000000000001</ele><time>2026-03-29T10:05:41.272Z</time></trkpt><trkpt lat="40.3724974" lon="8.9123808"><ele>879.0</ele><time>2026-03-29T10:05:42.27Z</time></trkpt><trkpt lat="40.3725484" lon="8.9122426"><ele>879.0</ele><time>2026-03-29T10:05:43.272Z</time></trkpt><trkpt lat="40.3726028" lon="8.9120981"><ele>880.5</ele><time>2026-03-29T10:05:44.272Z</time></trkpt><trkpt lat="40.3726461" lon="8.9119526"><ele>882.0</ele><time>2026-03-29T10:05:45.272Z</time></trkpt><trkpt lat="40.3726828" lon="8.9118127"><ele>883.5</ele><time>2026-03-29T10:05:46.271Z</time></trkpt><trkpt lat="40.372701" lon="8.911658"><ele>885.0</ele><time>2026-03-29T10:05:47.272Z</time></trkpt><trkpt lat="40.3727178" lon="8.9115189"><ele>885.1666666666666</ele><time>2026-03-29T10:05:48.271Z</time></trkpt><trkpt lat="40.3727323" lon="8.911397"><ele>885.3333333333333</ele><time>2026-03-29T10:05:49.272Z</time></trkpt><trkpt lat="40.3727387" lon="8.9112811"><ele>885.5</ele><time>2026-03-29T10:05:50.273Z</time></trkpt><trkpt lat="40.3727556" lon="8.9111893"><ele>885.6666666666666</ele><time>2026-03-29T10:05:51.271Z</time></trkpt><trkpt lat="40.3727964" lon="8.9110965"><ele>885.8333333333333</ele><time>2026-03-29T10:05:52.271Z</time></trkpt><trkpt lat="40.372831" lon="8.9109997"><ele>886.0</ele><time>2026-03-29T10:05:53.272Z</time></trkpt><trkpt lat="40.3728631" lon="8.9109131"><ele>886.4999999999999</ele><time>2026-03-29T10:05:54.271Z</time></trkpt><trkpt lat="40.3728823" lon="8.9108233"><ele>887.0</ele><time>2026-03-29T10:05:55.271Z</time></trkpt><trkpt lat="40.3728946" lon="8.9107238"><ele>887.5</ele><time>2026-03-29T10:05:56.273Z</time></trkpt><trkpt lat="40.3729071" lon="8.910603"><ele>888.0</ele><time>2026-03-29T10:05:57.272Z</time></trkpt><trkpt lat="40.3729195" lon="8.9104772"><ele>888.4999999999999</ele><time>2026-03-29T10:05:58.271Z</time></trkpt><trkpt lat="40.3729266" lon="8.9103464"><ele>889.0</ele><time>2026-03-29T10:05:59.272Z</time></trkpt><trkpt lat="40.3729394" lon="8.9102126"><ele>888.9999999999999</ele><time>2026-03-29T10:06:00.271Z</time></trkpt><trkpt lat="40.3729615" lon="8.9101043"><ele>889.0</ele><time>2026-03-29T10:06:01.272Z</time></trkpt><trkpt lat="40.3729965" lon="8.9100177"><ele>889.0</ele><time>2026-03-29T10:06:02.271Z</time></trkpt><trkpt lat="40.3730263" lon="8.9099345"><ele>889.0</ele><time>2026-03-29T10:06:03.272Z</time></trkpt><trkpt lat="40.3730444" lon="8.9098504"><ele>888.9999999999999</ele><time>2026-03-29T10:06:04.272Z</time></trkpt><trkpt lat="40.373057" lon="8.9097673"><ele>889.0</ele><time>2026-03-29T10:06:05.271Z</time></trkpt><trkpt lat="40.3730826" lon="8.9096207"><ele>886.6</ele><time>2026-03-29T10:06:07.272Z</time></trkpt><trkpt lat="40.3731023" lon="8.9094553"><ele>884.2</ele><time>2026-03-29T10:06:09.272Z</time></trkpt><trkpt lat="40.3731082" lon="8.9093504"><ele>881.8000000000001</ele><time>2026-03-29T10:06:11.272Z</time></trkpt><trkpt lat="40.3730543" lon="8.9094001"><ele>879.4000000000001</ele><time>2026-03-29T10:06:21.273Z</time></trkpt><trkpt lat="40.3730728" lon="8.9094865"><ele>877.0</ele><time>2026-03-29T10:06:22.271Z</time></trkpt><trkpt lat="40.3730747" lon="8.9096301"><ele>877.0</ele><time>2026-03-29T10:06:24.272Z</time></trkpt><trkpt lat="40.3730535" lon="8.9097423"><ele>877.0</ele><time>2026-03-29T10:06:25.273Z</time></trkpt><trkpt lat="40.3730328" lon="8.9098624"><ele>877.0</ele><time>2026-03-29T10:06:26.272Z</time></trkpt><trkpt lat="40.3729981" lon="8.90999"><ele>877.0</ele><time>2026-03-29T10:06:27.272Z</time></trkpt><trkpt lat="40.3729648" lon="8.9100914"><ele>877.0</ele><time>2026-03-29T10:06:28.272Z</time></trkpt><trkpt lat="40.3729492" lon="8.910205"><ele>878.9999999999999</ele><time>2026-03-29T10:06:29.271Z</time></trkpt><trkpt lat="40.372939" lon="8.9103247"><ele>881.0</ele><time>2026-03-29T10:06:30.273Z</time></trkpt><trkpt lat="40.3729249" lon="8.9104499"><ele>883.0</ele><time>2026-03-29T10:06:31.271Z</time></trkpt><trkpt lat="40.3729129" lon="8.9105662"><ele>885.0</ele><time>2026-03-29T10:06:32.271Z</time></trkpt><trkpt lat="40.3729087" lon="8.9106645"><ele>886.9999999999999</ele><time>2026-03-29T10:06:33.272Z</time></trkpt><trkpt lat="40.3729031" lon="8.9107541"><ele>889.0</ele><time>2026-03-29T10:06:34.272Z</time></trkpt><trkpt lat="40.3728959" lon="8.9108369"><ele>888.4999999999999</ele><time>2026-03-29T10:06:35.272Z</time></trkpt><trkpt lat="40.3728431" lon="8.9109955"><ele>888.0</ele><time>2026-03-29T10:06:37.272Z</time></trkpt><trkpt lat="40.3728088" lon="8.9110765"><ele>887.5</ele><time>2026-03-29T10:06:38.273Z</time></trkpt><trkpt lat="40.372771" lon="8.9111671"><ele>887.0</ele><time>2026-03-29T10:06:39.272Z</time></trkpt><trkpt lat="40.3727519" lon="8.9112574"><ele>886.4999999999999</ele><time>2026-03-29T10:06:40.272Z</time></trkpt><trkpt lat="40.3727449" lon="8.9113419"><ele>886.0</ele><time>2026-03-29T10:06:41.271Z</time></trkpt><trkpt lat="40.372717" lon="8.9114887"><ele>886.0</ele><time>2026-03-29T10:06:43.273Z</time></trkpt><trkpt lat="40.372678" lon="8.9115648"><ele>885.9999999999999</ele><time>2026-03-29T10:06:45.272Z</time></trkpt><trkpt lat="40.3725892" lon="8.9115158"><ele>885.9999999999999</ele><time>2026-03-29T10:06:48.272Z</time></trkpt><trkpt lat="40.3724703" lon="8.911478"><ele>886.0</ele><time>2026-03-29T10:06:50.273Z</time></trkpt><trkpt lat="40.372388" lon="8.911496"><ele>886.0</ele><time>2026-03-29T10:06:51.271Z</time></trkpt><trkpt lat="40.372299" lon="8.9115037"><ele>886.0</ele><time>2026-03-29T10:06:52.272Z</time></trkpt><trkpt lat="40.3722027" lon="8.9114863"><ele>885.9999999999999</ele><time>2026-03-29T10:06:53.273Z</time></trkpt><trkpt lat="40.3720825" lon="8.9114582"><ele>885.9999999999999</ele><time>2026-03-29T10:06:54.271Z</time></trkpt><trkpt lat="40.3720033" lon="8.9114477"><ele>886.0</ele><time>2026-03-29T10:06:55.272Z</time></trkpt><trkpt lat="40.3718951" lon="8.9114783"><ele>886.0</ele><time>2026-03-29T10:06:57.272Z</time></trkpt><trkpt lat="40.3718145" lon="8.9115913"><ele>887.4999999999999</ele><time>2026-03-29T10:06:59.272Z</time></trkpt><trkpt lat="40.3717747" lon="8.9116722"><ele>889.0</ele><time>2026-03-29T10:07:00.273Z</time></trkpt><trkpt lat="40.3717347" lon="8.9117597"><ele>890.5</ele><time>2026-03-29T10:07:01.273Z</time></trkpt><trkpt lat="40.3716943" lon="8.9118275"><ele>892.0</ele><time>2026-03-29T10:07:02.273Z</time></trkpt><trkpt lat="40.3715848" lon="8.9118818"><ele>893.4999999999999</ele><time>2026-03-29T10:07:04.272Z</time></trkpt><trkpt lat="40.3715167" lon="8.9118683"><ele>895.0</ele><time>2026-03-29T10:07:05.271Z</time></trkpt><trkpt lat="40.3714419" lon="8.9118548"><ele>895.0</ele><time>2026-03-29T10:07:06.273Z</time></trkpt><trkpt lat="40.3713578" lon="8.9117793"><ele>895.0</ele><time>2026-03-29T10:07:08.273Z</time></trkpt><trkpt lat="40.3713267" lon="8.9116832"><ele>895.0</ele><time>2026-03-29T10:07:09.271Z</time></trkpt><trkpt lat="40.3713211" lon="8.9115889"><ele>895.0</ele><time>2026-03-29T10:07:10.273Z</time></trkpt><trkpt lat="40.3712763" lon="8.9114335"><ele>895.0</ele><time>2026-03-29T10:07:12.271Z</time></trkpt><trkpt lat="40.3712401" lon="8.911354"><ele>899.6666666666666</ele><time>2026-03-29T10:07:13.272Z</time></trkpt><trkpt lat="40.3711992" lon="8.9112711"><ele>904.3333333333333</ele><time>2026-03-29T10:07:14.273Z</time></trkpt><trkpt lat="40.371177" lon="8.9111903"><ele>909.0</ele><time>2026-03-29T10:07:15.273Z</time></trkpt><trkpt lat="40.3711808" lon="8.9110941"><ele>913.6666666666667</ele><time>2026-03-29T10:07:16.273Z</time></trkpt><trkpt lat="40.3711679" lon="8.9110084"><ele>918.3333333333334</ele><time>2026-03-29T10:07:17.271Z</time></trkpt><trkpt lat="40.3711405" lon="8.9109079"><ele>923.0</ele><time>2026-03-29T10:07:18.273Z</time></trkpt><trkpt lat="40.371113" lon="8.9107567"><ele>924.0</ele><time>2026-03-29T10:07:19.271Z</time></trkpt><trkpt lat="40.3710882" lon="8.9106178"><ele>925.0</ele><time>2026-03-29T10:07:20.272Z</time></trkpt><trkpt lat="40.3710738" lon="8.9104869"><ele>926.0</ele><time>2026-03-29T10:07:21.272Z</time></trkpt><trkpt lat="40.3710566" lon="8.9103613"><ele>927.0</ele><time>2026-03-29T10:07:22.272Z</time></trkpt><trkpt lat="40.3710433" lon="8.9102481"><ele>928.0</ele><time>2026-03-29T10:07:23.272Z</time></trkpt><trkpt lat="40.3710193" lon="8.9101354"><ele>927.9999999999999</ele><time>2026-03-29T10:07:24.272Z</time></trkpt><trkpt lat="40.3710141" lon="8.9100324"><ele>928.0</ele><time>2026-03-29T10:07:25.272Z</time></trkpt><trkpt lat="40.3709973" lon="8.909931"><ele>928.0</ele><time>2026-03-29T10:07:26.272Z</time></trkpt><trkpt lat="40.3709781" lon="8.9098353"><ele>928.0</ele><time>2026-03-29T10:07:27.273Z</time></trkpt><trkpt lat="40.3709612" lon="8.9097383"><ele>927.9999999999999</ele><time>2026-03-29T10:07:28.273Z</time></trkpt><trkpt lat="40.3709412" lon="8.9096316"><ele>928.0</ele><time>2026-03-29T10:07:29.273Z</time></trkpt><trkpt lat="40.3709185" lon="8.9095442"><ele>928.0</ele><time>2026-03-29T10:07:30.271Z</time></trkpt><trkpt lat="40.3708664" lon="8.9094102"><ele>928.0</ele><time>2026-03-29T10:07:32.273Z</time></trkpt><trkpt lat="40.3707657" lon="8.9093303"><ele>928.0</ele><time>2026-03-29T10:07:34.273Z</time></trkpt><trkpt lat="40.3707082" lon="8.9092416"><ele>928.0</ele><time>2026-03-29T10:07:35.273Z</time></trkpt><trkpt lat="40.3706661" lon="8.9091287"><ele>928.0</ele><time>2026-03-29T10:07:36.273Z</time></trkpt><trkpt lat="40.3706414" lon="8.9090123"><ele>928.1666666666666</ele><time>2026-03-29T10:07:37.272Z</time></trkpt><trkpt lat="40.3706225" lon="8.9089118"><ele>928.3333333333333</ele><time>2026-03-29T10:07:38.272Z</time></trkpt><trkpt lat="40.3705914" lon="8.9088279"><ele>928.5</ele><time>2026-03-29T10:07:39.272Z</time></trkpt><trkpt lat="40.3705366" lon="8.9087505"><ele>928.6666666666667</ele><time>2026-03-29T10:07:40.272Z</time></trkpt><trkpt lat="40.3704607" lon="8.9086583"><ele>928.8333333333334</ele><time>2026-03-29T10:07:41.272Z</time></trkpt><trkpt lat="40.3703857" lon="8.9085615"><ele>929.0</ele><time>2026-03-29T10:07:42.272Z</time></trkpt><trkpt lat="40.3703039" lon="8.908487"><ele>933.0</ele><time>2026-03-29T10:07:43.272Z</time></trkpt><trkpt lat="40.3702132" lon="8.9084282"><ele>937.0000000000001</ele><time>2026-03-29T10:07:44.272Z</time></trkpt><trkpt lat="40.3701362" lon="8.9083821"><ele>941.0000000000001</ele><time>2026-03-29T10:07:45.271Z</time></trkpt><trkpt lat="40.3700699" lon="8.9083"><ele>945.0</ele><time>2026-03-29T10:07:47.272Z</time></trkpt><trkpt lat="40.3701517" lon="8.9082761"><ele>949.0</ele><time>2026-03-29T10:07:51.273Z</time></trkpt><trkpt lat="40.3702339" lon="8.9083299"><ele>948.9999999999999</ele><time>2026-03-29T10:07:54.273Z</time></trkpt><trkpt lat="40.3703024" lon="8.9083566"><ele>949.0</ele><time>2026-03-29T10:07:56.272Z</time></trkpt><trkpt lat="40.3703866" lon="8.9083334"><ele>949.0</ele><time>2026-03-29T10:07:58.272Z</time></trkpt><trkpt lat="40.3704715" lon="8.9083134"><ele>949.0</ele><time>2026-03-29T10:08:00.271Z</time></trkpt><trkpt lat="40.3705646" lon="8.9083298"><ele>948.9999999999999</ele><time>2026-03-29T10:08:02.273Z</time></trkpt><trkpt lat="40.3706397" lon="8.9083449"><ele>949.0</ele><time>2026-03-29T10:08:04.272Z</time></trkpt><trkpt lat="40.3706824" lon="8.9082825"><ele>945.8333333333333</ele><time>2026-03-29T10:09:28.273Z</time></trkpt><trkpt lat="40.3706865" lon="8.908192"><ele>942.6666666666666</ele><time>2026-03-29T10:09:31.272Z</time></trkpt><trkpt lat="40.3706874" lon="8.9080951"><ele>939.5</ele><time>2026-03-29T10:09:34.273Z</time></trkpt><trkpt lat="40.370703" lon="8.9079981"><ele>936.3333333333333</ele><time>2026-03-29T10:11:08.272Z</time></trkpt><trkpt lat="40.3707249" lon="8.9079189"><ele>933.1666666666666</ele><time>2026-03-29T10:11:10.272Z</time></trkpt><trkpt lat="40.3707364" lon="8.9078037"><ele>930.0</ele><time>2026-03-29T10:11:12.272Z</time></trkpt><trkpt lat="40.3707448" lon="8.9076753"><ele>929.8333333333334</ele><time>2026-03-29T10:11:14.272Z</time></trkpt><trkpt lat="40.3707407" lon="8.9075672"><ele>929.6666666666667</ele><time>2026-03-29T10:11:16.273Z</time></trkpt><trkpt lat="40.3707451" lon="8.9074447"><ele>929.5</ele><time>2026-03-29T10:11:18.273Z</time></trkpt><trkpt lat="40.3707719" lon="8.9073295"><ele>929.3333333333334</ele><time>2026-03-29T10:11:20.273Z</time></trkpt><trkpt lat="40.3707703" lon="8.9071968"><ele>929.1666666666667</ele><time>2026-03-29T10:11:22.272Z</time></trkpt><trkpt lat="40.3707796" lon="8.9071047"><ele>929.0</ele><time>2026-03-29T10:11:24.273Z</time></trkpt><trkpt lat="40.3707708" lon="8.9070138"><ele>929.0</ele><time>2026-03-29T10:11:26.272Z</time></trkpt><trkpt lat="40.3707423" lon="8.9068962"><ele>929.0000000000001</ele><time>2026-03-29T10:11:28.272Z</time></trkpt><trkpt lat="40.3707211" lon="8.9067663"><ele>929.0000000000001</ele><time>2026-03-29T10:11:30.273Z</time></trkpt><trkpt lat="40.3707005" lon="8.9066567"><ele>929.0</ele><time>2026-03-29T10:11:32.274Z</time></trkpt><trkpt lat="40.3706656" lon="8.9065175"><ele>929.0</ele><time>2026-03-29T10:11:34.272Z</time></trkpt><trkpt lat="40.3706195" lon="8.9063759"><ele>928.0</ele><time>2026-03-29T10:11:36.274Z</time></trkpt><trkpt lat="40.3706159" lon="8.9062331"><ele>927.0000000000001</ele><time>2026-03-29T10:11:38.273Z</time></trkpt><trkpt lat="40.3705966" lon="8.9061047"><ele>926.0000000000001</ele><time>2026-03-29T10:11:40.274Z</time></trkpt><trkpt lat="40.3705975" lon="8.9059787"><ele>925.0</ele><time>2026-03-29T10:11:42.272Z</time></trkpt><trkpt lat="40.3705585" lon="8.9058934"><ele>924.0</ele><time>2026-03-29T10:11:44.272Z</time></trkpt><trkpt lat="40.3705533" lon="8.9057913"><ele>923.0</ele><time>2026-03-29T10:12:14.274Z</time></trkpt><trkpt lat="40.3705406" lon="8.9057094"><ele>922.0</ele><time>2026-03-29T10:13:03.273Z</time></trkpt><trkpt lat="40.3705658" lon="8.9056008"><ele>921.0</ele><time>2026-03-29T10:13:05.274Z</time></trkpt><trkpt lat="40.3705921" lon="8.9054962"><ele>920.0</ele><time>2026-03-29T10:13:07.275Z</time></trkpt><trkpt lat="40.3706274" lon="8.905404"><ele>919.0</ele><time>2026-03-29T10:13:10.272Z</time></trkpt><trkpt lat="40.3706718" lon="8.9053352"><ele>918.0</ele><time>2026-03-29T10:13:12.274Z</time></trkpt><trkpt lat="40.3707385" lon="8.9053107"><ele>918.0</ele><time>2026-03-29T10:13:14.273Z</time></trkpt><trkpt lat="40.3708185" lon="8.905319"><ele>918.0</ele><time>2026-03-29T10:13:15.273Z</time></trkpt><trkpt lat="40.3708858" lon="8.9053088"><ele>918.0</ele><time>2026-03-29T10:13:17.273Z</time></trkpt><trkpt lat="40.3709431" lon="8.9052684"><ele>918.0</ele><time>2026-03-29T10:13:19.273Z</time></trkpt><trkpt lat="40.3710238" lon="8.9052372"><ele>918.0</ele><time>2026-03-29T10:13:21.274Z</time></trkpt><trkpt lat="40.3710674" lon="8.9051497"><ele>918.0</ele><time>2026-03-29T10:13:24.272Z</time></trkpt><trkpt lat="40.3711082" lon="8.9050686"><ele>918.5999999999999</ele><time>2026-03-29T10:13:26.273Z</time></trkpt><trkpt lat="40.3711726" lon="8.9049486"><ele>919.1999999999999</ele><time>2026-03-29T10:13:28.274Z</time></trkpt><trkpt lat="40.3712088" lon="8.904806"><ele>919.8</ele><time>2026-03-29T10:13:30.275Z</time></trkpt><trkpt lat="40.3712609" lon="8.9047232"><ele>920.4</ele><time>2026-03-29T10:13:32.273Z</time></trkpt><trkpt lat="40.3713153" lon="8.9046349"><ele>921.0</ele><time>2026-03-29T10:13:35.272Z</time></trkpt><trkpt lat="40.3713091" lon="8.9045124"><ele>921.0</ele><time>2026-03-29T10:13:38.274Z</time></trkpt><trkpt lat="40.3713346" lon="8.9044049"><ele>921.0</ele><time>2026-03-29T10:13:40.275Z</time></trkpt><trkpt lat="40.3713484" lon="8.9043146"><ele>921.0</ele><time>2026-03-29T10:13:42.272Z</time></trkpt><trkpt lat="40.3713416" lon="8.9042138"><ele>921.0</ele><time>2026-03-29T10:13:44.272Z</time></trkpt><trkpt lat="40.3713402" lon="8.9040862"><ele>921.0</ele><time>2026-03-29T10:13:46.273Z</time></trkpt><trkpt lat="40.3713156" lon="8.9039705"><ele>921.0</ele><time>2026-03-29T10:13:48.274Z</time></trkpt><trkpt lat="40.3713073" lon="8.9038725"><ele>923.5999999999999</ele><time>2026-03-29T10:13:50.273Z</time></trkpt><trkpt lat="40.3713204" lon="8.9037297"><ele>926.1999999999999</ele><time>2026-03-29T10:13:52.273Z</time></trkpt><trkpt lat="40.3713167" lon="8.9035906"><ele>928.8000000000001</ele><time>2026-03-29T10:13:54.274Z</time></trkpt><trkpt lat="40.3713392" lon="8.9034096"><ele>931.4000000000001</ele><time>2026-03-29T10:13:56.275Z</time></trkpt><trkpt lat="40.3713475" lon="8.9032945"><ele>934.0</ele><time>2026-03-29T10:13:57.274Z</time></trkpt><trkpt lat="40.3713438" lon="8.9031987"><ele>935.1666666666666</ele><time>2026-03-29T10:13:58.273Z</time></trkpt><trkpt lat="40.3713321" lon="8.9030725"><ele>936.3333333333333</ele><time>2026-03-29T10:13:59.272Z</time></trkpt><trkpt lat="40.3713349" lon="8.9029707"><ele>937.5</ele><time>2026-03-29T10:14:00.273Z</time></trkpt><trkpt lat="40.3713455" lon="8.9028736"><ele>938.6666666666667</ele><time>2026-03-29T10:14:01.274Z</time></trkpt><trkpt lat="40.3713569" lon="8.9027804"><ele>939.8333333333334</ele><time>2026-03-29T10:14:02.275Z</time></trkpt><trkpt lat="40.3713717" lon="8.9026215"><ele>941.0</ele><time>2026-03-29T10:14:04.272Z</time></trkpt><trkpt lat="40.3714082" lon="8.9025028"><ele>941.0000000000001</ele><time>2026-03-29T10:14:06.274Z</time></trkpt><trkpt lat="40.3714281" lon="8.9023918"><ele>941.0</ele><time>2026-03-29T10:14:08.274Z</time></trkpt><trkpt lat="40.3714517" lon="8.902309"><ele>941.0</ele><time>2026-03-29T10:14:10.274Z</time></trkpt><trkpt lat="40.3714971" lon="8.9022124"><ele>941.0</ele><time>2026-03-29T10:14:13.274Z</time></trkpt><trkpt lat="40.3715111" lon="8.9020921"><ele>941.0000000000001</ele><time>2026-03-29T10:14:15.272Z</time></trkpt><trkpt lat="40.3715048" lon="8.901979"><ele>941.0</ele><time>2026-03-29T10:14:17.273Z</time></trkpt><trkpt lat="40.3714879" lon="8.9018826"><ele>941.0000000000001</ele><time>2026-03-29T10:14:19.273Z</time></trkpt><trkpt lat="40.3714726" lon="8.9017933"><ele>941.0</ele><time>2026-03-29T10:14:21.274Z</time></trkpt><trkpt lat="40.3714491" lon="8.9016994"><ele>941.0</ele><time>2026-03-29T10:14:23.275Z</time></trkpt><trkpt lat="40.3714272" lon="8.9016019"><ele>941.0</ele><time>2026-03-29T10:14:26.273Z</time></trkpt><trkpt lat="40.3714621" lon="8.9015109"><ele>941.0000000000001</ele><time>2026-03-29T10:14:29.272Z</time></trkpt><trkpt lat="40.3714881" lon="8.901406"><ele>941.0</ele><time>2026-03-29T10:14:32.273Z</time></trkpt><trkpt lat="40.3714492" lon="8.9012735"><ele>937.4</ele><time>2026-03-29T10:14:35.275Z</time></trkpt><trkpt lat="40.3714084" lon="8.9011822"><ele>933.8</ele><time>2026-03-29T10:14:37.275Z</time></trkpt><trkpt lat="40.37146" lon="8.9009948"><ele>930.1999999999999</ele><time>2026-03-29T10:14:39.274Z</time></trkpt><trkpt lat="40.371503" lon="8.9008893"><ele>926.5999999999999</ele><time>2026-03-29T10:14:41.273Z</time></trkpt><trkpt lat="40.3715601" lon="8.9008169"><ele>923.0</ele><time>2026-03-29T10:14:43.275Z</time></trkpt><trkpt lat="40.371595" lon="8.9006939"><ele>921.0000000000001</ele><time>2026-03-29T10:14:45.274Z</time></trkpt><trkpt lat="40.3716383" lon="8.90055"><ele>919.0</ele><time>2026-03-29T10:14:47.273Z</time></trkpt><trkpt lat="40.371663" lon="8.9004735"><ele>917.0</ele><time>2026-03-29T10:14:48.273Z</time></trkpt><trkpt lat="40.3716884" lon="8.9003944"><ele>915.0</ele><time>2026-03-29T10:14:49.274Z</time></trkpt><trkpt lat="40.3717202" lon="8.9003207"><ele>913.0000000000001</ele><time>2026-03-29T10:14:50.274Z</time></trkpt><trkpt lat="40.3717884" lon="8.9001753"><ele>911.0</ele><time>2026-03-29T10:14:52.274Z</time></trkpt><trkpt lat="40.3718204" lon="8.9000975"><ele>909.5000000000001</ele><time>2026-03-29T10:14:53.274Z</time></trkpt><trkpt lat="40.3718653" lon="8.8999862"><ele>908.0</ele><time>2026-03-29T10:14:55.274Z</time></trkpt><trkpt lat="40.3718716" lon="8.899902"><ele>906.5</ele><time>2026-03-29T10:14:57.273Z</time></trkpt><trkpt lat="40.3719084" lon="8.8998202"><ele>905.0</ele><time>2026-03-29T10:15:00.274Z</time></trkpt><trkpt lat="40.371938" lon="8.8997149"><ele>903.5000000000001</ele><time>2026-03-29T10:15:04.272Z</time></trkpt><trkpt lat="40.3719525" lon="8.8996008"><ele>902.0</ele><time>2026-03-29T10:15:07.274Z</time></trkpt><trkpt lat="40.371984" lon="8.8995195"><ele>902.0</ele><time>2026-03-29T10:16:43.275Z</time></trkpt><trkpt lat="40.3720129" lon="8.8994362"><ele>902.0</ele><time>2026-03-29T10:16:45.274Z</time></trkpt><trkpt lat="40.3720006" lon="8.8992948"><ele>902.0</ele><time>2026-03-29T10:16:47.274Z</time></trkpt><trkpt lat="40.3719815" lon="8.8991712"><ele>902.0</ele><time>2026-03-29T10:16:49.273Z</time></trkpt><trkpt lat="40.3719951" lon="8.8990273"><ele>902.0</ele><time>2026-03-29T10:16:51.274Z</time></trkpt><trkpt lat="40.3719856" lon="8.8989165"><ele>902.4000000000001</ele><time>2026-03-29T10:16:53.274Z</time></trkpt><trkpt lat="40.3719451" lon="8.8987701"><ele>902.8000000000001</ele><time>2026-03-29T10:16:55.273Z</time></trkpt><trkpt lat="40.3719762" lon="8.8986275"><ele>903.2</ele><time>2026-03-29T10:16:57.275Z</time></trkpt><trkpt lat="40.3720154" lon="8.8985558"><ele>903.6</ele><time>2026-03-29T10:16:58.273Z</time></trkpt><trkpt lat="40.3720632" lon="8.8984814"><ele>904.0</ele><time>2026-03-29T10:16:59.275Z</time></trkpt><trkpt lat="40.3721411" lon="8.8983522"><ele>907.8000000000001</ele><time>2026-03-29T10:17:00.273Z</time></trkpt><trkpt lat="40.3722146" lon="8.8982373"><ele>911.6000000000001</ele><time>2026-03-29T10:17:01.274Z</time></trkpt><trkpt lat="40.3722862" lon="8.8981426"><ele>915.4</ele><time>2026-03-29T10:17:02.275Z</time></trkpt><trkpt lat="40.3723431" lon="8.8980488"><ele>919.2</ele><time>2026-03-29T10:17:03.275Z</time></trkpt><trkpt lat="40.3724054" lon="8.8979909"><ele>923.0</ele><time>2026-03-29T10:17:04.275Z</time></trkpt><trkpt lat="40.3724695" lon="8.8979396"><ele>923.0000000000001</ele><time>2026-03-29T10:17:05.274Z</time></trkpt><trkpt lat="40.3725373" lon="8.8978855"><ele>923.0</ele><time>2026-03-29T10:17:06.273Z</time></trkpt><trkpt lat="40.3726086" lon="8.8978255"><ele>923.0</ele><time>2026-03-29T10:17:07.276Z</time></trkpt><trkpt lat="40.3726806" lon="8.8978161"><ele>923.0</ele><time>2026-03-29T10:17:08.275Z</time></trkpt><trkpt lat="40.372804" lon="8.8977554"><ele>923.0000000000001</ele><time>2026-03-29T10:17:10.275Z</time></trkpt><trkpt lat="40.3728649" lon="8.8977276"><ele>923.0</ele><time>2026-03-29T10:17:11.273Z</time></trkpt><trkpt lat="40.3729565" lon="8.8977134"><ele>923.0000000000001</ele><time>2026-03-29T10:17:13.274Z</time></trkpt><trkpt lat="40.3730119" lon="8.8976684"><ele>923.0</ele><time>2026-03-29T10:17:15.275Z</time></trkpt><trkpt lat="40.3729723" lon="8.8975623"><ele>923.0</ele><time>2026-03-29T10:17:17.275Z</time></trkpt><trkpt lat="40.3729212" lon="8.8974712"><ele>923.0</ele><time>2026-03-29T10:17:18.274Z</time></trkpt><trkpt lat="40.3728754" lon="8.8973695"><ele>923.0000000000001</ele><time>2026-03-29T10:17:19.274Z</time></trkpt><trkpt lat="40.3728174" lon="8.8972554"><ele>923.0</ele><time>2026-03-29T10:17:20.275Z</time></trkpt><trkpt lat="40.3727523" lon="8.8971479"><ele>925.8</ele><time>2026-03-29T10:17:21.273Z</time></trkpt><trkpt lat="40.3726902" lon="8.8970356"><ele>928.5999999999999</ele><time>2026-03-29T10:17:22.273Z</time></trkpt><trkpt lat="40.3726263" lon="8.8969475"><ele>931.4000000000001</ele><time>2026-03-29T10:17:23.274Z</time></trkpt><trkpt lat="40.3725661" lon="8.8968544"><ele>934.2</ele><time>2026-03-29T10:17:24.275Z</time></trkpt><trkpt lat="40.3725095" lon="8.8967568"><ele>937.0</ele><time>2026-03-29T10:17:25.276Z</time></trkpt><trkpt lat="40.3724624" lon="8.8966485"><ele>938.0</ele><time>2026-03-29T10:17:26.273Z</time></trkpt><trkpt lat="40.372422" lon="8.896532"><ele>939.0</ele><time>2026-03-29T10:17:27.275Z</time></trkpt><trkpt lat="40.3723711" lon="8.8964198"><ele>940.0</ele><time>2026-03-29T10:17:28.274Z</time></trkpt><trkpt lat="40.3723245" lon="8.8963068"><ele>941.0</ele><time>2026-03-29T10:17:29.274Z</time></trkpt><trkpt lat="40.3722721" lon="8.8962102"><ele>942.0</ele><time>2026-03-29T10:17:30.274Z</time></trkpt><trkpt lat="40.3722137" lon="8.8961221"><ele>942.6</ele><time>2026-03-29T10:17:31.274Z</time></trkpt><trkpt lat="40.3721647" lon="8.8960181"><ele>943.2</ele><time>2026-03-29T10:17:32.275Z</time></trkpt><trkpt lat="40.3721157" lon="8.8959006"><ele>943.8</ele><time>2026-03-29T10:17:33.273Z</time></trkpt><trkpt lat="40.3720623" lon="8.8957639"><ele>944.4</ele><time>2026-03-29T10:17:34.273Z</time></trkpt><trkpt lat="40.3720139" lon="8.8956379"><ele>945.0</ele><time>2026-03-29T10:17:35.275Z</time></trkpt><trkpt lat="40.3719739" lon="8.8955231"><ele>945.6666666666666</ele><time>2026-03-29T10:17:36.273Z</time></trkpt><trkpt lat="40.371935" lon="8.8954085"><ele>946.3333333333333</ele><time>2026-03-29T10:17:37.275Z</time></trkpt><trkpt lat="40.371898" lon="8.8953222"><ele>947.0</ele><time>2026-03-29T10:17:38.275Z</time></trkpt><trkpt lat="40.3718643" lon="8.8952488"><ele>947.6666666666666</ele><time>2026-03-29T10:17:39.273Z</time></trkpt><trkpt lat="40.3717575" lon="8.8951699"><ele>948.3333333333333</ele><time>2026-03-29T10:17:41.273Z</time></trkpt><trkpt lat="40.3716846" lon="8.8951475"><ele>949.0</ele><time>2026-03-29T10:17:42.275Z</time></trkpt><trkpt lat="40.3716009" lon="8.8951242"><ele>949.0</ele><time>2026-03-29T10:17:43.274Z</time></trkpt><trkpt lat="40.3715063" lon="8.8951088"><ele>949.0</ele><time>2026-03-29T10:17:44.274Z</time></trkpt><trkpt lat="40.3713981" lon="8.8950918"><ele>949.0</ele><time>2026-03-29T10:17:45.274Z</time></trkpt><trkpt lat="40.3712736" lon="8.8950563"><ele>949.0</ele><time>2026-03-29T10:17:46.275Z</time></trkpt><trkpt lat="40.3711489" lon="8.8950277"><ele>950.75</ele><time>2026-03-29T10:17:47.273Z</time></trkpt><trkpt lat="40.3710245" lon="8.8950179"><ele>952.5</ele><time>2026-03-29T10:17:48.273Z</time></trkpt><trkpt lat="40.3708964" lon="8.8950211"><ele>954.25</ele><time>2026-03-29T10:17:49.274Z</time></trkpt><trkpt lat="40.370774" lon="8.8950238"><ele>956.0</ele><time>2026-03-29T10:17:50.276Z</time></trkpt><trkpt lat="40.3706621" lon="8.8950195"><ele>955.5</ele><time>2026-03-29T10:17:51.275Z</time></trkpt><trkpt lat="40.3704474" lon="8.8950105"><ele>955.0</ele><time>2026-03-29T10:17:53.275Z</time></trkpt><trkpt lat="40.3703566" lon="8.8949965"><ele>954.5</ele><time>2026-03-29T10:17:54.273Z</time></trkpt><trkpt lat="40.3702824" lon="8.8950032"><ele>954.0</ele><time>2026-03-29T10:17:55.274Z</time></trkpt><trkpt lat="40.3702142" lon="8.8950247"><ele>954.0</ele><time>2026-03-29T10:17:56.274Z</time></trkpt><trkpt lat="40.370139" lon="8.895054"><ele>954.0</ele><time>2026-03-29T10:17:57.273Z</time></trkpt><trkpt lat="40.3700542" lon="8.8950812"><ele>954.0</ele><time>2026-03-29T10:17:58.274Z</time></trkpt><trkpt lat="40.3699672" lon="8.8951105"><ele>954.0</ele><time>2026-03-29T10:17:59.273Z</time></trkpt><trkpt lat="40.3698805" lon="8.895131"><ele>954.0</ele><time>2026-03-29T10:18:00.275Z</time></trkpt><trkpt lat="40.3698007" lon="8.8951596"><ele>954.0</ele><time>2026-03-29T10:18:01.275Z</time></trkpt><trkpt lat="40.3697123" lon="8.8951876"><ele>954.8000000000001</ele><time>2026-03-29T10:18:02.274Z</time></trkpt><trkpt lat="40.3696195" lon="8.8952239"><ele>955.6000000000001</ele><time>2026-03-29T10:18:03.274Z</time></trkpt><trkpt lat="40.3695293" lon="8.8952782"><ele>956.4</ele><time>2026-03-29T10:18:04.276Z</time></trkpt><trkpt lat="40.369435" lon="8.8953314"><ele>957.2</ele><time>2026-03-29T10:18:05.276Z</time></trkpt><trkpt lat="40.3693551" lon="8.8953804"><ele>958.0</ele><time>2026-03-29T10:18:06.273Z</time></trkpt><trkpt lat="40.3692132" lon="8.8954216"><ele>957.9999999999999</ele><time>2026-03-29T10:18:08.275Z</time></trkpt><trkpt lat="40.3691398" lon="8.8953864"><ele>958.0</ele><time>2026-03-29T10:18:09.273Z</time></trkpt><trkpt lat="40.3690581" lon="8.895336"><ele>958.0</ele><time>2026-03-29T10:18:10.276Z</time></trkpt><trkpt lat="40.368975" lon="8.895292"><ele>958.0</ele><time>2026-03-29T10:18:11.274Z</time></trkpt><trkpt lat="40.3688944" lon="8.8952497"><ele>957.9999999999999</ele><time>2026-03-29T10:18:12.274Z</time></trkpt><trkpt lat="40.3688207" lon="8.8952068"><ele>958.0</ele><time>2026-03-29T10:18:13.275Z</time></trkpt><trkpt lat="40.3687225" lon="8.8951423"><ele>958.5999999999999</ele><time>2026-03-29T10:18:15.274Z</time></trkpt><trkpt lat="40.3686467" lon="8.8950232"><ele>959.1999999999999</ele><time>2026-03-29T10:18:17.273Z</time></trkpt><trkpt lat="40.368585" lon="8.8949305"><ele>959.8</ele><time>2026-03-29T10:18:19.275Z</time></trkpt><trkpt lat="40.3685044" lon="8.8948954"><ele>960.4</ele><time>2026-03-29T10:18:21.274Z</time></trkpt><trkpt lat="40.368376" lon="8.8948908"><ele>961.0</ele><time>2026-03-29T10:18:23.275Z</time></trkpt><trkpt lat="40.3682992" lon="8.894881"><ele>960.9999999999999</ele><time>2026-03-29T10:18:24.275Z</time></trkpt><trkpt lat="40.3682215" lon="8.8948676"><ele>961.0</ele><time>2026-03-29T10:18:25.273Z</time></trkpt><trkpt lat="40.3681403" lon="8.894831"><ele>961.0</ele><time>2026-03-29T10:18:26.274Z</time></trkpt><trkpt lat="40.3680491" lon="8.8947855"><ele>961.0</ele><time>2026-03-29T10:18:27.274Z</time></trkpt><trkpt lat="40.3679684" lon="8.8947293"><ele>960.9999999999999</ele><time>2026-03-29T10:18:28.275Z</time></trkpt><trkpt lat="40.3678914" lon="8.89468"><ele>961.0</ele><time>2026-03-29T10:18:29.275Z</time></trkpt><trkpt lat="40.3678269" lon="8.8946305"><ele>961.4999999999999</ele><time>2026-03-29T10:18:30.275Z</time></trkpt><trkpt lat="40.3677704" lon="8.8945813"><ele>962.0</ele><time>2026-03-29T10:18:31.276Z</time></trkpt><trkpt lat="40.3676928" lon="8.8944548"><ele>962.5</ele><time>2026-03-29T10:18:33.275Z</time></trkpt><trkpt lat="40.3676465" lon="8.8943746"><ele>963.0</ele><time>2026-03-29T10:18:34.274Z</time></trkpt><trkpt lat="40.3675914" lon="8.8943079"><ele>963.4999999999999</ele><time>2026-03-29T10:18:35.273Z</time></trkpt><trkpt lat="40.3675326" lon="8.8942522"><ele>964.0</ele><time>2026-03-29T10:18:36.275Z</time></trkpt><trkpt lat="40.3674695" lon="8.8942082"><ele>964.3333333333333</ele><time>2026-03-29T10:18:37.274Z</time></trkpt><trkpt lat="40.3674003" lon="8.8941656"><ele>964.6666666666666</ele><time>2026-03-29T10:18:38.274Z</time></trkpt><trkpt lat="40.367327" lon="8.8941179"><ele>965.0</ele><time>2026-03-29T10:18:39.273Z</time></trkpt><trkpt lat="40.3672677" lon="8.8940806"><ele>965.3333333333333</ele><time>2026-03-29T10:18:40.274Z</time></trkpt><trkpt lat="40.3672049" lon="8.8940511"><ele>965.6666666666666</ele><time>2026-03-29T10:18:41.274Z</time></trkpt><trkpt lat="40.3671397" lon="8.894029"><ele>966.0</ele><time>2026-03-29T10:18:42.275Z</time></trkpt><trkpt lat="40.367046" lon="8.8940093"><ele>966.6666666666666</ele><time>2026-03-29T10:18:44.275Z</time></trkpt><trkpt lat="40.3669264" lon="8.8939816"><ele>967.3333333333333</ele><time>2026-03-29T10:18:46.275Z</time></trkpt><trkpt lat="40.3668609" lon="8.8939624"><ele>968.0</ele><time>2026-03-29T10:18:47.274Z</time></trkpt><trkpt lat="40.366797" lon="8.8939525"><ele>968.6666666666666</ele><time>2026-03-29T10:18:48.275Z</time></trkpt><trkpt lat="40.3667356" lon="8.8939339"><ele>969.3333333333333</ele><time>2026-03-29T10:18:49.275Z</time></trkpt><trkpt lat="40.3666244" lon="8.8938942"><ele>970.0</ele><time>2026-03-29T10:18:51.274Z</time></trkpt><trkpt lat="40.3665638" lon="8.8938643"><ele>970.0</ele><time>2026-03-29T10:18:52.274Z</time></trkpt><trkpt lat="40.3664719" lon="8.893833"><ele>970.0</ele><time>2026-03-29T10:18:54.273Z</time></trkpt><trkpt lat="40.3663963" lon="8.8937478"><ele>970.0</ele><time>2026-03-29T10:18:56.275Z</time></trkpt><trkpt lat="40.3663271" lon="8.8936344"><ele>970.0</ele><time>2026-03-29T10:18:58.275Z</time></trkpt><trkpt lat="40.3662423" lon="8.8935352"><ele>970.0</ele><time>2026-03-29T10:19:00.274Z</time></trkpt><trkpt lat="40.3661257" lon="8.8935268"><ele>970.8</ele><time>2026-03-29T10:19:02.276Z</time></trkpt><trkpt lat="40.3660564" lon="8.8935415"><ele>971.6</ele><time>2026-03-29T10:19:03.276Z</time></trkpt><trkpt lat="40.3659448" lon="8.8935894"><ele>972.4000000000001</ele><time>2026-03-29T10:19:05.273Z</time></trkpt><trkpt lat="40.3658286" lon="8.8935865"><ele>973.2</ele><time>2026-03-29T10:19:07.274Z</time></trkpt><trkpt lat="40.3657567" lon="8.8935838"><ele>974.0</ele><time>2026-03-29T10:19:08.275Z</time></trkpt><trkpt lat="40.3656714" lon="8.8935599"><ele>974.0</ele><time>2026-03-29T10:19:09.273Z</time></trkpt><trkpt lat="40.3656012" lon="8.8935381"><ele>974.0</ele><time>2026-03-29T10:19:10.276Z</time></trkpt><trkpt lat="40.365531" lon="8.893526"><ele>974.0</ele><time>2026-03-29T10:19:11.274Z</time></trkpt><trkpt lat="40.3654627" lon="8.8935186"><ele>974.0</ele><time>2026-03-29T10:19:12.275Z</time></trkpt><trkpt lat="40.3653959" lon="8.8934992"><ele>974.0</ele><time>2026-03-29T10:19:13.275Z</time></trkpt><trkpt lat="40.3653304" lon="8.8934695"><ele>974.0</ele><time>2026-03-29T10:19:14.274Z</time></trkpt><trkpt lat="40.3652545" lon="8.8934248"><ele>974.0</ele><time>2026-03-29T10:19:15.275Z</time></trkpt><trkpt lat="40.3651856" lon="8.8933903"><ele>976.6</ele><time>2026-03-29T10:19:16.275Z</time></trkpt><trkpt lat="40.3651206" lon="8.8933626"><ele>979.2</ele><time>2026-03-29T10:19:17.275Z</time></trkpt><trkpt lat="40.3650532" lon="8.8933593"><ele>981.8000000000001</ele><time>2026-03-29T10:19:18.275Z</time></trkpt><trkpt lat="40.3649841" lon="8.8933528"><ele>984.4000000000001</ele><time>2026-03-29T10:19:19.275Z</time></trkpt><trkpt lat="40.3648557" lon="8.8933102"><ele>987.0</ele><time>2026-03-29T10:19:21.273Z</time></trkpt><trkpt lat="40.3647426" lon="8.8932938"><ele>987.0</ele><time>2026-03-29T10:19:23.275Z</time></trkpt><trkpt lat="40.3646722" lon="8.8932162"><ele>987.0</ele><time>2026-03-29T10:19:25.276Z</time></trkpt><trkpt lat="40.3647211" lon="8.8930694"><ele>987.0</ele><time>2026-03-29T10:19:27.276Z</time></trkpt><trkpt lat="40.3647698" lon="8.8929837"><ele>987.0</ele><time>2026-03-29T10:19:28.275Z</time></trkpt><trkpt lat="40.3648166" lon="8.8929146"><ele>987.0</ele><time>2026-03-29T10:19:29.275Z</time></trkpt><trkpt lat="40.3648479" lon="8.892841"><ele>987.0</ele><time>2026-03-29T10:19:30.275Z</time></trkpt><trkpt lat="40.3648921" lon="8.8926567"><ele>988.1666666666666</ele><time>2026-03-29T10:19:32.275Z</time></trkpt><trkpt lat="40.3649195" lon="8.8925417"><ele>989.3333333333333</ele><time>2026-03-29T10:19:33.275Z</time></trkpt><trkpt lat="40.3649301" lon="8.8924402"><ele>990.5</ele><time>2026-03-29T10:19:34.274Z</time></trkpt><trkpt lat="40.3648971" lon="8.8923153"><ele>991.6666666666666</ele><time>2026-03-29T10:19:36.276Z</time></trkpt><trkpt lat="40.3648426" lon="8.8922726"><ele>992.8333333333333</ele><time>2026-03-29T10:19:38.273Z</time></trkpt><trkpt lat="40.3647777" lon="8.8922471"><ele>994.0</ele><time>2026-03-29T10:20:26.276Z</time></trkpt><trkpt lat="40.3647132" lon="8.8922531"><ele>995.6666666666666</ele><time>2026-03-29T10:21:14.243Z</time></trkpt><trkpt lat="40.3644595" lon="8.892149"><ele>997.3333333333333</ele><time>2026-03-29T10:21:25.274Z</time></trkpt><trkpt lat="40.3643435" lon="8.8921038"><ele>999.0</ele><time>2026-03-29T10:21:26.274Z</time></trkpt><trkpt lat="40.3642444" lon="8.8920611"><ele>999.0</ele><time>2026-03-29T10:21:27.275Z</time></trkpt><trkpt lat="40.3641596" lon="8.8920255"><ele>999.0000000000001</ele><time>2026-03-29T10:21:28.274Z</time></trkpt><trkpt lat="40.3640802" lon="8.8919781"><ele>999.0000000000001</ele><time>2026-03-29T10:21:29.275Z</time></trkpt><trkpt lat="40.3639998" lon="8.8919408"><ele>999.0</ele><time>2026-03-29T10:21:30.276Z</time></trkpt><trkpt lat="40.363926" lon="8.8919132"><ele>999.0</ele><time>2026-03-29T10:21:31.276Z</time></trkpt><trkpt lat="40.3638056" lon="8.8919052"><ele>998.8333333333334</ele><time>2026-03-29T10:21:33.274Z</time></trkpt><trkpt lat="40.3637388" lon="8.8919265"><ele>998.6666666666667</ele><time>2026-03-29T10:21:34.276Z</time></trkpt><trkpt lat="40.3636259" lon="8.8918821"><ele>998.5</ele><time>2026-03-29T10:21:36.275Z</time></trkpt><trkpt lat="40.3635516" lon="8.8918171"><ele>998.3333333333334</ele><time>2026-03-29T10:21:37.275Z</time></trkpt><trkpt lat="40.3634826" lon="8.8917526"><ele>998.1666666666667</ele><time>2026-03-29T10:21:38.274Z</time></trkpt><trkpt lat="40.3634148" lon="8.8917017"><ele>998.0</ele><time>2026-03-29T10:21:39.275Z</time></trkpt><trkpt lat="40.3633362" lon="8.891678"><ele>998.0</ele><time>2026-03-29T10:21:40.276Z</time></trkpt><trkpt lat="40.3632353" lon="8.8916439"><ele>998.0</ele><time>2026-03-29T10:21:41.274Z</time></trkpt><trkpt lat="40.3631365" lon="8.8916156"><ele>998.0</ele><time>2026-03-29T10:21:42.274Z</time></trkpt><trkpt lat="40.3630384" lon="8.8915813"><ele>998.0</ele><time>2026-03-29T10:21:43.275Z</time></trkpt><trkpt lat="40.3629436" lon="8.8915456"><ele>998.0</ele><time>2026-03-29T10:21:44.275Z</time></trkpt><trkpt lat="40.3628484" lon="8.8915196"><ele>998.5999999999999</ele><time>2026-03-29T10:21:45.275Z</time></trkpt><trkpt lat="40.3627495" lon="8.8914883"><ele>999.1999999999999</ele><time>2026-03-29T10:21:46.275Z</time></trkpt><trkpt lat="40.3626657" lon="8.8914536"><ele>999.8</ele><time>2026-03-29T10:21:47.275Z</time></trkpt><trkpt lat="40.3625818" lon="8.891409"><ele>1000.4</ele><time>2026-03-29T10:21:48.276Z</time></trkpt><trkpt lat="40.3624927" lon="8.891383"><ele>1001.0</ele><time>2026-03-29T10:21:49.275Z</time></trkpt><trkpt lat="40.3624114" lon="8.8913642"><ele>1001.0000000000001</ele><time>2026-03-29T10:21:50.276Z</time></trkpt><trkpt lat="40.3623499" lon="8.8913429"><ele>1001.0</ele><time>2026-03-29T10:21:51.275Z</time></trkpt><trkpt lat="40.3622851" lon="8.8913441"><ele>1001.0</ele><time>2026-03-29T10:21:52.275Z</time></trkpt><trkpt lat="40.3622183" lon="8.8913508"><ele>1001.0</ele><time>2026-03-29T10:21:53.275Z</time></trkpt><trkpt lat="40.3620913" lon="8.8913213"><ele>1001.0000000000001</ele><time>2026-03-29T10:21:55.276Z</time></trkpt><trkpt lat="40.3620246" lon="8.8912934"><ele>1001.0</ele><time>2026-03-29T10:21:56.275Z</time></trkpt><trkpt lat="40.3619525" lon="8.8912641"><ele>1001.4</ele><time>2026-03-29T10:21:57.275Z</time></trkpt><trkpt lat="40.3618735" lon="8.8912097"><ele>1001.8</ele><time>2026-03-29T10:21:58.275Z</time></trkpt><trkpt lat="40.3617739" lon="8.8911509"><ele>1002.1999999999999</ele><time>2026-03-29T10:21:59.276Z</time></trkpt><trkpt lat="40.3616716" lon="8.8910949"><ele>1002.5999999999999</ele><time>2026-03-29T10:22:00.275Z</time></trkpt><trkpt lat="40.3615648" lon="8.891048"><ele>1003.0</ele><time>2026-03-29T10:22:01.275Z</time></trkpt><trkpt lat="40.3614646" lon="8.89101"><ele>1003.0</ele><time>2026-03-29T10:22:02.274Z</time></trkpt><trkpt lat="40.3613729" lon="8.890977"><ele>1003.0</ele><time>2026-03-29T10:22:03.275Z</time></trkpt><trkpt lat="40.3612751" lon="8.8909371"><ele>1003.0</ele><time>2026-03-29T10:22:04.274Z</time></trkpt><trkpt lat="40.3611856" lon="8.8908983"><ele>1003.0</ele><time>2026-03-29T10:22:05.275Z</time></trkpt><trkpt lat="40.3611163" lon="8.8908697"><ele>1003.0</ele><time>2026-03-29T10:22:06.275Z</time></trkpt><trkpt lat="40.3610356" lon="8.8908276"><ele>1002.5</ele><time>2026-03-29T10:22:08.276Z</time></trkpt><trkpt lat="40.3609667" lon="8.8907717"><ele>1002.0</ele><time>2026-03-29T10:22:47.274Z</time></trkpt><trkpt lat="40.3608804" lon="8.8907549"><ele>1001.5</ele><time>2026-03-29T10:23:43.276Z</time></trkpt><trkpt lat="40.3607079" lon="8.890691"><ele>1001.0</ele><time>2026-03-29T10:23:45.275Z</time></trkpt><trkpt lat="40.360593" lon="8.890644"><ele>1003.3333333333334</ele><time>2026-03-29T10:23:46.276Z</time></trkpt><trkpt lat="40.3603822" lon="8.8905629"><ele>1005.6666666666667</ele><time>2026-03-29T10:23:47.275Z</time></trkpt><trkpt lat="40.36018" lon="8.8904884"><ele>1008.0</ele><time>2026-03-29T10:23:48.275Z</time></trkpt><trkpt lat="40.3599721" lon="8.8904138"><ele>1008.0</ele><time>2026-03-29T10:23:49.275Z</time></trkpt><trkpt lat="40.3598048" lon="8.8903556"><ele>1008.0</ele><time>2026-03-29T10:23:50.276Z</time></trkpt><trkpt lat="40.3596608" lon="8.890301"><ele>1008.0</ele><time>2026-03-29T10:23:51.277Z</time></trkpt><trkpt lat="40.3595173" lon="8.8902509"><ele>1007.6666666666667</ele><time>2026-03-29T10:23:52.277Z</time></trkpt><trkpt lat="40.3593612" lon="8.8901972"><ele>1007.3333333333334</ele><time>2026-03-29T10:23:53.275Z</time></trkpt><trkpt lat="40.3591811" lon="8.890125"><ele>1007.0</ele><time>2026-03-29T10:23:54.275Z</time></trkpt><trkpt lat="40.3589854" lon="8.8900527"><ele>1005.6666666666667</ele><time>2026-03-29T10:23:55.275Z</time></trkpt><trkpt lat="40.3588006" lon="8.8899786"><ele>1004.3333333333333</ele><time>2026-03-29T10:23:56.276Z</time></trkpt><trkpt lat="40.3586258" lon="8.8899067"><ele>1003.0</ele><time>2026-03-29T10:23:57.275Z</time></trkpt><trkpt lat="40.3584644" lon="8.8898393"><ele>1003.0</ele><time>2026-03-29T10:23:58.275Z</time></trkpt><trkpt lat="40.3583257" lon="8.8897809"><ele>1003.0</ele><time>2026-03-29T10:23:59.276Z</time></trkpt><trkpt lat="40.3582045" lon="8.8897402"><ele>1003.0</ele><time>2026-03-29T10:24:00.275Z</time></trkpt><trkpt lat="40.3580826" lon="8.8896942"><ele>1003.0</ele><time>2026-03-29T10:24:01.275Z</time></trkpt><trkpt lat="40.3579538" lon="8.8896451"><ele>1003.8</ele><time>2026-03-29T10:24:02.274Z</time></trkpt><trkpt lat="40.3578498" lon="8.8896052"><ele>1004.5999999999999</ele><time>2026-03-29T10:24:03.276Z</time></trkpt><trkpt lat="40.3577412" lon="8.8895868"><ele>1005.4000000000001</ele><time>2026-03-29T10:24:04.275Z</time></trkpt><trkpt lat="40.3576462" lon="8.8895818"><ele>1006.2</ele><time>2026-03-29T10:24:05.275Z</time></trkpt><trkpt lat="40.3575746" lon="8.8895746"><ele>1007.0</ele><time>2026-03-29T10:24:06.274Z</time></trkpt><trkpt lat="40.3574642" lon="8.8895864"><ele>1007.0</ele><time>2026-03-29T10:24:08.275Z</time></trkpt><trkpt lat="40.3574319" lon="8.8896832"><ele>1007.0</ele><time>2026-03-29T10:24:28.275Z</time></trkpt><trkpt lat="40.3574513" lon="8.8897666"><ele>1007.0</ele><time>2026-03-29T10:24:31.275Z</time></trkpt><trkpt lat="40.3574636" lon="8.8898727"><ele>1007.0</ele><time>2026-03-29T10:25:50.276Z</time></trkpt><trkpt lat="40.3574844" lon="8.8899994"><ele>1007.0</ele><time>2026-03-29T10:25:53.277Z</time></trkpt><trkpt lat="40.3574534" lon="8.8901865"><ele>1007.3333333333334</ele><time>2026-03-29T10:25:55.277Z</time></trkpt><trkpt lat="40.3574321" lon="8.8903222"><ele>1007.6666666666667</ele><time>2026-03-29T10:25:56.277Z</time></trkpt><trkpt lat="40.3574089" lon="8.8904361"><ele>1008.0</ele><time>2026-03-29T10:25:57.275Z</time></trkpt><trkpt lat="40.3573893" lon="8.8905348"><ele>1008.3333333333333</ele><time>2026-03-29T10:25:58.276Z</time></trkpt><trkpt lat="40.3573884" lon="8.8906461"><ele>1008.6666666666666</ele><time>2026-03-29T10:25:59.276Z</time></trkpt><trkpt lat="40.3573886" lon="8.8907534"><ele>1009.0</ele><time>2026-03-29T10:26:00.276Z</time></trkpt><trkpt lat="40.3573608" lon="8.8908617"><ele>1009.8000000000001</ele><time>2026-03-29T10:26:01.278Z</time></trkpt><trkpt lat="40.3573268" lon="8.890986"><ele>1010.6000000000001</ele><time>2026-03-29T10:26:02.275Z</time></trkpt><trkpt lat="40.3573051" lon="8.8911207"><ele>1011.4</ele><time>2026-03-29T10:26:03.275Z</time></trkpt><trkpt lat="40.3572816" lon="8.8912623"><ele>1012.2</ele><time>2026-03-29T10:26:04.276Z</time></trkpt><trkpt lat="40.3572569" lon="8.8914253"><ele>1013.0</ele><time>2026-03-29T10:26:05.275Z</time></trkpt><trkpt lat="40.3572363" lon="8.8915856"><ele>1013.0</ele><time>2026-03-29T10:26:06.275Z</time></trkpt><trkpt lat="40.3572259" lon="8.8917366"><ele>1013.0</ele><time>2026-03-29T10:26:07.276Z</time></trkpt><trkpt lat="40.357217" lon="8.8918946"><ele>1013.0</ele><time>2026-03-29T10:26:08.276Z</time></trkpt><trkpt lat="40.3572051" lon="8.8920786"><ele>1013.0</ele><time>2026-03-29T10:26:09.276Z</time></trkpt><trkpt lat="40.3572021" lon="8.8922626"><ele>1014.5</ele><time>2026-03-29T10:26:10.276Z</time></trkpt><trkpt lat="40.357204" lon="8.8924504"><ele>1016.0</ele><time>2026-03-29T10:26:11.275Z</time></trkpt><trkpt lat="40.3572025" lon="8.8926153"><ele>1017.5</ele><time>2026-03-29T10:26:12.277Z</time></trkpt><trkpt lat="40.3571895" lon="8.892772"><ele>1019.0</ele><time>2026-03-29T10:26:13.276Z</time></trkpt><trkpt lat="40.3571625" lon="8.8929442"><ele>1020.75</ele><time>2026-03-29T10:26:14.275Z</time></trkpt><trkpt lat="40.3571368" lon="8.8930898"><ele>1022.5</ele><time>2026-03-29T10:26:15.276Z</time></trkpt><trkpt lat="40.3571225" lon="8.8932403"><ele>1024.25</ele><time>2026-03-29T10:26:16.276Z</time></trkpt><trkpt lat="40.3571106" lon="8.8934102"><ele>1026.0</ele><time>2026-03-29T10:26:17.275Z</time></trkpt><trkpt lat="40.3571086" lon="8.8935692"><ele>1026.5</ele><time>2026-03-29T10:26:18.275Z</time></trkpt><trkpt lat="40.3571115" lon="8.893733"><ele>1027.0</ele><time>2026-03-29T10:26:19.278Z</time></trkpt><trkpt lat="40.3571259" lon="8.8939229"><ele>1027.5</ele><time>2026-03-29T10:26:20.275Z</time></trkpt><trkpt lat="40.3571387" lon="8.8940967"><ele>1028.0</ele><time>2026-03-29T10:26:21.277Z</time></trkpt><trkpt lat="40.3571446" lon="8.8942574"><ele>1028.0</ele><time>2026-03-29T10:26:22.276Z</time></trkpt><trkpt lat="40.3571445" lon="8.8943903"><ele>1028.0</ele><time>2026-03-29T10:26:23.276Z</time></trkpt><trkpt lat="40.3571424" lon="8.8944983"><ele>1028.0</ele><time>2026-03-29T10:26:24.277Z</time></trkpt><trkpt lat="40.3571292" lon="8.8946026"><ele>1028.0</ele><time>2026-03-29T10:26:25.276Z</time></trkpt><trkpt lat="40.357168" lon="8.8947599"><ele>1028.0</ele><time>2026-03-29T10:26:27.276Z</time></trkpt><trkpt lat="40.3571758" lon="8.894843"><ele>1028.0</ele><time>2026-03-29T10:26:28.277Z</time></trkpt><trkpt lat="40.3571582" lon="8.8949325"><ele>1028.0</ele><time>2026-03-29T10:26:29.276Z</time></trkpt><trkpt lat="40.3571174" lon="8.8950227"><ele>1028.0</ele><time>2026-03-29T10:26:30.275Z</time></trkpt><trkpt lat="40.3570847" lon="8.8951538"><ele>1028.0</ele><time>2026-03-29T10:26:31.278Z</time></trkpt><trkpt lat="40.3570607" lon="8.895289"><ele>1028.0</ele><time>2026-03-29T10:26:32.276Z</time></trkpt><trkpt lat="40.3570334" lon="8.8954138"><ele>1026.8333333333335</ele><time>2026-03-29T10:26:33.276Z</time></trkpt><trkpt lat="40.3570159" lon="8.895512"><ele>1025.6666666666667</ele><time>2026-03-29T10:26:34.276Z</time></trkpt><trkpt lat="40.3569949" lon="8.895598"><ele>1024.5</ele><time>2026-03-29T10:26:35.276Z</time></trkpt><trkpt lat="40.3569636" lon="8.8956806"><ele>1023.3333333333333</ele><time>2026-03-29T10:26:36.275Z</time></trkpt><trkpt lat="40.3568727" lon="8.8957863"><ele>1022.1666666666666</ele><time>2026-03-29T10:26:38.277Z</time></trkpt><trkpt lat="40.3568162" lon="8.8958279"><ele>1021.0</ele><time>2026-03-29T10:26:39.275Z</time></trkpt><trkpt lat="40.3567508" lon="8.8958521"><ele>1020.9999999999999</ele><time>2026-03-29T10:26:40.277Z</time></trkpt><trkpt lat="40.3566731" lon="8.8958545"><ele>1021.0</ele><time>2026-03-29T10:26:41.277Z</time></trkpt><trkpt lat="40.3565976" lon="8.8958817"><ele>1021.0</ele><time>2026-03-29T10:26:42.276Z</time></trkpt><trkpt lat="40.3565229" lon="8.8959129"><ele>1021.0</ele><time>2026-03-29T10:26:43.275Z</time></trkpt><trkpt lat="40.3564534" lon="8.8959559"><ele>1020.9999999999999</ele><time>2026-03-29T10:26:44.275Z</time></trkpt><trkpt lat="40.356393" lon="8.8959915"><ele>1021.0</ele><time>2026-03-29T10:26:45.277Z</time></trkpt><trkpt lat="40.3563233" lon="8.896098"><ele>1020.4999999999999</ele><time>2026-03-29T10:26:47.277Z</time></trkpt><trkpt lat="40.3562776" lon="8.8961758"><ele>1020.0</ele><time>2026-03-29T10:26:48.276Z</time></trkpt><trkpt lat="40.3562414" lon="8.8962521"><ele>1019.5</ele><time>2026-03-29T10:26:49.277Z</time></trkpt><trkpt lat="40.3562029" lon="8.8963511"><ele>1019.0</ele><time>2026-03-29T10:26:50.276Z</time></trkpt><trkpt lat="40.35618" lon="8.8964425"><ele>1018.4999999999999</ele><time>2026-03-29T10:26:51.277Z</time></trkpt><trkpt lat="40.3561334" lon="8.8965582"><ele>1018.0</ele><time>2026-03-29T10:26:52.275Z</time></trkpt><trkpt lat="40.3560909" lon="8.8966522"><ele>1017.9999999999999</ele><time>2026-03-29T10:26:53.276Z</time></trkpt><trkpt lat="40.3560515" lon="8.8967514"><ele>1018.0</ele><time>2026-03-29T10:26:54.277Z</time></trkpt><trkpt lat="40.356022" lon="8.8968366"><ele>1018.0</ele><time>2026-03-29T10:26:55.277Z</time></trkpt><trkpt lat="40.3559752" lon="8.8969156"><ele>1018.0</ele><time>2026-03-29T10:26:56.276Z</time></trkpt><trkpt lat="40.3559334" lon="8.8970046"><ele>1017.9999999999999</ele><time>2026-03-29T10:26:57.276Z</time></trkpt><trkpt lat="40.3558962" lon="8.8970991"><ele>1018.0</ele><time>2026-03-29T10:26:58.275Z</time></trkpt><trkpt lat="40.3558469" lon="8.8971939"><ele>1016.3333333333333</ele><time>2026-03-29T10:26:59.276Z</time></trkpt><trkpt lat="40.3558137" lon="8.8972925"><ele>1014.6666666666666</ele><time>2026-03-29T10:27:00.275Z</time></trkpt><trkpt lat="40.3557925" lon="8.8973706"><ele>1013.0</ele><time>2026-03-29T10:27:01.276Z</time></trkpt><trkpt lat="40.3557697" lon="8.897449"><ele>1011.3333333333333</ele><time>2026-03-29T10:27:02.276Z</time></trkpt><trkpt lat="40.3557436" lon="8.8975418"><ele>1009.6666666666666</ele><time>2026-03-29T10:27:03.277Z</time></trkpt><trkpt lat="40.3557014" lon="8.8976777"><ele>1008.0</ele><time>2026-03-29T10:27:05.277Z</time></trkpt><trkpt lat="40.3556693" lon="8.8978208"><ele>1006.6666666666666</ele><time>2026-03-29T10:27:07.276Z</time></trkpt><trkpt lat="40.3556266" lon="8.8979792"><ele>1005.3333333333333</ele><time>2026-03-29T10:27:09.277Z</time></trkpt><trkpt lat="40.3556169" lon="8.8980688"><ele>1004.0</ele><time>2026-03-29T10:27:10.276Z</time></trkpt><trkpt lat="40.3556014" lon="8.898161"><ele>1002.6666666666666</ele><time>2026-03-29T10:27:11.276Z</time></trkpt><trkpt lat="40.3555775" lon="8.8982402"><ele>1001.3333333333333</ele><time>2026-03-29T10:27:12.276Z</time></trkpt><trkpt lat="40.3555696" lon="8.8983351"><ele>1000.0</ele><time>2026-03-29T10:27:13.276Z</time></trkpt><trkpt lat="40.3555784" lon="8.8984187"><ele>999.6666666666666</ele><time>2026-03-29T10:27:15.277Z</time></trkpt><trkpt lat="40.3556449" lon="8.8984979"><ele>999.3333333333333</ele><time>2026-03-29T10:27:18.276Z</time></trkpt><trkpt lat="40.35574" lon="8.8984931"><ele>999.0</ele><time>2026-03-29T10:27:20.276Z</time></trkpt><trkpt lat="40.3558306" lon="8.8984736"><ele>998.6666666666667</ele><time>2026-03-29T10:27:22.277Z</time></trkpt><trkpt lat="40.355915" lon="8.8984532"><ele>998.3333333333334</ele><time>2026-03-29T10:27:24.276Z</time></trkpt><trkpt lat="40.3559903" lon="8.898444"><ele>998.0</ele><time>2026-03-29T10:27:26.277Z</time></trkpt><trkpt lat="40.3560692" lon="8.8984339"><ele>998.3333333333334</ele><time>2026-03-29T10:27:29.276Z</time></trkpt><trkpt lat="40.3561332" lon="8.8983855"><ele>998.6666666666667</ele><time>2026-03-29T10:27:33.275Z</time></trkpt><trkpt lat="40.3561919" lon="8.8983048"><ele>999.0</ele><time>2026-03-29T10:27:36.277Z</time></trkpt><trkpt lat="40.3562615" lon="8.898218"><ele>999.3333333333333</ele><time>2026-03-29T10:27:38.276Z</time></trkpt><trkpt lat="40.3563513" lon="8.8981746"><ele>999.6666666666666</ele><time>2026-03-29T10:27:40.277Z</time></trkpt><trkpt lat="40.3564311" lon="8.8981087"><ele>1000.0</ele><time>2026-03-29T10:27:42.276Z</time></trkpt><trkpt lat="40.3565295" lon="8.8980782"><ele>998.4285714285713</ele><time>2026-03-29T10:27:44.276Z</time></trkpt><trkpt lat="40.3565961" lon="8.8981187"><ele>996.8571428571429</ele><time>2026-03-29T10:27:47.276Z</time></trkpt><trkpt lat="40.3565969" lon="8.8982044"><ele>995.2857142857142</ele><time>2026-03-29T10:27:49.276Z</time></trkpt><trkpt lat="40.3565617" lon="8.8982847"><ele>993.7142857142857</ele><time>2026-03-29T10:27:51.275Z</time></trkpt><trkpt lat="40.3565534" lon="8.89837"><ele>992.1428571428571</ele><time>2026-03-29T10:27:53.276Z</time></trkpt><trkpt lat="40.3565326" lon="8.8984588"><ele>990.5714285714286</ele><time>2026-03-29T10:27:55.277Z</time></trkpt><trkpt lat="40.3564899" lon="8.8985225"><ele>989.0</ele><time>2026-03-29T10:27:57.276Z</time></trkpt><trkpt lat="40.3564807" lon="8.8986065"><ele>988.8571428571428</ele><time>2026-03-29T10:27:59.276Z</time></trkpt><trkpt lat="40.3564955" lon="8.8986911"><ele>988.7142857142856</ele><time>2026-03-29T10:28:01.276Z</time></trkpt><trkpt lat="40.3564796" lon="8.8987762"><ele>988.5714285714286</ele><time>2026-03-29T10:28:03.277Z</time></trkpt><trkpt lat="40.3564966" lon="8.8988565"><ele>988.4285714285713</ele><time>2026-03-29T10:28:25.275Z</time></trkpt><trkpt lat="40.3564867" lon="8.8989539"><ele>988.2857142857142</ele><time>2026-03-29T10:29:10.277Z</time></trkpt><trkpt lat="40.3565058" lon="8.8990416"><ele>988.1428571428571</ele><time>2026-03-29T10:29:14.276Z</time></trkpt><trkpt lat="40.3565566" lon="8.8991037"><ele>988.0</ele><time>2026-03-29T10:29:59.276Z</time></trkpt><trkpt lat="40.3566077" lon="8.8991788"><ele>989.2</ele><time>2026-03-29T10:30:01.276Z</time></trkpt><trkpt lat="40.3566882" lon="8.8992668"><ele>990.4</ele><time>2026-03-29T10:30:03.276Z</time></trkpt><trkpt lat="40.3567878" lon="8.899361"><ele>991.6000000000001</ele><time>2026-03-29T10:30:05.276Z</time></trkpt><trkpt lat="40.3568315" lon="8.8994776"><ele>992.8000000000001</ele><time>2026-03-29T10:30:07.277Z</time></trkpt><trkpt lat="40.3568749" lon="8.8995683"><ele>994.0</ele><time>2026-03-29T10:30:09.277Z</time></trkpt><trkpt lat="40.3569183" lon="8.8996776"><ele>993.9999999999999</ele><time>2026-03-29T10:30:12.277Z</time></trkpt><trkpt lat="40.3569582" lon="8.8997627"><ele>994.0</ele><time>2026-03-29T10:30:14.277Z</time></trkpt><trkpt lat="40.3569969" lon="8.8998819"><ele>994.0</ele><time>2026-03-29T10:30:16.278Z</time></trkpt><trkpt lat="40.3570235" lon="8.8999727"><ele>994.0</ele><time>2026-03-29T10:30:18.278Z</time></trkpt><trkpt lat="40.3570534" lon="8.9001025"><ele>993.9999999999999</ele><time>2026-03-29T10:30:20.278Z</time></trkpt><trkpt lat="40.3570758" lon="8.9001825"><ele>994.0</ele><time>2026-03-29T10:30:21.277Z</time></trkpt><trkpt lat="40.357107" lon="8.9002996"><ele>994.9999999999999</ele><time>2026-03-29T10:30:23.277Z</time></trkpt><trkpt lat="40.3571428" lon="8.9004512"><ele>996.0</ele><time>2026-03-29T10:30:25.276Z</time></trkpt><trkpt lat="40.3571471" lon="8.9005376"><ele>997.0</ele><time>2026-03-29T10:30:26.277Z</time></trkpt><trkpt lat="40.3571797" lon="8.9006498"><ele>998.0</ele><time>2026-03-29T10:30:27.277Z</time></trkpt><trkpt lat="40.3571863" lon="8.9007908"><ele>998.9999999999999</ele><time>2026-03-29T10:30:29.278Z</time></trkpt><trkpt lat="40.357185" lon="8.900874"><ele>1000.0</ele><time>2026-03-29T10:30:30.277Z</time></trkpt><trkpt lat="40.3571755" lon="8.9009707"><ele>999.9999999999999</ele><time>2026-03-29T10:30:31.276Z</time></trkpt><trkpt lat="40.3571607" lon="8.9010905"><ele>1000.0</ele><time>2026-03-29T10:30:33.277Z</time></trkpt><trkpt lat="40.3571351" lon="8.9012034"><ele>1000.0</ele><time>2026-03-29T10:30:35.277Z</time></trkpt><trkpt lat="40.3570952" lon="8.9013696"><ele>1000.0</ele><time>2026-03-29T10:30:37.276Z</time></trkpt><trkpt lat="40.3570873" lon="8.9014535"><ele>999.9999999999999</ele><time>2026-03-29T10:30:38.276Z</time></trkpt><trkpt lat="40.3570729" lon="8.9015348"><ele>1000.0</ele><time>2026-03-29T10:30:39.276Z</time></trkpt><trkpt lat="40.3570469" lon="8.9016438"><ele>999.9999999999999</ele><time>2026-03-29T10:30:41.277Z</time></trkpt><trkpt lat="40.3570378" lon="8.9017416"><ele>1000.0</ele><time>2026-03-29T10:30:43.276Z</time></trkpt><trkpt lat="40.3569855" lon="8.9018487"><ele>1000.0</ele><time>2026-03-29T10:31:50.278Z</time></trkpt><trkpt lat="40.3569452" lon="8.9020083"><ele>1000.0</ele><time>2026-03-29T10:31:52.278Z</time></trkpt><trkpt lat="40.3569272" lon="8.9020923"><ele>999.9999999999999</ele><time>2026-03-29T10:31:53.277Z</time></trkpt><trkpt lat="40.3569162" lon="8.9021824"><ele>1000.0</ele><time>2026-03-29T10:31:54.278Z</time></trkpt><trkpt lat="40.3569245" lon="8.9022875"><ele>999.9999999999999</ele><time>2026-03-29T10:31:55.278Z</time></trkpt><trkpt lat="40.3569251" lon="8.9024014"><ele>1000.0</ele><time>2026-03-29T10:31:56.277Z</time></trkpt><trkpt lat="40.3569186" lon="8.9024876"><ele>1000.0</ele><time>2026-03-29T10:31:57.277Z</time></trkpt><trkpt lat="40.3569006" lon="8.9025953"><ele>1000.0</ele><time>2026-03-29T10:31:58.278Z</time></trkpt><trkpt lat="40.356884" lon="8.9026804"><ele>999.9999999999999</ele><time>2026-03-29T10:31:59.277Z</time></trkpt><trkpt lat="40.3568701" lon="8.9027992"><ele>1000.0</ele><time>2026-03-29T10:32:00.278Z</time></trkpt><trkpt lat="40.3568755" lon="8.9029146"><ele>999.4</ele><time>2026-03-29T10:32:01.277Z</time></trkpt><trkpt lat="40.356853" lon="8.9030233"><ele>998.8</ele><time>2026-03-29T10:32:02.277Z</time></trkpt><trkpt lat="40.3568183" lon="8.9031473"><ele>998.2</ele><time>2026-03-29T10:32:03.277Z</time></trkpt><trkpt lat="40.3567843" lon="8.9032816"><ele>997.6</ele><time>2026-03-29T10:32:04.277Z</time></trkpt><trkpt lat="40.3567507" lon="8.9034359"><ele>997.0</ele><time>2026-03-29T10:32:05.277Z</time></trkpt><trkpt lat="40.3567179" lon="8.9035667"><ele>997.0</ele><time>2026-03-29T10:32:06.278Z</time></trkpt><trkpt lat="40.3566897" lon="8.9036764"><ele>997.0</ele><time>2026-03-29T10:32:07.276Z</time></trkpt><trkpt lat="40.3566556" lon="8.9037838"><ele>997.0</ele><time>2026-03-29T10:32:08.277Z</time></trkpt><trkpt lat="40.3566187" lon="8.9038635"><ele>997.0</ele><time>2026-03-29T10:32:09.278Z</time></trkpt><trkpt lat="40.3565812" lon="8.9039556"><ele>997.0</ele><time>2026-03-29T10:32:10.277Z</time></trkpt><trkpt lat="40.3565349" lon="8.9041388"><ele>996.6666666666666</ele><time>2026-03-29T10:32:12.277Z</time></trkpt><trkpt lat="40.3565221" lon="8.9042544"><ele>996.3333333333333</ele><time>2026-03-29T10:32:13.277Z</time></trkpt><trkpt lat="40.3565145" lon="8.9043995"><ele>996.0</ele><time>2026-03-29T10:32:14.277Z</time></trkpt><trkpt lat="40.3565319" lon="8.9044806"><ele>995.6666666666667</ele><time>2026-03-29T10:32:15.279Z</time></trkpt><trkpt lat="40.3565353" lon="8.9045693"><ele>995.3333333333334</ele><time>2026-03-29T10:32:16.278Z</time></trkpt><trkpt lat="40.3565358" lon="8.904661"><ele>995.0</ele><time>2026-03-29T10:32:17.278Z</time></trkpt><trkpt lat="40.3565137" lon="8.904818"><ele>995.0</ele><time>2026-03-29T10:32:19.278Z</time></trkpt><trkpt lat="40.3564952" lon="8.9049334"><ele>995.0</ele><time>2026-03-29T10:32:20.278Z</time></trkpt><trkpt lat="40.3564943" lon="8.9050306"><ele>995.0</ele><time>2026-03-29T10:32:21.277Z</time></trkpt><trkpt lat="40.3564706" lon="8.9051465"><ele>995.0</ele><time>2026-03-29T10:32:23.277Z</time></trkpt><trkpt lat="40.3564404" lon="8.9052516"><ele>995.0</ele><time>2026-03-29T10:32:25.276Z</time></trkpt><trkpt lat="40.3563864" lon="8.9053763"><ele>995.0000000000001</ele><time>2026-03-29T10:32:27.278Z</time></trkpt><trkpt lat="40.3563746" lon="8.9054909"><ele>995.0</ele><time>2026-03-29T10:32:29.278Z</time></trkpt><trkpt lat="40.3564023" lon="8.9055886"><ele>995.0</ele><time>2026-03-29T10:32:31.276Z</time></trkpt><trkpt lat="40.3564168" lon="8.9056975"><ele>995.0</ele><time>2026-03-29T10:32:33.279Z</time></trkpt><trkpt lat="40.3564486" lon="8.9057725"><ele>995.0000000000001</ele><time>2026-03-29T10:32:35.277Z</time></trkpt><trkpt lat="40.3564573" lon="8.9058851"><ele>995.0</ele><time>2026-03-29T10:32:38.277Z</time></trkpt><trkpt lat="40.3564582" lon="8.9059696"><ele>995.0</ele><time>2026-03-29T10:32:40.279Z</time></trkpt><trkpt lat="40.3564548" lon="8.9060549"><ele>995.0</ele><time>2026-03-29T10:32:42.277Z</time></trkpt><trkpt lat="40.3564095" lon="8.9061669"><ele>995.0</ele><time>2026-03-29T10:32:44.279Z</time></trkpt><trkpt lat="40.3563555" lon="8.9063214"><ele>995.0</ele><time>2026-03-29T10:32:46.277Z</time></trkpt><trkpt lat="40.356296" lon="8.9064578"><ele>995.0</ele><time>2026-03-29T10:32:48.278Z</time></trkpt><trkpt lat="40.3562816" lon="8.9065894"><ele>995.2</ele><time>2026-03-29T10:32:50.277Z</time></trkpt><trkpt lat="40.3562963" lon="8.906723"><ele>995.4</ele><time>2026-03-29T10:32:52.276Z</time></trkpt><trkpt lat="40.356291" lon="8.9068136"><ele>995.5999999999999</ele><time>2026-03-29T10:32:53.279Z</time></trkpt><trkpt lat="40.3562534" lon="8.9069583"><ele>995.8</ele><time>2026-03-29T10:32:55.278Z</time></trkpt><trkpt lat="40.3561987" lon="8.9070714"><ele>996.0</ele><time>2026-03-29T10:32:57.278Z</time></trkpt><trkpt lat="40.3561465" lon="8.9071345"><ele>995.3333333333334</ele><time>2026-03-29T10:33:00.278Z</time></trkpt><trkpt lat="40.3561128" lon="8.9072056"><ele>994.6666666666667</ele><time>2026-03-29T10:33:08.277Z</time></trkpt><trkpt lat="40.3560688" lon="8.9072689"><ele>994.0</ele><time>2026-03-29T10:33:29.276Z</time></trkpt><trkpt lat="40.3560044" lon="8.9073599"><ele>993.3333333333334</ele><time>2026-03-29T10:33:32.279Z</time></trkpt><trkpt lat="40.3559634" lon="8.9074323"><ele>992.6666666666667</ele><time>2026-03-29T10:33:34.278Z</time></trkpt><trkpt lat="40.3559161" lon="8.9075049"><ele>992.0</ele><time>2026-03-29T10:33:36.277Z</time></trkpt><trkpt lat="40.3558608" lon="8.9075916"><ele>991.2</ele><time>2026-03-29T10:33:38.278Z</time></trkpt><trkpt lat="40.3558228" lon="8.9076597"><ele>990.4000000000001</ele><time>2026-03-29T10:33:39.278Z</time></trkpt><trkpt lat="40.3557729" lon="8.9077627"><ele>989.5999999999999</ele><time>2026-03-29T10:33:40.277Z</time></trkpt><trkpt lat="40.3557304" lon="8.9078707"><ele>988.8</ele><time>2026-03-29T10:33:41.276Z</time></trkpt><trkpt lat="40.3556722" lon="8.9080087"><ele>988.0</ele><time>2026-03-29T10:33:42.277Z</time></trkpt><trkpt lat="40.3556114" lon="8.9081239"><ele>987.9999999999999</ele><time>2026-03-29T10:33:43.279Z</time></trkpt><trkpt lat="40.3555774" lon="8.9082489"><ele>988.0</ele><time>2026-03-29T10:33:44.276Z</time></trkpt><trkpt lat="40.3555468" lon="8.9083598"><ele>988.0</ele><time>2026-03-29T10:33:45.278Z</time></trkpt><trkpt lat="40.3555305" lon="8.9084811"><ele>988.0</ele><time>2026-03-29T10:33:46.279Z</time></trkpt><trkpt lat="40.3555268" lon="8.9085873"><ele>987.9999999999999</ele><time>2026-03-29T10:33:47.277Z</time></trkpt><trkpt lat="40.3555225" lon="8.9086726"><ele>988.0</ele><time>2026-03-29T10:33:48.277Z</time></trkpt><trkpt lat="40.3554593" lon="8.9087805"><ele>986.9999999999999</ele><time>2026-03-29T10:33:50.277Z</time></trkpt><trkpt lat="40.3554081" lon="8.9088479"><ele>986.0</ele><time>2026-03-29T10:33:53.277Z</time></trkpt><trkpt lat="40.355352" lon="8.9089361"><ele>985.0</ele><time>2026-03-29T10:34:12.277Z</time></trkpt><trkpt lat="40.355354" lon="8.9090494"><ele>984.0</ele><time>2026-03-29T10:34:14.278Z</time></trkpt><trkpt lat="40.3553883" lon="8.9091452"><ele>982.9999999999999</ele><time>2026-03-29T10:34:15.277Z</time></trkpt><trkpt lat="40.3554285" lon="8.9092483"><ele>982.0</ele><time>2026-03-29T10:34:16.278Z</time></trkpt><trkpt lat="40.3554778" lon="8.9093942"><ele>981.4000000000001</ele><time>2026-03-29T10:34:17.278Z</time></trkpt><trkpt lat="40.3555214" lon="8.9095215"><ele>980.8000000000001</ele><time>2026-03-29T10:34:18.279Z</time></trkpt><trkpt lat="40.355559" lon="8.9096494"><ele>980.2</ele><time>2026-03-29T10:34:19.276Z</time></trkpt><trkpt lat="40.3555776" lon="8.909732"><ele>979.6</ele><time>2026-03-29T10:34:20.278Z</time></trkpt><trkpt lat="40.3556075" lon="8.9098622"><ele>979.0</ele><time>2026-03-29T10:34:22.278Z</time></trkpt><trkpt lat="40.355631" lon="8.9099561"><ele>978.0</ele><time>2026-03-29T10:34:24.279Z</time></trkpt><trkpt lat="40.3556258" lon="8.910071"><ele>978.0</ele><time>2026-03-29T10:34:26.278Z</time></trkpt><trkpt lat="40.355569" lon="8.9101177"><ele>979.0</ele><time>2026-03-29T10:34:28.278Z</time></trkpt><trkpt lat="40.3555199" lon="8.9100646"><ele>979.0</ele><time>2026-03-29T10:34:32.278Z</time></trkpt></trkseg></trk></gpx>